     2.11           OBSERVATION DATA    G (GPS)             RINEX VERSION / TYPE
teqc 2010Oct21 OPUS Account 20111027 21:04:42UTC            PGM / RUN BY / DATE
U 1526                                                      MARKER NAME
3055                                                        MARKER NUMBER
CSMIDDLETON NGS                                             OBSERVER / AGENCY
4624K01647 TRIMBLE NETR5 4.41                               REC # / TYPE / VERS
12694052 TRM41249.00 NONE                                   ANT # / TYPE
  -745171.8536 -5576681.5513  2994254.6378                  APPROX POSITION XYZ
        2.0040        0.0000        0.0000                  ANTENNA: DELTA H/E/N
     1     1                                                WAVELENGTH FACT L1/2
     5    L1    L2    C1    P1    P2                        # / TYPES OF OBSERV
    15                                                      LEAP SECONDS
  2011     8    20    16    41    0.0000000     GPS         TIME OF FIRST OBS
                                                            END OF HEADER
 11  8 20 16 41  0.0000000  0 11G06G08G07G10G03G19G28G16G11G13G23
 124896393.01216  97321898.96353  23766993.867                    23767002.590
 122423994.41617  95395354.91854  23296510.969                    23296519.492
 113182295.11618  88194026.95817  21537875.039                    21537882.801
 127429648.93015  99295694.98552  24249016.305                    24249025.465
 114652697.89317  89339795.69955  21817683.633                    21817690.660
 110008259.40518  85720744.14556  20933876.039                    20933881.473
 125513636.26816  97802875.99553  23884451.734                    23884460.504
 127917348.90816  99675900.11553  24341865.055                    24341873.043
 125441165.58016  97746301.77953  23870639.102                    23870648.879
 106061041.05318  82644994.62056  20182745.258                    20182751.750
 111411957.70318  86814536.04955  21200991.438                    21200997.512
 11  8 20 16 41 30.0000000  0 11G06G08G07G10G03G19G28G16G11G13G23
 124985224.836 6  97391118.41243  23783898.070                    23783907.043
 122353574.178 7  95340482.02044  23283109.969                    23283118.848
 113130268.337 8  88153486.615 7  21527974.586                    21527981.961
 127469028.80615  99326380.54152  24256509.648                    24256519.414
 114729121.541 7  89399346.52345  21832226.813                    21832233.910
 110015674.008 8  85726521.74246  20935286.953                    20935292.391
 125454144.931 7  97756519.16343  23873130.336                    23873139.379
 128005184.730 6  99744343.51143  24358579.984                    24358588.918
 125363075.582 6  97685452.47843  23855779.008                    23855788.645
 106092511.538 8  82669517.05146  20188733.922                    20188740.617
 111493818.870 8  86878323.92245  21216569.492                    21216574.691
 11  8 20 16 42  0.0000000  0 11G06G08G07G10G03G19G28G16G11G13G23
 125074338.960 6  97460557.90143  23800855.086                    23800865.273
 122283104.392 7  95285570.54244  23269700.914                    23269708.879
 113078332.814 8  88113017.379 7  21518092.063                    21518098.840
 127508723.374 5  99357311.35342  24264062.414                    24264073.063
 114805988.933 7  89459243.13345  21846853.773                    21846862.055
 110023708.828 8  85732782.62446  20936815.539                    20936821.336
 125394878.395 6  97710337.43643  23861853.039                    23861861.023
 128092946.319 6  99812729.07843  24375279.609                    24375290.570
 125284984.660 6  97624602.42843  23840918.828                    23840928.418
 106124569.272 8  82694497.07146  20194834.133                    20194841.152
 111576102.199 8  86942440.73845  21232226.984                    21232232.734
 11  8 20 16 42 30.0000000  0 11G06G08G07G10G03G19G28G16G11G13G23
 125163731.591 6  97530214.41343  23817866.945                    23817876.398
 122212584.303 7  95230619.84244  23256281.055                    23256289.305
 113026488.440 7  88072619.160 7  21508225.813                    21508232.930
 127548728.915 6  99388484.44542  24271675.789                    24271685.898
 114883296.359 7  89519482.63344  21861565.453                    21861573.125
 110032362.344 8  85739525.62246  20938462.391                    20938468.074
 125335835.523 6  97664330.04143  23850617.781                    23850625.578
 128180631.395 6  99881054.98643  24391967.094                    24391976.816
 125206894.372 6  97563752.93143  23826059.266                    23826068.680
 106157212.654 8  82719933.44946  20201046.250                    20201053.039
 111658803.905 8  87006883.58445  21247964.773                    21247970.586
 11  8 20 16 43  0.0000000  0 11G06G08G07G10G03G19G28G16G11G13G23
 125253400.622 6  97600086.29543  23834929.609                    23834940.063
 122142015.139 7  95175630.90744  23242851.992                    23242860.316
 112974737.249 7  88032293.553 7  21498378.234                    21498385.520
 127589043.293 6  99419898.19143  24279347.102                    24279357.391
 114961041.363 7  89580063.09844  21876359.117                    21876367.367
 110041634.882 8  85746750.95446  20940226.852                    20940232.363
 125277016.493 6  97618497.03043  23839423.961                    23839432.285
 128268239.606 6  99949321.01544  24408638.867                    24408648.332
 125128808.051 6  97502906.46943  23811199.750                    23811209.348
 106190441.183 8  82745825.77446  20207369.484                    20207376.211
 111741922.277 8  87071651.11145  21263781.820                    21263787.383
 11  8 20 16 43 30.0000000  0 11G06G08G07G10G03G19G28G16G11G13G23
 125343345.151 6  97670172.84243  23852045.891                    23852056.223
 122071398.764 7  95120605.18144  23229414.492                    23229422.477
 112923081.957 8  87992042.699 7  21488548.297                    21488555.316
 127629665.339 6  99451551.71243  24287076.445                    24287087.992
 115039222.979 7  89640983.79844  21891236.664                    21891245.266
 110051527.420 8  85754459.40846  20942109.781                    20942115.141
 125218422.588 6  97572839.44543  23828274.211                    23828282.402
 128355771.188 6 100017527.32143  24425295.227                    24425304.863
 125050729.575 6  97442066.11643  23796342.203                    23796351.270
 106224255.703 8  82772174.72046  20213803.906                    20213811.039
 111825456.267 8  87136742.46445  21279677.563                    21279683.559
 11  8 20 16 44  0.0000000  0 11G06G08G07G10G03G19G28G16G11G13G23
 125433561.533 6  97740471.23044  23869214.063                    23869224.594
 122000735.021 7  95065542.57644  23215966.570                    23215976.098
 112871522.648 7  87951866.634 7  21478737.102                    21478744.219
 127670591.915 6  99483442.49642  24294865.406                    24294876.000
 115117837.488 7  89702241.81844  21906196.477                    21906204.453
 110062038.580 8  85762649.92546  20944109.414                    20944115.125
 125160052.589 6  97527356.32844  23817167.375                    23817175.277
 128443224.412 6 100085672.58943  24441938.039                    24441946.438
 124972660.880 6  97381233.40143  23781486.055                    23781494.813
 106258654.483 8  82798978.93846  20220349.836                    20220356.840
 111909402.259 8  87202154.88545  21295652.000                    21295657.844
 11  8 20 16 44 30.0000000  0 11G06G08G07G10G03G19G28G16G11G13G23
 125524047.162 6  97810979.42043  23886433.195                    23886443.277
 121930024.108 7  95010443.19244  23202510.781                    23202519.734
 112820060.733 7  87911766.450 7  21468944.188                    21468951.547
 127711820.128 6  99515568.28542  24302711.500                    24302721.336
 115196881.588 7  89763834.56944  21921238.172                    21921246.367
 110073168.269 8  85771322.39046  20946227.500                    20946233.238
 125101906.225 7  97482047.48744  23806102.180                    23806110.648
 128530597.964 6 100153755.75343  24458564.656                    24458573.246
 124894604.676 6  97320410.42943  23766632.789                    23766641.328
 106293636.537 8  82826237.64046  20227006.727                    20227013.598
 111993757.911 8  87267886.50645  21311704.570                    21311710.387
 11  8 20 16 45  0.0000000  0 11G06G08G07G10G03G19G28G16G11G13G23
 125614799.317 7  97881695.28444  23903702.422                    23903712.711
 121859266.786 7  94955307.64244  23189046.414                    23189055.234
 112768697.593 8  87871743.228 7  21459169.883                    21459177.340
 127753347.661 6  99547927.36042  24310615.117                    24310624.324
 115276352.777 7  89825760.11445  21936361.234                    21936369.066
 110084915.838 8  85780476.31846  20948463.078                    20948468.512
 125043983.144 7  97436912.61044  23795079.938                    23795087.852
 128617890.817 6 100221776.07243  24475175.313                    24475184.633
 124816563.712 6  97259599.31743  23751782.039                    23751790.352
 106329200.865 8  82853950.07846  20233774.625                    20233781.418
 112078520.584 8  87333935.27445  21327834.398                    21327839.859
 11  8 20 16 45 30.0000000  0 11G06G08G07G10G03G19G28G16G11G13G23
 125705815.451 7  97952616.89344  23921023.305                    23921032.738
 121788463.662 7  94900136.42844  23175573.016                    23175581.949
 112717434.457 7  87831797.958 7  21449414.523                    21449422.016
 127795171.878 6  99580517.65742  24318573.008                    24318583.109
 115356248.324 7  89888016.31344  21951565.148                    21951572.863
 110097281.127 8  85790111.58746  20950816.273                    20950821.867
 124986283.094 7  97391951.52644  23784100.109                    23784108.113
 128705102.220 6 100289732.88643  24491771.797                    24491780.762
 124738540.977 6  97198802.43143  23736934.820                    23736942.957
 106365346.594 8  82882115.54446  20240652.609                    20240659.516
 112163687.966 8  87400299.42145  21344041.391                    21344046.711
 11  8 20 16 46  0.0000000  0 11G06G08G07G10G03G19G28G16G11G13G23
 125797093.667 7  98023742.70443  23938393.094                    23938401.715
 121717615.989 7  94844930.47044  23162091.852                    23162099.680
 112666273.213 7  87791932.066 7  21439679.297                    21439686.340
 127837290.576 5  99613337.25842  24326587.430                    24326598.020
 115436565.722 7  89950601.23145  21966848.602                    21966856.668
 110110264.275 8  85800228.31846  20953286.750                    20953292.137
 124928806.227 7  97347164.35143  23773162.766                    23773170.645
 128792231.313 5 100357625.57843  24508351.203                    24508360.938
 124660539.614 6  97138022.16243  23722092.008                    23722099.988
 106402073.768 8  82910734.10746  20247641.750                    20247648.785
 112249258.105 8  87466977.39145  21360324.664                    21360330.504
 11  8 20 16 46 30.0000000  0 11G06G08G07G10G03G19G28G16G11G13G23
 125888630.911 6  98095070.35943  23955811.516                    23955820.781
 121646724.133 7  94789690.08444  23148600.648                    23148609.219
 112615214.757 8  87752146.265 7  21429963.164                    21429970.477
 127879700.964 5  99646384.35942  24334657.508                    24334668.703
 115517302.142 7  90013512.64644  21982212.750                    21982220.672
 110123864.370 8  85810825.77546  20955875.234                    20955880.305
 124871552.408 7  97302551.02144  23762267.484                    23762275.242
 128879277.226 6 100425453.47343  24524915.883                    24524924.566
 124582562.249 6  97077260.62243  23707252.570                    23707261.867
 106439380.869 8  82939804.54846  20254740.938                    20254748.098
 112335228.092 8  87533966.93145  21376684.086                    21376690.004
 11  8 20 16 47  0.0000000  0 11G06G08G07G10G03G19G28G16G11G13G23
 125980424.975 6  98166598.14343  23973279.188                    23973288.887
 121575788.957 7  94734415.94144  23135102.133                    23135111.055
 112564260.614 8  87712441.746 7  21420266.773                    21420274.000
 127922400.76315  99679656.78851  24342782.109                    24342794.512
 115598455.118 7  90076748.64644  21997655.492                    21997663.234
 110138081.106 8  85821903.72646  20958580.195                    20958585.738
 124814521.411 7  97258111.32743  23751415.070                    23751422.691
 128966238.661 6 100493215.48242  24541463.547                    24541473.266
 124504611.618 6  97016519.89743  23692419.617                    23692428.398
 106477267.221 8  82969326.35146  20261950.734                    20261957.832
 112421595.546 8  87601266.19045  21393119.648                    21393125.348
 11  8 20 16 47 30.0000000  0 11G06G08G07G10G03G19G28G16G11G13G23
 126072472.981 6  98238323.74343  23990794.719                    23990804.973
 121504811.206 7  94679108.63244  23121595.211                    23121604.086
 112513412.088 8  87672819.539 7  21410590.703                    21410597.738
 127965387.311 4                  24350962.289
 115680022.025 7  90140307.17744  22013177.320                    22013184.965
 110152913.990 8  85833461.80246  20961402.688                    20961408.039
 124757712.724 7  97213844.84243  23740604.086                    23740612.535
 129053115.067 6 100560911.32142  24557995.438                    24558005.004
 124426690.648 6  96955802.29943  23677591.219                    23677599.875
 106515731.583 8  82999298.55146  20269270.141                    20269277.031
 112508358.081 8  87668873.30145  21409629.750                    21409635.742
 11  8 20 16 48  0.0000000  0 11G06G08G07G10G03G19G28G16G11G13G23
 126164772.599 6  98310245.45143  24008358.961                    24008368.789
 121433791.715 7  94623768.76744  23108080.930                    23108088.996
 112462670.930 8  87633280.982 7  21400934.906                    21400942.215
 128008658.096 5                  24359197.063
 115761999.831 7  90204185.89744  22028777.219                    22028785.176
 110168362.699 8  85845499.72546  20964342.688                    20964348.039
 124701126.468 6  97169751.66143  23729837.195                    23729844.859
 129139905.455 5 100628540.07042  24574511.336                    24574520.383
 124348802.241 6  96895110.05743  23662769.273                    23662778.168
 106554773.352 8  83029720.67546  20276699.672                    20276706.781
 112595513.361 8  87736786.45945  21426215.063                    21426221.031
 11  8 20 16 48 30.0000000  0 11G06G08G07G10G03G19G28G16G11G13G23
 126257321.309 6  98382361.22743  24025970.172                    24025979.969
 121362731.328 7  94568397.03144  23094558.641                    23094566.898
 112412038.370 8  87593827.048 7  21391300.063                    21391307.473
 128052210.433 5                  24367485.828
 115844386.226 7  90268383.04044  22044454.516                    22044462.984
 110184426.450 8  85858016.91346  20967399.727                    20967404.637
 124644761.772 6  97125831.16943  23719109.820                    23719118.199
 129226608.898 6 100696101.07242  24591011.234                    24591019.445
 124270949.185 6  96834445.36943  23647954.648                    23647962.500
 106594391.400 8  83060591.86046  20284238.336                    20284245.699
 112683058.611 8  87805003.47345  21442874.523                    21442880.520
 11  8 20 16 49  0.0000000  0 11G06G08G07G10G03G19G28G16G11G13G23
 126350116.320 6  98454668.94443  24043628.648                    24043638.645
 121291630.124 7  94512993.51044  23081028.305                    23081036.676
 112361515.812 8  87554458.856 7  21381686.055                    21381693.078
 128096041.816 5                  24375827.008
 115927177.855 7  90332895.92544  22060209.742                    22060218.059
 110201104.601 8  85871012.86346  20970573.109                    20970578.793
 124588618.744 6  97082083.38543  23708425.875                    23708434.207
 129313224.486 6 100763593.68743  24607493.414                    24607501.734
 124193134.472 6  96773810.55743  23633146.531                    23633155.090
 106634584.425 8  83091911.06646  20291887.352                    20291894.375
 112770991.082 8  87873522.22345  21459607.797                    21459613.723
 11  8 20 16 49 30.0000000  0 11G06G08G07G10G03G19G28G16G11G13G23
 126443155.280 6  98527166.76743  24061333.844                    24061343.152
 121220489.180 7  94457559.05344  23067490.977                    23067499.625
 112311104.833 8  87515177.574 7  21372092.977                    21372099.828
 128140149.468 5                  24384219.820
 116010372.097 7  90397722.54844  22076040.828                    22076049.137
 110218396.887 8  85884487.35246  20973863.844                    20973868.664
 124532697.090 7  97038508.14543  23697784.180                    23697793.574
 129399751.718 6 100831017.42643  24623959.734                    24623967.527
 124115360.886 6  96713207.83543  23618346.672                    23618355.516
 106675351.978 8  83123677.95746  20299645.133                    20299651.840
 112859308.567 8  87942340.98645  21476413.641                    21476419.547
 11  8 20 16 50  0.0000000  0 11G06G08G07G10G03G19G28G16G11G13G23
 126536435.273 6  98599852.35344  24079084.648                    24079095.082
 121149309.031 7  94402094.03444  23053946.125                    23053954.250
 112260806.258 7  87475983.893 7  21362521.508                    21362528.617
 128184530.906 5                  24392666.078
 116093965.913 7  90462860.53644  22091948.227                    22091956.375
 110236302.068 8  85898439.43746  20977271.094                    20977276.344
 124476996.183 7  96995104.87843  23687184.891                    23687193.836
 129486188.858 6 100898370.96843  24640408.008                    24640417.176
 124037631.138 6  96652639.23843  23603556.070                    23603563.992
 106716692.275 8  83155891.15246  20307511.859                    20307518.797
 112948008.073 8  88011457.41745  21493292.477                    21493298.672
 11  8 20 16 50 30.0000000  0 11G06G08G07G10G03G19G28G16G11G13G23
 126629953.990 6  98672723.97143  24096880.234                    24096890.371
 121078090.525 7  94346599.12244  23040393.383                    23040402.105
 112210622.019 8  87436879.291 7  21352971.563                    21352979.148
 128229183.464 5                  24401163.086
 116177956.617 7  90528307.79744  22107931.750                    22107939.500
 110254819.858 8  85912868.87346  20980794.313                    20980800.785
 124421515.922 6  96951873.52644  23676627.828                    23676636.809
 129572535.721 6 100965654.14243  24656838.258                    24656848.461
 123959948.084 6  96592107.06843  23588772.555                    23588780.891
 106758604.545 8  83188550.02446  20315487.758                    20315494.313
 113037087.340 8  88080869.77445  21510243.953                    21510249.426
 11  8 20 16 51  0.0000000  0 11G06G08G07G10G03G19G28G16G11G13G23
 126723708.884 6  98745779.61544  24114723.109                    24114732.000
 121006834.633 7  94291075.08044  23026833.766                    23026842.273
 112160553.158 8  87397864.614 7  21343443.781                    21343451.051
 128274104.453 5                  24409710.281
 116262341.606 7  90594062.27144  22123989.398                    22123997.586
 110273949.755 8  85927775.27446  20984435.266                    20984440.855
 124366256.000 7  96908813.87543  23666112.320                    23666120.520
 129658791.297 6 101032866.19143  24673253.664                    24673262.816
 123882314.632 6  96531613.51643  23573999.328                    23574008.641
 106801087.741 8  83221653.79446  20323571.852                    20323578.813
 113126544.020 8  88150576.23045  21527266.836                    21527272.484
 11  8 20 16 51 30.0000000  0 11G06G08G07G10G03G19G28G16G11G13G23
 126817697.505 6  98819017.39743  24132607.500                    24132616.980
 120935542.201 7  94235522.56044  23013267.563                    23013276.016
 112110601.645 7  87358941.368 7  21333938.391                    21333945.621
 128319291.189 5                  24418309.688
 116347118.235 7  90660121.92644  22140121.930                    22140129.875
 110293691.058 8  85943158.08846  20988191.273                    20988197.531
 124311216.173 7  96865925.74043  23655638.109                    23655647.012
 129744954.895 6 101100006.58443  24689649.742                    24689659.180
 123804734.055 6  96471161.19743  23559235.523                    23559244.965
 106844140.874 8  83255201.65746  20331764.672                    20331771.418
 113216375.198 8  88220574.48145  21544361.383                    21544367.559
 11  8 20 16 52  0.0000000  0 11G06G08G07G10G03G19G28G16G11G13G23
 126911917.325 6  98892435.33643  24150536.953                    24150546.414
 120864214.231 7  94179942.36144  22999693.930                    22999702.223
 112060768.835 8  87320110.637 7  21324454.672                    21324462.730
 128364741.325 5                  24426958.898
 116432283.180 7  90726484.16745  22156328.258                    22156336.902
 110314042.950 8  85959016.68846  20992064.719                    20992070.563
 124256396.170 7  96823208.88044  23645206.820                    23645214.969
 129831025.676 6 101167074.65443  24706028.211                    24706037.805
 123727208.843 6  96410752.02043  23544483.359                    23544492.922
 106887762.628 8  83289192.60746  20340065.391                    20340072.566
 113306578.459 8  88290862.66445  21561526.891                    21561532.797
 11  8 20 16 52 30.0000000  0 11G06G08G07G10G03G19G28G16G11G13G23
 127006365.645 6  98966031.34443  24168509.695                    24168519.672
 120792851.512 7  94124335.09444  22986113.992                    22986122.855
 112011056.373 8  87281373.656 7  21314995.469                    21315002.980
 128410452.238 6                  24435657.320
 116517834.083 7  90793147.15244  22172607.906                    22172617.031
 110335004.862 8  85975350.62046  20996053.727                    20996059.203
 124201795.564 7  96780663.00044  23634816.039                    23634825.090
 129917002.862 6 101234069.77543  24722388.500                    24722398.344
 123649742.011 6  96350388.28043  23529742.477                    23529750.766
 106931951.710 8  83323625.62646  20348474.109                    20348481.668
 113397151.137 8  88361438.71245  21578761.859                    21578767.996
 11  8 20 16 53  0.0000000  0 11G06G08G07G10G03G19G28G16G11G13G23
 127101039.892 6  99039803.43143  24186525.813                    24186535.766
 120721454.554 7  94068701.14744  22972527.375                    22972536.398
 111961465.348 8  87242731.311 7  21305558.258                    21305566.000
 128456421.064 6                  24444404.977
 116603768.044 7  90860108.58744  22188960.758                    22188969.801
 110356575.512 8  85992158.89946  21000158.477                    21000163.773
 124147413.746 7  96738287.58744  23624466.953                    23624476.344
 130002885.509 6 101300991.19843  24738731.875                    24738741.523
 123572336.656 6  96290072.49143  23515011.992                    23515021.090
 106976706.918 8  83358499.78046  20356991.039                    20356998.164
 113488090.483 8  88432300.47545  21596067.289                    21596073.230
 11  8 20 16 53 30.0000000  0 11G06G08G07G10G03G19G28G16G11G13G23
 127195937.706 6  99113749.66343  24204583.742                    24204594.184
 120650024.110 7  94013041.07044  22958934.453                    22958942.527
 111911997.188 8  87204184.674 7  21296145.172                    21296152.477
 128502645.522 6                  24453200.594
 116690082.099 7  90927366.21644  22205385.711                    22205394.820
 110378754.274 8  86009441.04046  21004378.578                    21004384.215
 124093250.475 7  96696082.48144  23614160.578                    23614169.242
 130088672.873 6 101367838.38443  24755055.898                    24755065.441
 123494995.522 6  96229806.73644  23500294.813                    23500303.766
 107022027.345 8  83393814.37046  20365615.352                    20365622.586
 113579393.942 8  88503445.96845  21613442.188                    21613448.398
 11  8 20 16 54  0.0000000  0 11G06G08G07G10G03G19G28G16G11G13G23
 127291056.191 6  99187867.87643  24222685.258                    24222695.094
 120578561.535 7  93957355.96644  22945335.703                    22945343.996
 111862653.600 8  87165735.141 7  21286755.891                    21286763.176
 128549122.878 5 100168028.94852  24462045.742                    24462056.188
 116776773.399 7  90994917.81044  22221882.703                    22221891.941
 110401540.188 8  86027196.27746  21008715.281                    21008720.395
 124039305.556 7  96654047.52944  23603895.766                    23603903.703
 130174363.662 6 101434610.36743  24771362.078                    24771371.887
 123417721.365 7  96169593.16243  23485589.961                    23485598.984
 107067911.204 8  83429568.00146  20374346.828                    20374353.848
 113671058.759 8  88574873.03245  21630885.523                    21630891.816
 11  8 20 16 54 30.0000000  0 11G06G08G07G10G03G19G28G16G11G13G23
 127386393.001 6  99262156.22343  24240826.523                    24240837.520
 120507067.172 7  93901646.11044  22931731.039                    22931739.375
 111813435.947 8  87127383.731 7  21277389.797                    21277397.313
 128595850.097 6 100204439.68242  24470938.273                    24470948.230
 116863839.173 7  91062761.19044  22238450.578                    22238459.469
 110424932.690 8  86045424.18646  21013166.375                    21013171.836
 123985578.371 7  96612182.22144  23593671.375                    23593679.785
 130259957.710 5 101501306.90143  24787650.273                    24787660.594
 123340517.200 7  96109434.12344  23470898.938                    23470907.164
 107114357.297 8  83465759.72446  20383185.445                    20383192.465
 113763082.194 7  88646579.53945  21648396.695                    21648403.074
 11  8 20 16 55  0.0000000  0 11G06G08G07G10G03G19G28G16G11G13G23
 127481945.219 6  99336612.37043  24259010.164                    24259021.469
 120435541.804 7  93845912.07044  22918119.867                    22918128.414
 111764345.507 8  87089131.450 7  21268048.250                    21268055.766
 128642824.111 6 100241042.79642  24479876.531                    24479886.906
 116951276.331 7  91130893.99244  22255089.148                    22255098.352
 110448930.240 8  86064123.56646  21017733.117                    21017738.879
 123932068.374 7  96570486.15343  23583489.336                    23583496.570
 130345453.854 5 101567927.21942  24803920.414                    24803929.836
 123263385.964 7  96049331.91244  23456221.664                    23456229.633
 107161363.906 8  83502388.22146  20392130.719                    20392137.293
 113855461.552 8  88718563.38545  21665975.695                    21665982.203
 11  8 20 16 55 30.0000000  0 11G06G08G07G10G03G19G28G16G11G13G23
 127577710.620 6  99411234.64343  24277234.773                    24277244.984
 120363986.608 7  93790154.80644  22904503.258                    22904511.738
 111715384.350 8  87050979.930 7  21258731.055                    21258738.285
 128690043.016 6 100277836.62442  24488863.703                    24488872.156
 117039082.520 7  91199314.34244  22271798.422                    22271807.742
 110473532.901 8  86083294.47646  21022414.656                    21022420.688
 123878775.393 7  96528959.23044  23573347.266                    23573355.285
 130430851.762 6 101634470.88243  24820171.828                    24820180.590
 123186330.578 7  95989288.82444  23441558.266                    23441566.391
 107208930.220 8  83539452.85746  20401181.875                    20401189.359
 113948194.475 8  88790822.72845  21683622.375                    21683629.348
 11  8 20 16 56  0.0000000  0 11G06G08G07G10G03G19G28G16G11G13G23
 127673686.654 6  99486021.07343  24295497.531                    24295507.969
 120292402.621 7  93734375.10544  22890880.438                    22890889.352
 111666553.771 8  87012930.129 7  21249439.172                    21249446.141
 128737504.039 6 100314819.17543  24497894.117                    24497904.383
 117127254.651 7  91268019.81944  22288577.805                    22288586.098
 110498739.068 8  86102935.62746  21027211.148                    21027216.906
 123825698.776 7  96487600.85643  23563247.336                    23563255.465
 130516150.321 6 101700937.17842  24836403.648                    24836412.680
 123109353.837 7  95929307.00543  23426910.297                    23426918.484
 107257055.008 8  83576952.65546  20410340.172                    20410346.934
 114041278.121 8  88863355.36245  21701336.102                    21701341.945
 11  8 20 16 56 30.0000000  0 11G06G08G07G10G03G19G28G16G11G13G23
 127769870.804 6  99560969.61943  24313801.344                    24313811.320
 120220790.692 7  93678573.62244  22877254.492                    22877262.453
 111617855.296 8  86974983.273 7  21240171.711                    21240179.594
 128785204.070 6 100351988.02042  24506971.047                    24506981.219
 117215789.647 7  91337008.09144  22305424.938                    22305433.898
 110524547.773 8  86123046.29846  21032122.805                    21032128.188
 123772838.642 7  96446411.17344  23553188.422                    23553196.430
 130601348.948 6 101767325.64442  24852616.141                    24852625.359
 123032458.926 7  95869388.93843  23412277.234                    23412285.672
 107305736.894 8  83614886.56246  20419603.492                    20419610.438
 114134710.010 8  88936159.36345  21719115.086                    21719121.238
 11  8 20 16 57  0.0000000  0 11G06G08G07G10G03G19G28G16G11G13G23
 127866260.562 6  99636078.40943  24332144.305                    24332153.094
 120149151.756 7  93622751.10544  22863621.680                    22863630.461
 111569290.487 8  86937140.583 7  21230929.875                    21230937.184
 128833140.781 6 100389341.14742  24516092.313                    24516103.402
 117304684.819 7  91406276.97644  22322341.281                    22322350.070
 110550958.281 8  86143625.90146  21037148.648                    21037154.203
 123720194.417 7  96405389.74744  23543170.219                    23543178.832
 130686447.224 6 101833635.96342  24868810.070                    24868818.133
 122955648.900 7  95809537.04843  23397660.398                    23397669.695
 107354974.508 8  83653253.51046  20428973.234                    20428979.828
 114228487.266 8  89009232.48345  21736960.227                    21736966.617
 11  8 20 16 57 30.0000000  0 11G06G08G07G10G03G19G28G16G11G13G23
 127962853.455 6  99711345.50643  24350524.992                    24350534.508
 120077487.050 7  93566908.49945  22849984.906                    22849993.137
 111520860.889 8  86899403.237 7  21221714.375                    21221721.648
 128881311.635 5 100426876.82442  24525259.773                    24525270.121
 117393937.549 7  91475824.47744  22339325.758                    22339334.453
 110577969.674 8  86164673.72746  21042288.266                    21042294.457
 123667765.605 7  96364536.19744  23533193.219                    23533201.973
 130771444.521 5 101899867.53042  24884983.859                    24884992.641
 122878926.822 7  95749753.65444  23383060.500                    23383069.594
 107404766.240 8  83692052.23446  20438448.398                    20438455.469
 114322607.341 8  89082572.73145  21754871.039                    21754877.469
 11  8 20 16 58  0.0000000  0 10G06G08G07G10G03G19G28G11G13G23
 128059647.159 6  99786769.05343  24368943.484                    24368953.879
 120005797.138 7  93511046.23744  22836342.305                    22836350.723
 111472568.527 8  86861772.825 7  21212524.414                    21212532.223
 128929714.189 6 100464593.08542  24534469.844                    24534481.523
 117483545.157 7  91545648.53044  22356376.945                    22356385.922
 110605580.904 8  86186188.96146  21047542.727                    21047548.492
 123615551.904 7  96323850.25143  23523257.094                    23523265.359
 122802295.408 7  95690040.91843  23368477.766                    23368486.660
 107455110.823 8  83731281.75346  20448028.594                    20448035.781
 114417067.659 8  89156178.10245  21772846.445                    21772852.113
 11  8 20 16 58 30.0000000  0 10G06G08G07G10G03G19G28G11G13G23
 128156638.830 6  99862346.86043  24387400.438                    24387410.215
 119934082.903 7  93455165.03244  22822695.492                    22822703.828
 111424414.699 8  86824250.381 7  21203361.711                    21203368.164
 128978345.284 5 100502487.35142  24543724.125                    24543735.871
 117573504.517 7  91615746.66644  22373496.086                    22373504.430
 110633790.702 8  86208170.61946  21052910.711                    21052916.684
 123563552.762 6  96283331.46944  23513362.461                    23513370.574
 122725757.704 7  95630401.18343  23353913.703                    23353922.586
 107506006.605 8  83770940.77846  20457714.180                    20457720.914
 114511865.447 8  89230046.44845  21790885.984                    21790891.691
 11  8 20 16 59  0.0000000  0 10G06G08G07G10G03G19G28G11G13G23
 128253826.025 6  99938077.01043  24405894.016                    24405904.691
 119862345.656 7  93399265.88444  22809044.219                    22809052.992
 111376401.064 8  86786837.170 7  21194224.422                    21194231.926
 129027202.171 5 100540557.49442  24553021.422                    24553032.004
 117663812.791 7  91686116.66344  22390681.180                    22390689.613
 110662597.965 8  86230617.82646  21058392.508                    21058398.094
 123511767.840 6  96242979.61043  23503507.773                    23503516.172
 122649316.568 6  95570836.71443  23339367.578                    23339375.453
 107557452.200 8  83811028.24146  20467503.266                    20467511.023
 114606997.919 8  89304175.57445  21808989.070                    21808995.297
 11  8 20 16 59 30.0000000  0 10G06G08G07G10G03G19G28G11G13G23
 128351206.073 6 100013957.47743  24424424.758                    24424435.367
 119790586.071 7  93343349.33044  22795388.820                    22795397.863
 111328528.777 8  86749534.098 7  21185115.031                    21185122.180
 129076282.276 6 100578801.70242  24562361.563                    24562371.723
 117754466.856 7  91756756.09944  22407932.867                    22407940.813
 110692001.576 8  86253529.71346  21063987.969                    21063993.543
 123460196.474 6  96202794.19443  23493694.000                    23493702.117
 122572974.998 7  95511349.81543  23324840.031                    23324848.246
 107609446.017 8  83851542.87846  20477397.641                    20477404.895
 114702462.042 7  89378563.11845  21827155.234                    21827161.703
 11  8 20 17  0  0.0000000  0 10G06G08G07G10G03G19G28G11G13G23
 128448776.459 6 100089986.22243  24442991.008                    24443002.527
 119718805.334 7  93287416.32144  22781729.883                    22781737.852
 111280799.652 8  86712342.585 7  21176032.281                    21176039.020
 129125582.750 6 100617217.56643  24571743.172                    24571753.918
 117845463.891 7  91827662.81744  22425248.445                    22425257.102
 110722000.449 8  86276905.44746  21069696.219                    21069701.855
 123408838.051 6  96162774.67843  23483920.836                    23483928.719
 122496736.120 7  95451942.92943  23310332.289                    23310340.801
 107661986.393 8  83892483.40046  20487395.984                    20487403.086
 114798255.091 8  89453206.98045  21845384.352                    21845390.531
 11  8 20 17  0 30.0000000  0 10G06G08G07G10G03G19G28G11G13G23
 128546534.557 6 100166161.26043  24461596.031                    24461605.898
 119647004.410 7  93231467.56244  22768066.484                    22768074.688
 111233215.358 8  86675263.919 7  21166977.086                    21166983.926
 129175100.724 5 100655802.94143  24581166.641                    24581177.242
 117936800.900 7  91898834.42944  22442629.711                    22442638.020
 110752593.192 8  86300743.93646  21075518.297                    21075523.598
 123357692.283 7  96122920.85444  23474188.719                    23474196.543
 122420602.512 7  95392618.08144  23295843.445                    23295853.055
 107715071.604 8  83933848.47246  20497497.656                    20497504.758
 114894374.356 7  89528105.03445  21863674.922                    21863681.492
 11  8 20 17  1  0.0000000  0 10G06G08G07G10G03G19G28G11G13G23
 128644477.822 6 100242480.60443  24480233.898                    24480244.238
 119575183.910 7  93175503.54444  22754399.297                    22754407.660
 111185777.071 8  86638299.023 7  21157950.008                    21157957.246
 129224833.450 6 100694555.55643  24590629.047                    24590640.922
 118028475.271 7  91970268.91444  22460074.711                    22460082.898
 110783778.722 7  86325044.33846  21081452.695                    21081458.543
 123306758.354 6  96083232.10044  23464495.641                    23464504.148
 122344577.148 6  95333377.60243  23281377.211                    23281385.777
 107768699.901 8  83975636.73346  20507702.922                    20507709.832
 114990817.105 7  89603255.15445  21882027.602                    21882033.707
 11  8 20 17  1 30.0000000  0 10G06G08G07G10G03G19G28G11G13G23
 128742603.672 6 100318942.20443  24498906.570                    24498917.434
 119503345.102 7  93119525.28644  22740728.742                    22740737.094
 111138486.824 8  86601449.491 7  21148951.328                    21148958.059
 129274778.228 6 100733473.53142  24600134.500                    24600145.637
 118120483.741 7  92041963.77444  22477583.727                    22477591.813
 110815555.438 8  86349805.39246  21087499.688                    21087505.270
 123256035.836 7  96043708.09944  23454843.906                    23454851.801
 122268663.229 7  95274223.91943  23266930.859                    23266939.535
 107822869.985 8  84017847.15146  20518011.555                    20518018.328
 115087580.511 8  89678655.14445  21900440.742                    21900447.621
 11  8 20 17  2  0.0000000  0 10G06G08G07G10G03G19G28G11G13G23
 128840909.802 5 100395544.29043  24517614.211                    24517625.137
 119431489.027 7  93063533.57444  22727055.008                    22727064.148
 111091346.035 8  86564716.420 7  21139980.938                    21139987.926
 129324932.444 6 100772554.67943  24609678.867                    24609689.457
 118212823.681 7  92113916.89644  22495154.922                    22495163.988
 110847922.426 8  86375026.42546  21093658.922                    21093664.137
 123205524.521 7  96004348.68044  23445231.883                    23445239.340
 122192863.729 7  95215159.37244  23252507.063                    23252515.063
 107877580.617 8  84060478.79046  20528422.000                    20528429.113
 115184661.966 8  89754302.94045  21918915.164                    21918921.988
 11  8 20 17  2 30.0000000  0 10G06G08G07G10G03G19G28G11G13G23
 128939393.836 5 100472284.99043  24536354.570                    24536365.492
 119359617.079 7  93007529.50444  22713378.633                    22713386.672
 111044356.604 8  86528101.293 7  21131038.719                    21131045.695
 129375293.330 6 100811796.82042  24619262.461                    24619272.523
 118305492.129 7  92186126.02944  22512788.984                    22512797.336
 110880878.522 8  86400706.48746  21099930.016                    21099935.336
 123155223.795 7  95965153.35644  23435659.727                    23435668.137
 122117181.732 7  95156186.41544  23238104.852                    23238113.457
 107932829.796 8  84103530.07446  20538935.695                    20538943.176
 115282058.696 7  89830196.42645  21937448.992                    21937455.680
 11  8 20 17  3  0.0000000  0 10G06G08G07G10G03G19G28G11G13G23
 129038052.617 6 100549161.83843  24555129.000                    24555139.691
 119287729.713 7  92951513.38644  22699698.469                    22699706.836
 110997519.933 8  86491605.201 7  21122125.922                    21122133.055
 129425858.088 6 100851197.83042  24628884.492                    24628894.109
 118398485.955 7  92258588.67444  22530484.867                    22530493.680
 110914421.955 8  86426844.22146  21106312.984                    21106318.801
 123105132.935 7  95926121.59644  23426128.172                    23426136.023
 122041620.127 7  95097307.29544  23223726.266                    23223735.113
 107988615.253 8  84146999.23646  20549551.336                    20549558.758
 115379767.727 7  89906333.25345  21956042.711                    21956049.063
 11  8 20 17  3 30.0000000  0 10G06G08G07G10G03G19G28G11G13G23
 129136884.219 6 100626173.40042  24573934.984                    24573946.273
 119215828.285 7  92895486.32444  22686015.742                    22686024.484
 110950837.863 8  86455229.572 7  21113242.922                    21113249.723
 129476624.264 6 100890755.80542  24638544.719                    24638555.656
 118491802.637 6  92331302.90644  22548242.531                    22548251.906
 110948551.727 8  86453438.84146  21112807.844                    21112813.504
 123055251.630 7  95887253.10444  23416636.023                    23416644.223
 121966181.576 7  95038524.02744  23209370.859                    23209379.246
 108044935.810 8  84190885.35446  20560269.039                    20560276.379
 115477786.287 7  89982711.28645  21974694.523                    21974701.762
 11  8 20 17  4  0.0000000  0 10G06G08G07G10G03G19G28G11G13G23
 129235885.976 6 100703317.55043  24592774.344                    24592786.309
 119143914.150 7  92839449.37644  22672331.219                    22672340.180
 110904312.183 8  86418975.800 7  21104389.258                    21104396.129
 129527588.929 6 100930468.37342  24648242.148                    24648253.828
 118585439.276 7  92404266.44444  22566061.797                    22566070.043
 110983266.663 8  86480489.43846  21119414.063                    21119419.254
 123005579.572 7  95848547.68544  23407183.336                    23407191.523
 121890869.556 7  94979839.35244  23195039.047                    23195047.762
 108101789.863 8  84235187.18246  20571088.148                    20571094.988
 115576112.028 7  90059328.65145  21993405.742                    21993412.020
 11  8 20 17  4 30.0000000  0 10G06G08G07G10G03G19G28G11G13G23
 129335055.368 6 100780592.33843  24611646.359                    24611657.191
 119071988.534 7  92783403.45944  22658644.109                    22658652.434
 110857944.029 8  86382844.777 7  21095565.406                    21095572.551
 129578749.350 6 100970333.54242  24657977.961                    24657988.840
 118679392.739 7  92477476.85044  22583940.797                    22583948.652
 111018565.080 7  86507994.67946  21126131.086                    21126136.574
 122956116.021 7  95810004.70044  23397771.359                    23397778.406
 121815687.013 7  94921255.55044  23180732.633                    23180740.625
 108159175.689 8  84279903.38146  20582007.938                    20582015.453
 115674741.124 7  90136182.40845  22012174.141                    22012180.645
 11  8 20 17  5  0.0000000  0 10G06G08G07G10G03G19G28G11G13G23
 129434389.710 6 100857995.69142  24630548.664                    24630559.645
 119000052.114 7  92727349.12545  22644955.352                    22644963.824
 110811735.141 8  86346837.853 7  21086772.438                    21086779.246
 129630102.756 5 101010349.11642  24667750.328                    24667760.953
 118773660.406 7  92550932.06344  22601879.852                    22601887.227
 111054445.621 7  86535953.52846  21132959.344                    21132965.094
 122906859.970 7  95771623.41944  23388397.734                    23388405.477
 121740636.812 7  94862774.89844  23166451.414                    23166459.383
 108217091.306 8  84325032.40446  20593028.805                    20593036.258
 115773671.437 7  90213270.89245  22031000.539                    22031006.324
 11  8 20 17  5 30.0000000  0 10G06G08G07G10G03G19G28G11G13G23
 129533886.935 6 100935525.87443  24649482.758                    24649493.676
 118928106.083 7  92671287.32445  22631264.055                    22631272.793
 110765688.003 8  86310956.965 7  21078009.789                    21078016.488
 129681646.616 5 101050513.12342  24677558.672                    24677569.871
 118868239.552 7  92624630.04444  22619877.039                    22619884.711
 111090907.261 7  86564365.18746  21139897.203                    21139903.492
 122857811.344 7  95733403.77644  23379063.773                    23379071.625
 121665722.123 7  94804399.85244  23152195.375                    23152203.789
 108275535.545 8  84370573.34846  20604150.445                    20604157.715
 115872900.647 7  90290592.27345  22049883.227                    22049889.289
 11  8 20 17  6  0.0000000  0 10G06G08G07G10G03G19G28G11G13G23
 129633543.957 6 101013180.60943  24668447.070                    24668458.039
 118856151.040 7  92615218.48445  22617571.891                    22617580.449
 110719803.170 8  86275202.554 7  21069278.273                    21069285.059
 129733377.356 6 101090822.66742  24687403.719                    24687414.414
 118963126.747 7  92698568.01644  22637932.977                    22637941.215
 111127947.818 8  86593227.95146  21146946.320                    21146951.410
 122808969.131 6  95695344.95244  23369769.211                    23369777.113
 121590945.805 7  94746132.61244  23137965.516                    23137974.086
 108334505.351 8  84416523.80846  20615372.313                    20615379.605
 115972425.096 7  90368143.70845  22068822.117                    22068828.145
 11  8 20 17  6 30.0000000  0 10G06G08G07G10G03G19G28G11G13G23
 129733358.683 6 101090958.22843  24687441.141                    24687452.145
 118784189.078 7  92559144.26345  22603878.188                    22603886.355
 110674083.046 8  86239576.496 7  21060578.242                    21060584.906
 129785292.588 6 101131275.98542  24697281.867                    24697293.949
 119058319.027 7  92772743.77344  22656047.664                    22656056.305
 111165566.264 8  86622541.00246  21154104.430                    21154109.895
 122760333.185 7  95657446.87444  23360514.086                    23360522.016
 121516310.778 7  94687975.46344  23123762.727                    23123771.301
 108393999.390 8  84462882.77846  20626693.813                    20626700.746
 116072242.078 7  90445923.09845  22087817.000                    22087822.645
 11  8 20 17  7  0.0000000  0 10G06G08G07G10G03G19G28G11G13G23
 129833328.226 6 101168856.49743  24706465.391                    24706476.195
 118712220.657 7  92503065.00744  22590182.734                    22590190.754
 110628528.621 8  86204079.557 7  21051908.852                    21051915.758
 129837389.502 6 101171870.91042  24707195.563                    24707207.383
 119153813.595 7  92847155.01943  22674218.898                    22674228.656
 111203760.511 8  86652302.73946  21161372.445                    21161378.313
 122711902.617 7  95619708.81344  23351298.297                    23351305.961
 121441820.026 7  94629930.73044  23109588.055                    23109596.477
 108454015.587 8  84509648.62146  20638114.039                    20638121.191
 116172348.535 7  90523928.06045  22106866.602                    22106872.559
 11  8 20 17  7 30.0000000  0 10G06G08G07G10G03G19G28G11G13G23
 129933450.517 6 101246873.80743  24725518.484                    24725529.727
 118640247.588 7  92446982.10844  22576486.164                    22576494.633
 110583142.322 8  86168713.600 7  21043272.461                    21043279.336
 129889665.444 6 101212605.34043  24717144.078                    24717155.324
 119249608.224 6  92921800.11843  22692449.266                    22692457.672
 111242529.789 8  86682512.54246  21168750.234                    21168755.641
 122663677.143 7  95582130.53044  23342121.047                    23342128.160
 121367476.820 7  94572001.00144  23095440.969                    23095449.254
 108514552.775 8  84556820.42746  20649634.398                    20649641.570
 116272742.042 7  90602156.70545  22125970.453                    22125977.094
 11  8 20 17  8  0.0000000  0 10G06G08G07G10G03G19G28G11G13G23
 130033722.978 6 101325008.11043  24744598.641                    24744610.492
 118568271.093 7  92390896.57344  22562789.617                    22562798.168
 110537925.878 8  86133480.031 7  21034667.938                    21034675.203
 129942117.840 6 101253477.23843  24727124.992                    24727136.508
 119345699.476 6  92996676.36443  22710734.641                    22710743.438
 111281872.408 7  86713169.10046  21176236.914                    21176242.523
 122615656.078 7  95544711.54844  23332983.688                    23332990.516
 121293284.223 7  94514188.60644  23081322.445                    23081330.281
 108575609.221 8  84604396.84746  20661252.555                    20661259.781
 116373420.074 7  90680607.01545  22145129.102                    22145135.664
 11  8 20 17  8 30.0000000  0 10G06G08G07G10G03G19G28G11G13G23
 130134143.094 6 101403257.41543  24763708.102                    24763719.742
 118496292.045 7  92334809.03045  22549092.961                    22549100.695
 110492880.734 7  86098379.924 7  21026096.133                    21026103.211
 129994743.865 6 101294484.44643  24737140.445                    24737151.148
 119442084.385 6  93071781.37943  22729076.305                    22729085.547
 111321786.563 8  86744271.01846  21183832.281                    21183837.547
 122567838.759 6  95507451.33944  23323884.016                    23323891.664
 121219245.095 7  94456495.82844  23067233.078                    23067241.949
 108637182.060 8  84652375.66046  20672969.922                    20672976.965
 116474379.290 7  90759276.46345  22164341.430                    22164347.715
 11  8 20 17  9  0.0000000  0 10G06G08G07G10G03G19G28G11G13G23
 130234708.593 6 101481620.02543  24782844.875                    24782857.047
 118424311.587 7  92278720.38344  22535395.109                    22535403.012
 110448008.751 8  86063414.753 7  21017557.500                    21017564.520
 130047540.716 6 101335624.74543  24747186.422                    24747198.449
 119538760.006 7  93147112.95343  22747472.492                    22747482.051
 111362270.957 8  86775817.27146  21191536.109                    21191541.816
 122520224.688 7  95470349.52944  23314823.156                    23314831.551
 121145362.645 7  94398925.12243  23053173.508                    23053182.102
 108699270.094 8  84700755.92946  20684784.555                    20684792.066
 116575616.994 7  90838162.90745  22183605.500                    22183612.387
 11  8 20 17  9 30.0000000  0 10G06G08G07G10G03G19G28G11G13G23
 130335417.079 5 101560094.07743  24802008.430                    24802021.129
 118352330.932 7  92222631.58944  22521697.945                    22521705.719
 110403311.809 8  86028585.990 7  21009051.680                    21009059.098
 130100505.766 6 101376896.08943  24757265.719                    24757276.828
 119635723.848 7  93222669.10843  22765924.695                    22765933.285
 111403324.126 8  86807806.73846  21199348.289                    21199353.961
 122472813.306 7  95433405.62444  23305800.711                    23305809.277
 121071640.154 7  94341479.07044  23039145.586                    23039153.633
 108761871.440 8  84749536.16246  20696697.219                    20696704.434
 116677130.584 7  90917264.29845  22202923.609                    22202929.977
 11  8 20 17 10  0.0000000  0 11G06G01G08G07G10G03G19G28G11G13G23
 130436265.628 5 101638677.29842  24821199.859                    24821211.629
 129695193.80116 101061079.67415  24680133.828                    24680145.609
 118280351.180 7  92166543.49645  22508000.453                    22508008.621
 110358791.136 8  85993894.571 7  21000579.375                    21000586.926
 130153635.927 6 101418296.13743  24767376.453                    24767387.316
 119732972.421 7  93298447.14944  22784430.789                    22784439.043
 111444944.004 8  86840237.79446  21207268.180                    21207274.262
 122425603.661 7  95396618.92844  23296817.156                    23296825.242
 120998079.851 7  94284159.36944  23025147.195                    23025155.211
 108824983.280 8  84798714.20446  20708707.250                    20708714.363
 116778916.554 7  90996577.94544  22222292.406                    22222299.004
 11  8 20 17 10 30.0000000  0 11G06G01G08G07G10G03G19G28G11G13G23
 130537252.053 5 101717367.93943  24840418.594                    24840428.441
 129620623.951 5 101002973.310 6  24665943.930                    24665956.703
 118208373.839 7  92110457.26244  22494303.734                    22494311.332
 110314448.908 8  85959342.202 7  20992141.680                    20992148.895
 130206928.578 6 101459822.81943  24777517.547                    24777529.105
 119830503.335 7  93374445.16044  22802990.828                    22802998.613
 111487128.891 8  86873109.11946  21215296.430                    21215301.539
 122378595.266 7  95359989.04244  23287871.617                    23287879.738
 120924685.150 7  94226968.71844  23011179.961                    23011188.008
 108888604.220 8  84848288.92846  20720814.070                    20720821.176
 116880972.323 7  91076101.84544  22241713.039                    22241719.754
 11  8 20 17 11  0.0000000  0 11G06G01G08G07G10G03G19G28G11G13G23
 130638373.771 6 101796163.92643  24859661.141                    24859670.707
 129545941.415 5 100944779.146 6  24651731.180                    24651746.102
 118136400.089 7  92054373.83544  22480607.430                    22480615.621
 110270286.616 8  85924930.044 7  20983737.617                    20983745.297
 130260380.752 6 101501473.77143  24787689.570                    24787700.590
 119928313.445 7  93450660.72944  22821602.453                    22821611.453
 111529877.293 8  86906419.54946  21223430.953                    21223436.656
 122331787.455 7  95323515.47044  23278963.570                    23278972.332
 120851458.948 7  94169909.39344  22997245.531                    22997253.949
 108952731.983 8  84898258.59146  20733016.742                    20733024.363
 116983294.967 7  91155833.70044  22261184.742                    22261191.375
 11  8 20 17 11 30.0000000  0 10G01G08G07G10G03G19G28G11G13G23
 129471149.276 5 100886499.614 6  24637499.508                    24637512.684
 118064432.089 7  91998294.88544  22466912.516                    22466920.387
 110226307.013 7  85890660.241 7  20975368.711                    20975376.313
 130313990.431 6 101543247.47043  24797891.172                    24797902.086
 120026400.896 6  93527092.41944  22840267.992                    22840277.094
 111573188.526 8  86940168.54046  21231672.977                    21231678.422
 122285180.517 7  95287198.38444  23270095.281                    23270103.586
 120778405.368 6  94112984.53544  22983343.875                    22983352.566
 109017365.595 8  84948622.41546  20745316.414                    20745323.477
 117085882.198 7  91235771.71244  22280706.234                    22280712.832
 11  8 20 17 12  0.0000000  0 10G01G08G07G10G03G19G28G11G13G23
 129396249.301 6 100828136.042 6  24623246.594                    24623259.164
 117992470.127 7  91942220.66044  22453218.430                    22453226.539
 110182510.783 7  85856533.314 7  20967034.695                    20967041.926
 130367754.246 6 101585141.24643  24808121.313                    24808133.523
 120124762.002 6  93603737.32344  22858986.398                    22858995.367
 111617059.498 7  86974353.68246  21240021.273                    21240026.719
 122238773.009 6  95251036.70344  23261263.750                    23261272.297
 120705526.453 7  94056195.79444  22969475.656                    22969483.758
 109082502.061 8  84999378.07746  20757711.086                    20757718.637
 117188731.000 7  91315913.54344  22300277.867                    22300284.477
 11  8 20 17 12 30.0000000  0 10G01G08G07G10G03G19G28G11G13G23
 129321243.987 6 100769690.391 6  24608972.758                    24608987.234
 117920515.421 7  91886152.07344  22439526.055                    22439533.949
 110138899.559 7  85822550.548 7  20958735.344                    20958743.051
 130421668.963 6 101627152.64342  24818381.195                    24818392.926
 120223393.494 6  93680592.93144  22877755.039                    22877763.871
 111661488.525 7  87008973.68446  21248475.836                    21248481.340
 122192564.037 7  95215029.74443  23252470.820                    23252478.348
 120632825.173 6  93999545.48044  22955641.078                    22955650.008
 109148139.228 8  85050523.89446  20770201.813                    20770209.184
 117291838.059 7  91396256.61045  22319898.805                    22319904.977
 11  8 20 17 13  0.0000000  0 10G01G08G07G10G03G19G28G11G13G23
 129246136.068 6 100711164.821 6  24594680.172                    24594693.820
 117848569.280 7  91830090.17444  22425835.367                    22425843.531
 110095475.257 8  85788713.434 7  20950472.531                    20950479.434
 130475731.922 6 101669279.51642  24828669.164                    24828680.059
 120322292.546 6  93757657.05743  22896574.266                    22896583.941
 111706473.822 7  87044027.14946  21257036.203                    21257041.766
 122146552.888 7  95179176.93144  23243714.695                    23243723.047
 120560304.425 7  93943035.81344  22941840.734                    22941848.906
 109214274.786 8  85102058.06546  20782786.969                    20782794.246
 117395200.189 7  91476798.43445  22339567.773                    22339575.066
 11  8 20 17 13 30.0000000  0 10G01G08G07G10G03G19G28G11G13G23
 129170928.123 6 100652561.303 6  24580368.523                    24580382.813
 117776633.322 7  91774036.21145  22412145.898                    22412154.383
 110052240.128 8  85755023.730 7  20942244.938                    20942252.410
 130529940.653 6 101711519.93442  24838985.430                    24838995.773
 120421456.215 6  93834927.36044  22915445.586                    22915454.461
 111752014.190 7  87079513.14146  21265702.203                    21265707.809
 122100739.147 7  95143477.92144  23234997.305                    23235005.539
 120487967.520 7  93886669.41544  22928075.445                    22928083.391
 109280906.884 8  85153979.15346  20795466.617                    20795473.906
 117498814.779 7  91557536.98145  22359285.148                    22359291.805
 11  8 20 17 14  0.0000000  0 10G01G08G07G10G03G19G28G11G13G23
 129095622.682 6 100593881.810 6  24566038.203                    24566052.453
 117704708.379 7  91717990.81845  22398458.945                    22398467.477
 110009195.275 7  85721482.301 7  20934053.750                    20934061.160
 130584292.007 6 101753871.59242  24849328.000                    24849339.207
 120520881.723 6  93912401.68643  22934365.141                    22934375.004
 111798107.483 7  87115429.96946  21274473.320                    21274478.781
 122055121.865 6  95107932.03444  23226316.188                    23226324.703
 120415817.493 7  93830448.62643  22914345.609                    22914353.863
 109348033.419 8  85206285.51646  20808240.461                    20808247.426
 117602678.695 7  91638469.81744  22379050.047                    22379056.656
 11  8 20 17 14 30.0000000  0 11G24G01G08G07G10G03G19G28G11G13G23
 128120582.28816  99834089.77752  24380496.313                    24380505.953
 129020222.375 6 100535128.400 6  24551690.219                    24551704.113
 117632796.206 7  91661955.38645  22384774.836                    22384783.043
 109966342.821 8  85688090.789 7  20925899.352                    20925906.387
 130638783.453 6 101796332.33352  24859696.508                    24859708.887
 120620566.024 6  93990077.67143  22953334.820                    22953344.082
 111844751.846 7  87151776.21046  21283348.828                    21283355.355
 122009700.598 7  95072538.86344  23217673.313                    23217680.813
 120343857.345 7  93774375.79644  22900652.250                    22900659.801
 109415652.416 8  85258975.61946  20821107.797                    20821115.176
 117706789.327 7  91719594.89444  22398861.633                    22398868.246
 11  8 20 17 15  0.0000000  0 11G24G01G08G07G10G03G19G28G11G13G23
 128048885.624 6  99778222.31042  24366852.164                    24366864.012
 128944729.741 6 100476303.072 6  24537324.313                    24537338.688
 117560897.935 7  91605930.78245  22371093.078                    22371100.848
 109923684.394 8  85654850.473 7  20917781.586                    20917788.617
 130693411.700 6 101838899.60442  24870092.375                    24870104.020
 120720506.287 6  94067953.13643  22972353.227                    22972362.457
 111891945.215 7  87188550.24646  21292330.133                    21292335.988
 121964474.446 7  95037297.73244  23209066.750                    23209074.980
 120272089.803 7  93718453.03744  22886995.414                    22887003.555
 109483761.094 8  85312047.28746  20834068.844                    20834075.715
 117811143.448 7  91800909.70144  22418719.484                    22418725.895
 11  8 20 17 15 30.0000000  0 11G24G01G08G07G10G03G19G28G11G13G23
 127977114.272 6  99722296.63443  24353195.297                    24353206.641
 128869147.853 6 100417408.179 6  24522942.172                    24522955.746
 117489015.036 7  91549918.16345  22357414.844                    22357422.109
 109881222.274 8  85621763.112 7  20909701.570                    20909708.641
 130748174.414 6 101881571.77142  24880514.375                    24880525.992
 120820699.895 7  94146025.97844  22991419.391                    22991428.895
 111939685.923 8  87225750.78946  21301414.391                    21301420.633
 121919442.947 7  95002208.28544  23200497.570                    23200505.449
 120200518.297 7  93662683.06044  22873375.797                    22873384.563
 109552357.978 8  85365499.37046  20847122.594                    20847129.523
 117915738.613 7  91882412.32644  22438623.141                    22438629.445
 11  8 20 17 16  0.0000000  0 11G24G01G08G07G10G03G19G28G11G13G23
 127905270.562 6  99666314.59943  24339523.641                    24339535.609
 128793478.996 6 100358445.508 6  24508541.641                    24508556.078
 117417148.895 7  91493918.59745  22343738.656                    22343745.820
 109838958.074 8  85588829.977 7  20901658.875                    20901665.727
 130803068.948 6 101924346.61442  24890960.383                    24890972.102
 120921143.804 6  94224293.90644  23010533.250                    23010542.500
 111987972.263 8  87263376.48746  21310603.492                    21310609.293
 121874605.483 7  94967270.02044  23191965.352                    23191973.035
 120129145.881 7  93607068.20444  22859793.773                    22859802.520
 109621440.849 8  85419330.15746  20860268.211                    20860275.637
 118020571.979 7  91964100.58344  22458572.422                    22458579.320
 11  8 20 17 16 30.0000000  0 11G24G01G08G07G10G03G19G28G11G13G23
 127833356.998 6  99610278.10143  24325838.727                    24325851.023
 128717725.650 6 100299417.038 6  24494126.148                    24494140.250
 117345300.777 7  91437933.08845  22330066.078                    22330073.672
 109796892.932 8  85556051.959 7  20893654.227                    20893661.137
 130858092.294 6 101967221.84542  24901430.250                    24901442.434
 121021834.875 7  94302754.38144  23029694.359                    23029702.938
 112036801.807 7  87301425.47146  21319895.469                    21319901.293
 121829960.811 7  94932482.02644  23183469.523                    23183477.637
 120057975.222 7  93551610.59044  22846250.305                    22846258.672
 109691006.817 8  85473537.36346  20873506.242                    20873513.652
 118125640.043 7  92045971.70045  22478566.773                    22478574.043
 11  8 20 17 17  0.0000000  0 11G24G01G08G07G10G03G19G28G11G13G23
 127761376.462 6  99554189.42343  24312142.039                    24312153.402
 128641890.668 6 100240324.942 6  24479695.352                    24479709.434
 117273471.907 7  91381962.56945  22316397.453                    22316405.664
 109755029.234 8  85523430.911 7  20885687.273                    20885694.668
 130913241.705 5 102010195.32142  24911925.406                    24911937.375
 121122770.372 7  94381405.32744  23048902.023                    23048910.629
 112086173.179 7  87339896.65846  21329290.211                    21329296.520
 121785508.647 7  94897844.02844  23175010.422                    23175017.852
 119987009.674 7  93496312.77944  22832745.906                    22832754.402
 109761053.965 8  85528119.53746  20886836.039                    20886842.969
 118230940.105 7  92128023.59344  22498604.945                    22498611.277
 11  8 20 17 17 30.0000000  0 11G24G01G08G07G10G03G19G28G11G13G23
 127689331.872 6  99498050.83843  24298431.508                    24298443.105
 128565976.792 6 100181171.342 6  24465249.828                    24465263.707
 117201664.437 7  91326008.73345  22302732.891                    22302740.852
 109713368.757 8  85490968.210 7  20877759.727                    20877767.125
 130968514.192 6 102053264.65542  24922444.398                    24922455.074
 121223947.877 7  94460244.85443  23068155.398                    23068163.793
 112136084.404 7  87378788.49746  21338788.391                    21338794.090
 121741248.330 7  94863355.50844  23166588.266                    23166596.473
 119916252.363 7  93441177.24244  22819281.055                    22819290.484
 109831580.423 8  85583075.18446  20900256.438                    20900263.652
 118336469.228 7  92210253.98744  22518686.047                    22518692.977
 11  8 20 17 18  0.0000000  0 10G24G01G08G07G03G19G28G11G13G23
 127617226.060 6  99441864.53543  24284710.844                    24284722.316
 128489987.233 6 100121958.772 6  24450789.328                    24450803.410
 117129879.531 7  91270072.47745  22289072.883                    22289080.820
 109671913.751 7  85458665.622 7  20869871.125                    20869877.938
 121325364.559 6  94539270.73843  23087454.125                    23087462.949
 112186533.472 7  87418099.44546  21348388.039                    21348394.133
 121697179.192 7  94829015.96544  23158202.023                    23158209.906
 119845706.603 7  93386206.55844  22805857.031                    22805865.746
 109902583.956 8  85638402.57046  20913767.813                    20913775.688
 118442224.870 7  92292660.88444  22538810.922                    22538817.574
 11  8 20 17 18 30.0000000  0 10G24G01G08G07G03G19G28G11G13G23
 127545061.703 6  99385632.61943  24270977.500                    24270989.590
 128413923.974 6 100062688.781 6  24436314.109                    24436328.906
 117058118.582 7  91214154.89845  22275416.797                    22275425.180
 109630666.108 8  85426524.608 7  20862021.773                    20862028.957
 121427017.410 6  94618480.66243  23106797.477                    23106807.508
 112237518.268 7  87457827.83446  21358090.578                    21358096.063
 121653300.410 7  94794824.76544  23149852.633                    23149859.770
 119775374.923 7  93331402.66044  22792473.414                    22792481.793
 109974061.938 8  85694099.66946  20927369.914                    20927377.285
 118548203.946 7  92375241.89044  22558978.211                    22558984.391
 11  8 20 17 19  0.0000000  0 10G24G01G08G07G03G19G28G11G13G23
 127472841.033 6  99329356.83343  24257234.297                    24257246.945
 128337789.825 6 100003363.541 6  24421826.828                    24421841.020
 116986382.640 7  91158256.80145  22261765.492                    22261774.555
 109589626.720 7  85394545.875 7  20854212.641                    20854219.574
 121528903.106 7  94697872.00543  23126185.945                    23126196.055
 112289036.547 7  87497971.91446  21367893.984                    21367899.613
 121609611.130 7  94760781.20144  23141538.633                    23141546.195
 119705260.240 7  93276767.87744  22779130.922                    22779139.395
 110046011.852 8  85750164.50546  20941061.664                    20941068.711
 118654403.428 7  92457994.64244  22579187.664                    22579193.891
 11  8 20 17 19 30.0000000  0 10G24G01G08G07G03G19G28G11G13G23
 127400567.208 6  99273039.65343  24243481.914                    24243492.949
 128261587.538 6  99943985.210 6  24407326.328                    24407339.211
 116914673.354 7  91102379.47745  22248119.836                    22248128.324
 109548797.751 8  85362731.100 7  20846443.008                    20846449.770
 121631019.071 7  94777442.80644  23145617.258                    23145628.680
 112341086.809 8  87538530.53046  21377799.055                    21377804.859
 121566110.519 7  94726884.66144  23133260.789                    23133268.129
 119635365.918 7  93222304.77544  22765830.719                    22765838.922
 110118431.709 8  85806595.53246  20954842.875                    20954849.961
 118760820.283 7  92540916.77144  22599438.125                    22599444.785
 11  8 20 17 20  0.0000000  0 10G24G01G08G07G03G19G28G11G13G23
 127328243.453 6  99216683.52243  24229718.766                    24229730.465
 128185320.313 6  99884556.277 6  24392812.672                    24392825.648
 116842992.395 7  91046524.21945  22234479.250                    22234488.047
 109508181.880 8  85331082.372 7  20838713.953                    20838721.262
 121733362.491 7  94857190.82143  23165093.141                    23165104.121
 112393667.170 7  87579502.21546  21387804.961                    21387810.367
 121522798.292 7  94693134.91344  23125018.367                    23125026.363
 119565695.254 6  93168015.96444  22752572.750                    22752580.699
 110191319.705 8  85863391.34046  20968712.859                    20968719.953
 118867452.150 7  92624006.44144  22619728.969                    22619736.160
 11  8 20 17 20 30.0000000  0 10G24G01G08G07G03G19G28G11G13G23
 127255871.625 6  99160289.94943  24215947.539                    24215958.402
 128108990.100 6  99825078.252 6  24378287.656                    24378301.324
 116771340.694 7  90990691.75245  22220844.242                    22220852.926
 109467779.727 8  85299600.175 7  20831025.461                    20831032.641
 121835930.327 7  94937113.74244  23184611.664                    23184621.188
 112446774.574 7  87620884.57046  21397910.609                    21397916.875
 121479673.115 7  94659530.91644  23116811.688                    23116819.676
 119496250.383 7  93113903.11144  22739357.453                    22739365.594
 110264672.189 8  85920549.08446  20982671.016                    20982679.055
 118974295.053 7  92707260.56244  22640060.625                    22640067.637
 11  8 20 17 21  0.0000000  0 10G24G01G08G07G03G19G28G11G13G23
 127183454.538 6  99103861.10743  24202165.930                    24202177.820
 128032599.260 6  99765553.001 6  24363750.984                    24363764.293
 116699719.769 7  90934883.26445  22207215.789                    22207224.020
 109427593.289 8  85268286.046 7  20823378.750                    20823385.641
 121938719.847 7  95017209.40543  23204171.438                    23204181.160
 112500407.213 8  87662676.20846  21408116.797                    21408122.316
 121436734.129 7  94626072.00544  23108640.680                    23108648.660
 119427034.461 7  93059968.64444  22726185.430                    22726194.695
 110338487.098 8  85978067.15146  20996717.727                    20996725.180
 119081346.260 7  92790676.98844  22660432.125                    22660438.875
 11  8 20 17 21 30.0000000  0 10G24G01G08G07G03G19G28G11G13G23
 127110995.225 6  99047399.33043  24188377.375                    24188389.551
 127956151.108 6  99705983.077 6  24349203.180                    24349216.742
 116628131.553 7  90879100.27145  22193593.102                    22193601.211
 109387624.602 8  85237141.626 7  20815773.008                    20815779.582
 122041727.956 7  95097475.37643  23223774.063                    23223783.473
 112554563.143 7  87704875.60646  21418422.586                    21418428.449
 121393980.692 7  94592757.68244  23100505.016                    23100513.340
 119358050.798 7  93006215.17444  22713059.047                    22713067.465
 110412762.058 8  86035943.71045  21010851.992                    21010859.430
 119188603.017 7  92874253.58644  22680842.078                    22680849.219
 11  8 20 17 22  0.0000000  0 10G24G01G08G07G03G19G28G11G13G23
 127038496.775 6  98990907.08643  24174581.656                    24174593.281
 127879648.287 6  99646370.573 6  24334644.570                    24334658.816
 116556577.552 7  90823343.91645  22179976.758                    22179984.063
 109347875.814 8  85206168.555 7  20808209.055                    20808215.777
 122144951.760 6  95177909.45843  23243416.969                    23243425.543
 112609240.258 8  87747481.13746  21428826.742                    21428833.023
 121351412.215 7  94559587.48644  23092404.258                    23092412.434
 119289302.629 7  92952645.19744  22699976.586                    22699985.078
 110487495.171 8  86094177.26346  21025073.570                    21025080.547
 119296062.656 7  92957988.27844  22701290.969                    22701298.164
 11  8 20 17 22 30.0000000  0 10G24G01G08G07G03G19G28G11G13G23
 126965961.907 6  98934386.46543  24160779.367                    24160790.621
 127803094.040 6  99586717.981 6  24320077.328                    24320091.328
 116485059.374 7  90767615.48545  22166366.883                    22166374.965
 109308349.154 8  85175368.581 7  20800686.922                    20800694.289
 122248389.103 6  95258509.88043  23263099.914                    23263109.039
 112664437.016 8  87790491.58946  21439330.016                    21439336.770
 121309028.131 7  94526560.94744  23084338.789                    23084347.184
 119220793.189 7  92899261.23644  22686939.844                    22686947.809
 110562684.150 8  86152766.04946  21039381.375                    21039388.504
 119403722.306 7  93041878.81844  22721778.555                    22721785.328
 11  8 20 17 23  0.0000000  0 10G24G01G08G07G03G19G28G11G13G23
 126893393.222 6  98877839.47243  24146969.781                    24146981.031
 127726490.613 6  99527027.047 6  24305500.031                    24305513.633
 116413578.323 7  90711915.99045  22152764.391                    22152772.945
 109269045.766 8  85144742.568 7  20793207.875                    20793214.641
 122352036.551 6  95339274.06543  23282823.414                    23282832.621
 112720150.809 8  87833904.91946  21449932.453                    21449938.293
 121266827.577 7  94493677.41144  23076308.289                    23076316.383
 119152524.951 7  92846065.21144  22673948.594                    22673957.246
 110638326.245 8  86211707.90045  21053775.359                    21053782.574
 119511578.822 7  93125922.77344  22742302.922                    22742309.777
 11  8 20 17 23 30.0000000  0 10G24G01G08G07G03G19G28G11G13G23
 126820793.693 6  98821268.47843  24133153.898                    24133164.879
 127649841.272 6  99467300.350 6  24290914.094                    24290928.348
 116342136.003 7  90656246.67345  22139170.023                    22139177.969
 109229967.827 8  85114292.240 7  20785771.570                    20785778.586
 122455891.837 6  95420200.17943  23302586.789                    23302596.477
 112776379.490 8  87877719.44146  21460632.719                    21460638.430
 121224809.630 7  94460936.17544  23068313.148                    23068320.438
 119084501.409 7  92793059.87144  22661004.297                    22661012.648
 110714419.197 8  86271001.06745  21068255.805                    21068262.770
 119619629.344 7  93210117.87944  22762864.172                    22762871.039
 11  8 20 17 24  0.0000000  0 10G24G01G08G07G03G19G28G11G13G23
 126748165.728 6  98764675.31243  24119332.938                    24119345.418
 127573148.131 6  99407539.513 6  24276319.820                    24276333.918
 116270733.554 7  90600608.42145  22125582.336                    22125590.512
 109191116.953 8  85084018.835 7  20778378.555                    20778385.563
 122559951.764 6  95501285.72343  23322387.797                    23322398.383
 112833120.561 8  87921933.24046  21471430.594                    21471436.172
 121182973.632 6  94428336.73544  23060351.680                    23060359.965
 119016725.054 7  92740247.15144  22648106.375                    22648114.992
 110790960.048 7  86330643.24446  21082820.766                    21082828.523
 119727870.612 7  93294461.61344  22783461.813                    22783469.004
 11  8 20 17 24 30.0000000  0 10G24G01G08G07G03G19G28G11G13G23
 126675512.484 6  98708062.40343  24105507.555                    24105519.391
 127496414.407 6  99347747.040 6  24261717.313                    24261731.773
 116199373.520 7  90545003.21745  22112002.570                    22112010.926
 109152495.632 8  85053924.319 7  20771029.070                    20771035.977
 122664213.602 6  95582528.62343  23342229.023                    23342239.027
 112890372.349 8  87966544.99346  21482325.078                    21482330.871
 121141318.620 7  94395878.29844  23052425.148                    23052433.273
 118949199.362 7  92687629.75144  22635257.273                    22635265.688
 110867946.817 8  86390632.88645  21097471.047                    21097478.359
 119836300.300 7  93378952.18744  22804095.500                    22804102.566
 11  8 20 17 25  0.0000000  0 10G24G01G08G07G03G19G28G11G13G23
 126602836.561 6  98651431.87043  24091677.328                    24091689.398
 127419642.599 6  99287924.925 6  24247108.586                    24247122.605
 116128056.903 7  90489431.85445  22098431.469                    22098439.781
 109114105.068 8  85024009.593 7  20763723.602                    20763730.582
 122768674.311 6  95663926.45743  23362106.938                    23362117.363
 112948132.404 8  88011552.80146  21493316.367                    21493322.352
 121099843.740 7  94363560.24444  23044533.031                    23044541.313
 118881926.966 7  92635209.72144  22622456.188                    22622464.004
 110945376.676 7  86450967.80346  21112205.531                    21112212.512
 119944914.922 7  93463586.84744  22824764.117                    22824771.563
 11  8 20 17 25 30.0000000  0 10G24G01G08G07G03G19G28G11G13G23
 126530140.570 5  98594785.71843  24077844.430                    24077856.789
 127342835.204 6  99228075.045 6  24232492.602                    24232506.676
 116056785.213 7  90433895.49345  22084869.484                    22084877.266
 109075946.969 8  84994276.022 7  20756462.484                    20756469.125
 122873330.882 7  95745476.96144  23382023.094                    23382032.664
 113006397.869 7  88056954.44146  21504403.461                    21504409.531
 121058547.694 7  94331381.52944  23036674.273                    23036682.102
 118814910.833 7  92582989.37444  22609703.008                    22609711.086
 111023246.452 8  86511645.49746  21127023.531                    21127030.652
 120053711.346 7  93548363.18244  22845467.789                    22845474.535
 11  8 20 17 26  0.0000000  0 10G24G01G08G07G03G19G28G11G13G23
 126457428.049 6  98538126.63042  24064007.750                    24064019.395
 127265995.543 6  99168200.051 6  24217870.250                    24217885.020
 115985560.237 7  90378395.52745  22071315.219                    22071323.844
 109038024.125 7  84964725.765 7  20749246.055                    20749252.902
 122978181.039 6  95827178.27643  23401975.070                    23401985.695
 113065167.338 7  88102748.81545  21515587.016                    21515592.980
 121017430.626 7  94299342.27244  23028849.688                    23028857.367
 118748154.326 7  92530971.36044  22596999.461                    22597008.523
 111101554.906 8  86572665.04046  21141924.914                    21141932.566
 120162686.821 7  93633279.02344  22866204.883                    22866211.848
 11  8 20 17 26 30.0000000  0 10G24G01G08G07G03G19G28G11G13G23
 126384701.650 6  98481456.77043  24050168.461                    24050179.664
 127189126.637 6  99108302.242 6  24203243.023                    24203257.000
 115914383.707 7  90322933.32745  22057770.742                    22057779.441
 109000337.765 7  84935359.779 7  20742074.516                    20742081.559
 123083221.869 6  95909028.16543  23421964.766                    23421973.875
 113124438.510 7  88148934.12546  21526865.992                    21526871.848
 120976491.327 7  94267441.51944  23021059.258                    23021066.816
 118681660.165 7  92479157.75144  22584346.195                    22584354.973
 111180299.327 8  86634024.28945  21156909.445                    21156917.117
 120271838.698 7  93718332.32144  22886975.773                    22886983.109
 11  8 20 17 27  0.0000000  0 10G24G01G08G07G03G19G28G11G13G23
 126311963.886 6  98424778.02942  24036326.195                    24036337.992
 127112230.846 6  99048383.482 6  24188610.391                    24188624.141
 115843256.799 7  90267509.78745  22044236.266                    22044244.336
 108962889.627 8  84906179.418 7  20734948.164                    20734955.137
 123188450.288 6  95991024.25643  23441988.461                    23441998.637
 113184208.584 8  88195508.19346  21538239.500                    21538245.520
 120935728.863 7  94235678.60144  23013302.266                    23013310.527
 118615431.100 7  92427550.71944  22571742.672                    22571751.266
 111259476.682 8  86695720.87646  21171976.383                    21171984.266
 120381163.845 7  93803520.64144  22907780.438                    22907786.949
 11  8 20 17 27 30.0000000  0 10G24G01G08G07G03G19G28G11G13G23
 126239217.908 6  98368092.88443  24022483.617                    24022495.469
 127035310.988 6  98988445.977 6  24173972.273                    24173986.793
 115772181.312 7  90212126.32245  22030710.984                    22030718.816
 108925682.230 8  84877186.659 7  20727868.023                    20727874.816
 123293863.908 6  96073164.64343  23462048.750                    23462058.016
 113244475.578 7  88242469.45945  21549708.344                    21549714.180
 120895142.765 7  94204053.09944  23005579.352                    23005586.816
 118549470.855 7  92376153.16344  22559191.188                    22559199.164
 111339084.601 8  86757752.97345  21187125.586                    21187132.660
 120490659.369 7  93888841.72844  22928616.836                    22928622.957
 11  8 20 17 28  0.0000000  0 10G24G01G08G07G03G19G28G11G13G23
 126166466.754 6  98311403.69843  24008639.227                    24008651.250
 126958370.321 6  98928492.243 6  24159331.461                    24159344.996
 115701158.449 7  90156783.87345  22017195.828                    22017203.785
 108888717.213 7  84848382.752 7  20720833.430                    20720840.516
 123399459.654 6  96155446.96943  23482141.414                    23482151.484
 113305237.216 8  88289816.17246  21561271.102                    21561276.926
 120854731.992 7  94172564.20844  22997889.266                    22997896.902
 118483782.031 7  92324967.09544  22546691.313                    22546699.465
 111419120.087 7  86820118.24146  21202356.055                    21202363.797
 120600322.218 7  93974293.20144  22949485.102                    22949491.605
 11  8 20 17 28 30.0000000  0 10G24G01G08G07G03G19G28G11G13G23
 126093713.300 6  98254712.71643  23994794.641                    23994806.891
 126881411.354 6  98868524.256 6  24144686.336                    24144700.172
 115630190.684 7  90101484.35545  22003690.961                    22003698.984
 108851996.644 8  84819769.325 7  20713846.156                    20713852.859
 123505234.897 6  96237869.17043  23502270.828                    23502281.215
 113366491.322 7  88337546.61746  21572927.625                    21572933.176
 120814495.814 7  94141211.38244  22990232.844                    22990240.648
 118418367.878 7  92273995.07944  22534243.328                    22534251.641
 111499581.351 7  86882815.27345  21217667.453                    21217675.125
 120710149.712 7  94059872.95744  22970384.336                    22970391.480
 11  8 20 17 29  0.0000000  0 10G24G01G08G07G03G19G28G11G13G23
 126020959.376 6  98198021.38643  23980950.516                    23980962.285
 126804436.199 6  98808543.655 6  24130039.625                    24130052.547
 115559279.033 7  90046228.54745  21990196.563                    21990204.547
 108815521.285 7  84791346.976 7  20706905.164                    20706911.863
 123611186.151 6  96320428.50043  23522432.508                    23522443.613
 113428234.624 8  88385658.25846  21584676.727                    21584682.590
 120774432.568 7  94109993.29744  22982609.555                    22982616.676
 118353230.539 7  92223238.78044  22521848.148                    22521856.824
 111580464.754 7  86945841.24945  21233058.742                    21233066.281
 120820138.068 7  94145578.06344  22991314.305                    22991321.445
 11  8 20 17 29 30.0000000  0 10G24G01G08G07G03G19G28G11G13G23
 125948207.743 6  98141331.81343  23967106.273                    23967118.066
 126727447.553 6  98748552.532 6  24115388.914                    24115402.039
 115488424.803 7  89991017.50245  21976713.766                    21976721.246
 108779293.025 8  84763117.171 7  20700011.094                    20700018.547
 123717310.378 6  96403122.59043  23542627.719                    23542638.441
 113490464.432 8  88434148.99445  21596518.789                    21596524.613
 120734541.163 7  94078909.11544  22975017.789                    22975025.031
 118288372.582 7  92172700.16344  22509506.297                    22509514.336
 111661767.132 8  87009193.70745  21248530.297                    21248537.813
 120930283.925 7  94231405.88244  23012274.336                    23012281.730
 11  8 20 17 30  0.0000000  0 10G24G01G08G07G03G19G28G11G13G23
 125875462.540 7  98084647.27343  23953263.336                    23953274.293
 126650449.475 6  98688554.055 6  24100735.977                    24100748.934
 115417630.321 7  89935853.00545  21963242.016                    21963249.844
 108743314.949 8  84735082.308 7  20693164.727                    20693171.578
 123823605.891 6  96485950.15443  23562855.484                    23562865.383
 113553179.780 7  88483018.07046  21608452.906                    21608458.883
 120694821.752 7  94047958.96844  22967459.141                    22967466.738
 118223798.234 7  92122382.53644  22497217.375                    22497225.574
 111743487.219 7  87072871.64945  21264081.336                    21264088.688
 121040585.958 7  94317355.39944  23033264.508                    23033271.805
 11  8 20 17 30 30.0000000  0 10G24G01G08G07G03G19G28G11G13G23
 125802726.716 7  98027969.98843  23939421.961                    23939433.656
 126573444.893 6  98628550.533 6  24086081.617                    24086095.602
 115346897.851 7  89880736.82645  21949781.758                    21949789.684
 108707588.824 8  84707243.775 7  20686366.078                    20686372.934
 123930069.774 6  96568908.90443  23583114.516                    23583124.516
 113616378.053 7  88532263.45146  21620479.383                    21620485.371
 120655273.744 7  94017142.36544  22959933.477                    22959941.336
 118159510.265 7  92072288.07444  22484984.375                    22484992.109
 111825622.364 7  87136873.01245  21279710.836                    21279718.516
 121151040.474 7  94403423.75044  23054283.539                    23054289.934
 11  8 20 17 31  0.0000000  0 10G24G01G08G07G03G19G28G11G13G23
 125730003.159 6  97971302.35043  23925582.734                    23925594.805
 126496436.425 6  98568543.966 6  24071427.969                    24071441.484
 115276228.862 7  89825670.12045  21936333.766                    21936341.984
 108672116.688 8  84679603.165 7  20679615.992                    20679622.984
 124036699.766 6  96651997.11643  23603406.477                    23603415.543
 113680056.917 7  88581883.32645  21632596.938                    21632603.086
 120615896.145 7  93986458.54044  22952440.797                    22952447.707
 118095511.741 7  92022419.15644  22472805.438                    22472813.703
 111908170.092 7  87201195.87145  21295419.047                    21295426.965
 121261644.815 7  94489608.83644  23075330.734                    23075337.355
 11  8 20 17 31 30.0000000  0 10G24G01G08G07G03G19G28G11G13G23
 125657294.469 6  97914646.27243  23911746.453                    23911758.750
 126419427.152 6  98508536.781 6  24056774.375                    24056786.930
 115205624.874 7  89770654.06145  21922898.313                    21922906.211
 108636900.387 8  84652161.889 7  20672914.313                    20672921.383
 124143492.768 6  96735212.32943  23623728.047                    23623737.680
 113744213.882 7  88631875.74045  21644805.336                    21644811.559
 120576688.029 7  93955906.77744  22944979.211                    22944986.887
 118031805.520 7  91972777.98444  22460682.859                    22460690.473
 111991127.127 7  87265837.66945  21311205.672                    21311213.293
 121372396.050 7  94575908.38144  23096405.641                    23096413.258
 11  8 20 17 32  0.0000000  0 10G24G01G08G07G03G19G28G11G13G23
 125584604.214 7  97858004.56544  23897915.039                    23897925.938
 126342419.752 6  98448531.033 6  24042119.648                    24042132.676
 115135087.755 7  89715690.08845  21909475.859                    21909483.234
 108601942.077 8  84624921.652 7  20666262.102                    20666269.398
 124250446.125 6  96818552.53143  23644080.492                    23644090.379
 113808846.786 8  88682239.00745  21657104.953                    21657110.531
 120537648.725 7  93925486.58244  22937549.773                    22937557.863
 117968394.808 7  91923367.09044  22448615.930                    22448624.023
 112074491.529 7  87330796.89745  21327069.133                    21327077.156
 121483291.422 7  94662320.23844  23117509.242                    23117516.176
 11  8 20 17 32 30.0000000  0 10G24G01G08G07G03G19G28G11G13G23
 125511934.862 6  97801379.10443  23884085.820                    23884097.203
 126265416.923 6  98388528.855 6  24027466.367                    24027479.801
 115064618.956 7  89660779.35045  21896066.617                    21896073.383
 108567243.065 8  84597883.478 7  20659659.477                    20659666.105
 124357557.023 6  96902015.47743  23664462.047                    23664472.477
 113873952.569 8  88732970.76746  21669494.422                    21669500.027
 120498776.986 7  93895196.93844  22930153.211                    22930160.641
 117905282.256 7  91874188.52344  22436606.156                    22436614.348
 112158260.008 7  87396070.99645  21343010.102                    21343017.863
 121594327.829 7  94748841.97444  23138637.906                    23138645.426
 11  8 20 17 33  0.0000000  0 10G24G01G08G07G03G19G28G11G13G23
 125439289.389 6  97744772.30143  23870261.406                    23870273.895
 126188422.084 6  98328532.916 6  24012814.648                    24012828.516
 114994220.765 7  89605923.62745  21882669.969                    21882677.176
 108532805.614 8  84571049.101 7  20653105.992                    20653112.668
 124464822.667 6  96985598.97843  23684874.664                    23684885.059
 113939529.668 7  88784069.77746  21681973.070                    21681978.848
 120460072.225 7  93865037.39744  22922787.555                    22922795.180
 117842471.116 7  91825244.80244  22424653.242                    22424661.605
 112242430.119 7  87461658.03745  21359026.836                    21359034.633
 121705502.413 7  94835471.38444  23159793.977                    23159801.934
 11  8 20 17 33 30.0000000  0 10G24G01G08G07G03G19G28G11G13G23
 125366670.939 6  97688186.51543  23856442.156                    23856454.953
 126111437.947 6  98268545.332 6  23998165.133                    23998178.574
 114923894.996 7  89551124.34745  21869287.461                    21869294.969
 108498632.062 8  84544420.369 7  20646603.133                    20646609.883
 124572240.462 6  97069301.05343  23705315.461                    23705326.422
 114005575.382 8  88835533.94345  21694541.250                    21694546.820
 120421533.844 7  93835007.50644  22915453.719                    22915461.426
 117779964.314 7  91776538.23144  22412759.086                    22412766.676
 112326999.364 7  87527556.09645  21375119.789                    21375127.488
 121816812.232 7  94922206.16244  23180975.602                    23180983.691
 11  8 20 17 34  0.0000000  0 10G24G01G08G07G03G19G28G11G13G23
 125294082.173 6  97631623.86843  23842629.906                    23842641.258
 126034467.320 6  98208568.252 6  23983518.016                    23983531.555
 114853643.332 8  89496382.80945  21855918.453                    21855926.480
 108464724.072 8  84517998.562 7  20640150.391                    20640157.598
 124679807.607 7  97153119.50543  23725785.477                    23725796.039
 114072087.015 8  88887361.16146  21707198.031                    21707203.621
 120383160.631 7  93805106.31844  22908152.008                    22908159.387
 117717764.560 7  91728070.90444  22400921.992                    22400930.164
 112411964.747 8  87593762.83845  21391288.336                    21391295.875
 121928254.228 7  95009043.96044  23202182.977                    23202190.285
 11  8 20 17 34 30.0000000  0 10G24G01G08G07G03G19G28G11G13G23
 125221525.522 6  97575086.31543  23828822.766                    23828834.406
 125957512.983 6  98148603.886 6  23968874.422                    23968887.320
 114783467.298 7  89441700.20145  21842564.805                    21842572.645
 108431082.813 7  84491784.595 7  20633748.875                    20633755.805
 124787521.064 6  97237051.98843  23746282.828                    23746293.219
 114139061.311 8  88939548.89645  21719942.750                    21719948.344
 120344951.393 7  93775332.91644  22900880.844                    22900888.684
 117655874.422 7  91679844.85744  22389145.383                    22389153.246
 112497323.180 7  87660275.85145  21407531.383                    21407539.152
 122039825.403 7  95095982.39844  23223414.469                    23223421.656
 11  8 20 17 35  0.0000000  0 10G24G01G08G07G03G19G28G11G13G23
 125149004.738 6  97518576.65443  23815021.992                    23815034.746
 125880577.840 6  98088654.475 6  23954234.055                    23954247.129
 114713368.895 7  89387078.10945  21829224.844                    21829233.391
 108397711.010 8  84465780.603 7  20627398.094                    20627405.152
 124895378.720 6  97321096.81643  23766807.414                    23766818.535
 114206496.618 7  88992095.86945  21732775.688                    21732781.301
 120306905.397 7  93745686.70844  22893641.070                    22893648.738
 117594297.250 7  91631862.66944  22377427.063                    22377435.480
 112583072.235 7  87727093.25145  21423849.500                    21423856.605
 122151522.850 7  95183019.24344  23244669.813                    23244677.070
 11  8 20 17 35 30.0000000  0 10G24G01G08G07G03G19G28G11G13G23
 125076522.603 6  97462097.15043  23801228.836                    23801241.273
 125803665.022 6  98028722.450 6  23939598.195                    23939611.223
 114643349.777 7  89332517.78645  21815901.219                    21815909.078
 108364610.373 8  84439987.898 7  20621099.445                    20621106.445
 125003377.424 6  97405251.56143  23787358.602                    23787369.617
 114274390.576 7  89045000.22145  21745695.055                    21745701.133
 120269021.949 7  93716167.16344  22886431.914                    22886439.609
 117533036.045 7  91584126.69444  22365769.516                    22365777.793
 112669209.229 7  87794212.94545  21440240.281                    21440248.133
 122263343.748 7  95270152.26844  23265948.555                    23265955.805
 11  8 20 17 36  0.0000000  0 10G24G01G08G07G03G19G28G11G13G23
 125004081.668 6  97405649.73443  23787443.828                    23787456.406
 125726776.697 6  97968809.496 6  23924966.711                    23924980.102
 114573411.316 7  89278020.30845  21802591.992                    21802600.398
 108331782.193 8  84414407.488 7  20614852.547                    20614859.430
 125111514.460 6  97489514.07043  23807937.742                    23807947.563
 114342739.969 7  89098259.46345  21758701.727                    21758707.508
 120231299.712 7  93686773.25944  22879253.180                    22879261.305
 117472093.234 7  91536638.81444  22354172.492                    22354180.609
 112755730.915 7  87861632.37745  21456704.906                    21456712.922
 122375284.742 7  95357378.87444  23287250.555                    23287257.461
 11  8 20 17 36 30.0000000  0 10G24G01G08G07G03G19G28G11G13G23
 124931685.157 6  97349236.88743  23773667.813                    23773679.285
 125649916.397 6  97908918.413 7  23910340.367                    23910353.930
 114503555.695 7  89223587.38045  21789299.148                    21789306.957
 108299228.745 8  84389041.170 7  20608657.734                    20608664.762
 125219787.361 6  97573882.44642  23828541.250                    23828550.953
 114411542.484 7  89151871.78745  21771793.984                    21771799.473
 120193737.994 7  93657504.40444  22872105.820                    22872113.695
 117411471.762 7  91489401.31344  22342636.500                    22342644.617
 112842634.920 7  87929349.73145  21473242.117                    21473250.223
 122487343.083 7  95444696.93044  23308574.438                    23308581.648
 11  8 20 17 37  0.0000000  0 10G24G01G08G07G03G19G28G11G13G23
 124859336.319 6  97292861.23243  23759900.828                    23759911.215
 125573087.212 6  97849051.579 6  23895719.844                    23895733.813
 114433785.152 7  89169220.75945  21776022.117                    21776030.539
 108266952.308 7  84363890.723 8  20602515.797                    20602522.398
 125328193.311 6  97658354.51742  23849170.242                    23849179.469
 114480795.749 8  89205835.34545  21784972.578                    21784978.434
 120156336.212 7  93628360.21044  22864988.367                    22864996.324
 117351174.715 7  91442416.62845  22331162.977                    22331171.172
 112929918.499 7  87997362.85845  21489851.992                    21489859.563
 122599516.219 7  95532104.43644  23329920.227                    23329927.844
 11  8 20 17 37 30.0000000  0 10G24G01G08G07G03G19G28G11G13G23
 124787038.227 7  97236525.09943  23746142.156                    23746153.746
 125496292.027 6  97789211.236 6  23881106.367                    23881119.598
 114364101.370 7  89114921.74945  21762761.688                    21762770.043
 108234954.873 8  84338957.659 7  20596426.930                    20596433.957
 125436729.975 6  97742928.47343  23869823.016                    23869833.719
 114550497.261 8  89260148.18245  21798236.578                    21798242.000
 120119093.537 7  93599339.96144  22857901.148                    22857908.789
 117291205.142 7  91395687.09144  22319750.883                    22319758.563
 113017578.934 7  88065669.65245  21506533.555                    21506540.758
 122711800.847 7  95619598.77544  23351287.758                    23351295.168
 11  8 20 17 38  0.0000000  0 10G24G01G08G07G03G19G28G11G13G23
 124714793.477 6  97180230.53343  23732394.672                    23732405.668
 125419533.580 6  97729399.509 6  23866499.898                    23866513.254
 114294505.851 7  89060691.49645  21749518.125                    21749526.176
 108203237.821 8  84314243.084 8  20590391.344                    20590398.113
 125545394.494 6  97827602.03543  23890501.133                    23890512.012
 114620644.404 8  89314808.24645  21811585.156                    21811590.652
 120082008.665 7  93570442.68044  22850844.422                    22850851.508
 117231565.667 7  91349214.79644  22308401.477                    22308409.617
 113105612.959 7  88134267.54145  21523285.695                    21523293.336
 122824194.075 7  95707177.77643  23372675.227                    23372683.313
 11  8 20 17 38 30.0000000  0 10G24G01G08G07G03G19G28G11G13G23
 124642605.194 7  97123979.98343  23718657.703                    23718668.367
 125342814.964 6  97669618.820 7  23851900.422                    23851914.758
 114225000.967 7  89006531.87345  21736291.773                    21736299.441
 108171803.266 8  84289748.622 7  20584409.445                    20584416.168
 125654184.176 7  97912373.15543  23911204.563                    23911214.035
 114691234.371 8  89369813.36446  21825018.328                    21825024.164
 120045080.835 7  93541667.76044  22843817.234                    22843824.164
 117172259.466 7  91303002.20544  22297116.055                    22297124.141
 113194018.141 7  88203154.63945  21540108.773                    21540116.465
 122936693.188 6  95794839.25843  23394082.969                    23394091.242
 11  8 20 17 39  0.0000000  0 10G24G01G08G07G03G19G28G11G13G23
 124570476.215 7  97067775.61743  23704932.117                    23704943.117
 125266138.999 6  97609871.371 6  23837309.422                    23837323.063
 114155588.130 8  88952443.95645  21723083.117                    21723090.676
 108140652.871 8  84265475.594 8  20578481.734                    20578488.520
 125763096.278 6  97997239.62643  23931929.266                    23931939.496
 114762264.493 7  89425161.46245  21838534.891                    21838540.555
 120008308.757 7  93513014.22144  22836819.719                    22836827.520
 117113288.889 7  91257051.11044  22285894.516                    22285902.297
 113282790.953 7  88272328.20045  21557001.563                    21557009.266
 123049294.853 6  95882580.67243  23415510.906                    23415518.340
 11  8 20 17 39 30.0000000  0 10G24G01G08G07G03G19G28G11G13G23
 124498409.900 7  97011620.07543  23691218.070                    23691229.391
 125189508.915 6  97550159.678 6  23822727.477                    23822740.590
 114086269.840 7  88898429.72545  21709892.328                    21709899.832
 108109789.411 8  84241426.150 8  20572608.773                    20572615.465
 125872128.464 6  98082199.68843  23952677.047                    23952687.734
 114833732.637 7  89480850.89245  21852134.258                    21852140.781
 119971692.249 7  93484481.90144  22829852.016                    22829859.426
 117054657.265 7  91211364.14444  22274737.320                    22274745.359
 113371929.721 7  88341786.92345  21573964.070                    21573971.441
 123161996.802 7  95970400.22843  23436957.781                    23436965.348
 11  8 20 17 40  0.0000000  0 10G24G01G08G07G03G19G28G11G13G23
 124426409.031 7  96955515.54543  23677516.742                    23677528.227
 125112927.519 6  97490485.917 6  23808154.016                    23808167.789
 114017047.636 7  88844490.38345  21696719.734                    21696727.086
 108079214.137 8  84217601.255 8  20566790.555                    20566797.320
 125981277.739 6  98167250.98043  23973448.656                    23973458.676
 114905635.801 7  89536879.28845  21865817.445                    21865823.375
 119935230.003 7  93456069.76544  22822913.977                    22822920.910
 116996367.269 7  91165943.39745  22263645.047                    22263653.000
 113461430.946 7  88411528.09145  21590995.992                    21591003.223
 123274795.704 7  96058295.32644  23458422.305                    23458430.609
 11  8 20 17 40 30.0000000  0 10G24G01G08G07G03G19G28G11G13G23
 124354476.417 7  96899464.23243  23663828.086                    23663839.672
 125036397.631 6  97430852.279 6  23793591.695                    23793604.383
 113947923.519 7  88790627.46345  21683565.680                    21683573.746
 108048929.078 8  84194002.508 8  20561027.742                    20561034.660
 126090541.908 6  98252391.82243  23994240.234                    23994251.156
 114977971.720 7  89593244.90045  21879582.852                    21879588.203
 119898921.071 7  93427777.11044  22816004.133                    22816011.508
 116938421.606 7  91120790.95545  22252618.109                    22252626.484
 113551291.811 7  88481549.50045  21608096.180                    21608103.066
 123387688.466 7  96146263.56543  23479905.297                    23479913.457
 11  8 20 17 41  0.0000000  0 10G24G01G08G07G03G19G28G11G13G23
 124282615.342 6  96843468.62143  23650153.617                    23650164.805
 124959922.525 7  97371261.326 6  23779038.352                    23779052.242
 113878899.520 8  88736842.55345  21670430.805                    21670438.770
 108018936.057 8  84170631.322 7  20555319.883                    20555327.020
 126199918.085 6  98337619.90243  24015055.117                    24015064.992
 115050737.527 7  89649945.50245  21893429.445                    21893435.012
 119862764.434 7  93399603.12044  22809123.477                    22809131.309
 116880823.351 7  91075909.21845  22241657.523                    22241665.828
 113641509.529 7  88551848.96945  21625263.438                    21625271.496
 123500672.529 7  96234302.95644  23501405.867                    23501413.926
 11  8 20 17 41 30.0000000  0 10G24G01G08G07G03G19G28G11G13G23
 124210828.566 7  96787530.90343  23636493.266                    23636504.500
 124883504.849 6  97311715.124 6  23764496.438                    23764510.387
 113809977.341 7  88683136.98945  21657315.305                    21657323.180
 107989236.753 8  84147489.005 7  20549668.094                    20549675.320
 126309403.500 6  98422933.11643  24035888.078                    24035899.000
 115123930.413 7  89706978.89945  21907357.734                    21907363.535
 119826759.254 7  93371547.15444  22802272.133                    22802279.910
 116823574.793 7  91031299.97545  22230763.359                    22230771.512
 113732080.757 7  88622423.89345  21642498.789                    21642506.840
 123613744.758 7  96322411.02744  23522921.922                    23522930.668
 11  8 20 17 42  0.0000000  0 10G24G01G08G07G03G19G28G11G13G23
 124139119.641 7  96731653.86243  23622847.961                    23622858.840
 124807147.806 6  97252216.168 6  23749966.305                    23749979.613
 113741159.000 8  88629512.33245  21644219.625                    21644227.789
 107959833.726 8  84124577.553 8  20544073.273                    20544080.387
 126418995.781 6  98508329.59343  24056742.742                    24056754.090
 115197548.197 7  89764343.37945  21921366.008                    21921372.246
 119790904.906 7  93343608.73944  22795449.477                    22795457.008
 116766679.332 7  90986965.89845  22219936.977                    22219944.918
 113823003.058 7  88693272.38545  21659800.547                    21659808.363
 123726902.472 7  96410585.72143  23544456.273                    23544463.895
 11  8 20 17 42 30.0000000  0 10G24G01G08G07G03G19G28G11G13G23
 124067491.317 6  96675839.64043  23609216.531                    23609228.539
 124730854.517 6  97192766.904 6  23735448.211                    23735461.480
 113672446.643 7  88575970.26245  21631144.148                    21631151.891
 107930728.821 8  84101898.400 7  20538534.531                    20538541.371
 126528692.367 6  98593807.35143  24077618.094                    24077627.887
 115271588.134 8  89822036.77345  21935455.992                    21935461.305
 119755200.277 7  93315786.97744  22788655.023                    22788662.789
 116710139.923 7  90942909.24145  22209177.727                    22209185.414
 113914273.629 7  88764392.26145  21677168.742                    21677177.184
 123840142.890 7  96498824.83444  23566005.273                    23566013.246
 11  8 20 17 43  0.0000000  0 10G24G01G08G07G03G19G28G11G13G23
 123995946.724 6  96620090.68543  23595601.773                    23595613.270
 124654628.241 6  97133369.838 7  23720942.703                    23720956.430
 113603842.528 8  88522512.53845  21618089.227                    21618096.711
 107901924.221 8  84079453.247 8  20533053.250                    20533060.188
 126638490.953 6  98679364.64043  24098511.820                    24098522.008
 115346047.491 8  89880057.01945  21949625.188                    21949631.258
 119719644.699 7  93288081.36544  22781888.813                    22781896.426
 116653959.325 7  90899132.19145  22198486.688                    22198495.008
 114005889.607 7  88835781.27145  21694603.156                    21694611.242
 123953463.155 7  96587126.17243  23587569.508                    23587577.371
 11  8 20 17 43 30.0000000  0 10G24G01G08G07G03G19G28G11G13G23
 123924488.751 6  96564409.18843  23582004.117                    23582015.586
 124578471.584 6  97074027.024 7  23706450.648                    23706464.047
 113535347.875 7  88469140.09945  21605054.898                    21605062.609
 107873421.335 8  84057243.209 8  20527629.625                    20527636.035
 126748388.616 6  98764999.00442  24119424.141                    24119435.207
 115420923.447 7  89938401.88045  21963873.742                    21963879.418
 119684237.037 7  93260491.00245  22775151.227                    22775158.590
 116598139.844 7  90855636.54245  22187864.258                    22187872.609
 114097848.146 7  88907437.21945  21712102.297                    21712110.063
 124066860.183 7  96675487.34443  23609148.266                    23609156.047
 11  8 20 17 44  0.0000000  0 10G24G01G08G07G03G19G28G11G13G23
 123853120.102 6  96508797.32543  23568422.375                    23568434.250
 124502387.012 6  97014740.385 6  23691972.188                    23691985.434
 113466964.898 7  88415854.67845  21592042.539                    21592049.621
 107845221.561 8  84035269.359 7  20522263.023                    20522270.000
 126858382.775 6  98850708.64342  24140354.945                    24140366.645
 115496213.369 8  89997069.32345  21978201.133                    21978206.770
 119648976.191 7  93233015.03744  22768441.078                    22768448.137
 116542683.967 7  90812424.19345  22177311.906                    22177320.074
 114190145.751 7  88979357.38445  21729666.000                    21729673.727
 124180330.740 7  96763905.80043  23630741.000                    23630749.137
 11  8 20 17 44 30.0000000  0 10G24G01G08G07G03G19G28G11G13G23
 123781844.584 6  96453257.99943  23554859.813                    23554870.801
 124426378.381 7  96955512.927 6  23677508.203                    23677521.148
 113398695.934 7  88362658.09345  21579050.531                    21579058.527
 107817327.734 8  84013533.914 7  20516955.453                    20516962.012
 126968471.307 6  98936491.79742  24161305.367                    24161315.410
 115571914.761 8  90056057.37845  21992606.500                    21992612.434
 119613861.470 7  93205652.91244  22761759.156                    22761765.133
 116487595.412 7  90769498.10545  22166828.219                    22166836.488
 114282780.142 7  89051539.97745  21747293.930                    21747301.613
 124293872.308 7  96852379.57043  23652347.250                    23652355.047
 11  8 20 17 45  0.0000000  0  9G24G01G08G07G19G28G11G13G23
 123710664.763 6  96397793.26543  23541314.938                    23541325.633
 124350448.497 6  96896346.793 6  23663059.773                    23663072.344
 113330542.616 7  88309551.63245  21566081.805                    21566089.500
 107789741.334 8  83992038.006 8  20511705.797                    20511712.328
 115648024.637 8  90115363.74845  22007089.891                    22007095.371
 119578891.732 7  93178403.76944  22755104.172                    22755111.078
 116432876.314 7  90726859.87945  22156415.758                    22156424.086
 114375747.766 7  89123982.22145  21764984.984                    21764992.875
 124407482.052 6  96940906.49043  23673967.352                    23673974.266
 11  8 20 17 45 30.0000000  0  9G24G01G08G07G19G28G11G13G23
 123639583.702 6  96342405.51144  23527788.039                    23527799.848
 124274600.206 6  96837244.290 6  23648625.547                    23648639.262
 113262506.962 7  88256536.85445  21553134.727                    21553142.707
 107762464.032 8  83970782.969 8  20506514.828                    20506521.719
 115724540.313 7  90174986.32645  22021649.703                    22021656.109
 119544066.059 7  93151266.91644  22748477.461                    22748484.773
 116378529.575 7  90684511.80845  22146073.914                    22146081.898
 114469046.103 7  89196682.16945  21782738.539                    21782746.945
 124521156.864 6  97029484.10343  23695598.320                    23695606.137
 11  8 20 17 46  0.0000000  0  9G24G01G08G07G19G28G11G13G23
 123568604.111 6  96287096.79944  23514281.570                    23514293.301
 124198836.332 6  96778207.570 6  23634207.906                    23634221.613
 113194590.987 7  88203615.32645  21540211.188                    21540218.676
 107735497.650 8  83949770.204 8  20501383.563                    20501390.504
 115801458.939 7  90234922.90045  22036286.609                    22036293.273
 119509383.333 7  93124241.44645  22741877.219                    22741884.828
 116324557.593 7  90642455.75545  22135803.297                    22135811.637
 114562671.952 7  89269637.31345  21800555.438                    21800563.789
 124634894.103 6  97118110.33443  23717242.539                    23717250.305
 11  8 20 17 46 30.0000000  0  9G24G01G08G07G19G28G11G13G23
 123497729.675 7  96231870.04743  23500794.539                    23500806.117
 124123160.275 6  96719239.259 6  23619808.148                    23619820.691
 113126797.015 7  88150788.87245  21527310.789                    21527318.371
 107708844.692 8  83929001.675 8  20496311.367                    20496318.324
 115878778.205 7  90295171.64945  22051000.852                    22051006.457
 119474843.009 7  93097326.93945  22735304.711                    22735312.320
 116270963.378 7  90600694.08245  22125604.461                    22125612.820
 114656622.603 7  89342845.54245  21818433.695                    21818442.586
 124748690.786 6  97206782.90343  23738896.797                    23738905.086
 11  8 20 17 47  0.0000000  0  9G24G01G08G07G19G28G11G13G23
 123426963.606 7  96176727.72644  23487327.758                    23487339.723
 124047575.034 6  96660341.720 6  23605424.555                    23605437.117
 113059127.173 7  88098059.15045  21514433.375                    21514441.078
 107682507.054 8  83908478.838 7  20491299.531                    20491306.691
 115956495.401 7  90355730.48245  22065789.852                    22065795.156
 119440444.000 7  93070522.51945  22728758.617                    22728766.027
 116217749.831 7  90559229.00745  22115478.961                    22115486.410
 114750895.242 7  89416304.67945  21836373.125                    21836381.348
 124862544.310 6  97295499.77743  23760562.180                    23760570.793
 11  8 20 17 47 30.0000000  0  9G24G01G08G07G19G28G11G13G23
 123356309.238 7  96121672.41443  23473883.117                    23473893.953
 123972083.945 6  96601517.554 7  23591058.555                    23591071.887
 112991583.622 7  88045427.82745  21501579.891                    21501587.949
 107656487.410 7  83888203.785 7  20486348.297                    20486355.000
 116034608.081 7  90416597.49045  22080653.703                    22080659.844
 119406185.970 7  93043827.96545  22722239.578                    22722247.164
 116164920.402 7  90518063.26245  22105424.914                    22105433.570
 114845486.981 7  89490012.47545  21854373.359                    21854381.152
 124976452.029 6  97384258.82543  23782238.781                    23782247.035
 11  8 20 17 48  0.0000000  0  9G24G01G08G07G19G28G11G13G23
 123285768.641 7  96066705.73543  23460460.102                    23460470.383
 123896689.688 7  96542768.850 7  23576711.680                    23576725.344
 112924167.902 8  87992896.12245  21488751.133                    21488758.766
 107630785.838 8  83868176.577 7  20481457.391                    20481464.227
 116113112.820 7  90477769.97245  22095592.852                    22095598.668
 119372066.886 7  93017241.67645  22715747.188                    22715754.223
 116112476.393 7  90477197.85245  22095445.516                    22095453.820
 114940394.426 7  89563966.25245  21872434.281                    21872441.813
 125090410.147 6  97473057.15343  23803924.523                    23803933.180
 11  8 20 17 48 30.0000000  0  9G24G01G08G07G19G28G11G13G23
 123215345.026 7  96011830.19243  23447058.086                    23447068.941
 123821394.961 6  96484097.723 7  23562383.094                    23562396.770
 112856882.667 7  87940466.08045  21475946.797                    21475954.957
 107605405.192 8  83848399.451 8  20476627.680                    20476634.391
 116192007.091 7  90539245.99245  22110606.492                    22110612.141
 119338086.489 7  92990763.46045  22709280.852                    22709287.922
 116060420.659 7  90436634.98745  22085539.195                    22085547.816
 115035614.813 7  89638163.89045  21890554.047                    21890561.430
 125204416.355 6  97561892.98243  23825619.227                    23825627.531
 11  8 20 17 49  0.0000000  0  9G24G01G08G07G19G28G11G13G23
 123145041.529 7  95957048.32343  23433679.406                    23433690.590
 123746202.867 6  96425506.580 7  23548074.164                    23548087.863
 112789729.550 7  87888138.99345  21463168.156                    21463176.141
 107580346.944 8  83828873.536 8  20471859.242                    20471866.301
 116271288.087 7  90601023.38045  22125693.281                    22125698.387
 119304243.465 7  92964392.28445  22702840.492                    22702848.109
 116008756.071 7  90396376.89645  22075708.273                    22075716.043
 115131144.920 7  89712602.86445  21908732.945                    21908740.527
 125318467.486 6  97650763.78643  23847322.875                    23847331.070
 11  8 20 17 49 30.0000000  0 10G24G01G08G07G17G19G28G11G13G23
 123074861.401 6  95902362.54343  23420325.797                    23420335.813
 123671116.988 7  96366998.152 6  23533786.516                    23533799.258
 112722710.620 7  87835916.46645  21450415.164                    21450423.281
 107555613.235 8  83809600.524 8  20467152.328                    20467159.570
 129479745.98916 100893232.98315  24639146.836                    24639158.090
 116350952.831 7  90663099.77445  22140852.461                    22140858.754
 119270537.121 7  92938127.64344  22696426.492                    22696433.836
 115957485.358 7  90356425.71345  22065951.398                    22065959.559
 115226981.646 7  89787280.77645  21926969.852                    21926977.695
 125432561.251 6  97739667.84743  23869033.938                    23869042.793
 11  8 20 17 50  0.0000000  0 10G24G01G08G07G17G19G28G11G13G23
 123004807.861 7  95847775.45343  23406994.023                    23407005.586
 123596139.987 7  96308574.577 7  23519518.469                    23519531.156
 112655828.336 8  87783800.40045  21437688.031                    21437695.418
 107531206.111 8  83790581.977 8  20462507.906                    20462514.922
 129375176.495 6 100811750.351 6  24619246.992                    24619258.883
 116430998.948 7  90725473.33645  22156084.875                    22156090.621
 119236966.472 7  92911968.69745  22690037.930                    22690045.301
 115906611.318 7  90316783.63645  22056271.125                    22056278.480
 115323122.564 7  89862195.69945  21945264.641                    21945272.535
 125546694.716 6  97828602.80943  23890753.586                    23890762.059
 11  8 20 17 50 30.0000000  0 10G24G01G08G07G17G19G28G11G13G23
 122934884.303 7  95793289.60743  23393688.023                    23393699.453
 123521275.448 7  96250238.623 7  23505272.656                    23505285.461
 112589085.107 8  87731792.71145  21424986.984                    21424994.559
 107507127.728 8  83771819.591 8  20457925.898                    20457932.648
 129270707.840 6 100730346.282 6  24599367.914                    24599379.629
 116511423.953 7  90788142.13745  22171388.820                    22171395.289
 119203530.653 7  92885914.83344  22683675.320                    22683682.992
 115856136.911 7  90277452.96145  22046665.391                    22046673.926
 115419564.578 7  89937345.25745  21963617.000                    21963624.730
 125660865.096 6  97917566.55343  23912479.359                    23912487.961
 11  8 20 17 51  0.0000000  0 10G24G01G08G07G17G19G28G11G13G23
 122865093.283 7  95738907.02443  23380407.453                    23380418.629
 123446525.561 7  96191992.057 7  23491048.539                    23491061.453
 112522482.491 7  87679894.58745  21412312.773                    21412320.664
 107483379.360 8  83753314.361 8  20453407.234                    20453413.719
 129166341.689 6 100649022.083 6  24579507.836                    24579519.934
 116592224.612 7  90851103.66745  22186765.117                    22186771.563
 119170228.707 7  92859965.27245  22677338.242                    22677345.469
 115806064.279 7  90238435.34645  22037137.438                    22037145.270
 115516304.388 7  90012726.83945  21982025.961                    21982034.352
 125775069.260 6  98006556.59743  23934211.078                    23934220.375
 11  8 20 17 51 30.0000000  0 10G24G01G08G07G17G19G28G11G13G23
 122795437.766 7  95684630.02243  23367152.336                    23367163.098
 123371893.781 7  96133837.492 7  23476845.953                    23476859.215
 112456022.506 8  87628107.60045  21399666.109                    21399673.727
 107459962.836 8  83735067.711 8  20448950.914                    20448957.945
 129062080.387 6 100567779.602 6  24559667.563                    24559679.254
 116673398.153 7  90914355.73245  22202211.563                    22202217.500
 119137059.350 7  92834119.04644  22671026.586                    22671033.941
 115756395.787 7  90199732.66045  22027685.867                    22027693.211
 115613338.930 7  90088338.10545  22000491.492                    22000499.461
 125889304.183 6  98095570.64143  23955950.398                    23955959.023
 11  8 20 17 52  0.0000000  0 10G24G01G08G07G17G19G28G11G13G23
 122725920.823 7  95630461.01843  23353923.859                    23353934.672
 123297383.220 7  96075777.375 7  23462666.859                    23462679.773
 112389707.545 8  87576433.62845  21387046.680                    21387054.578
 107436880.141 8  83717081.190 8  20444558.406                    20444565.582
 128957925.826 6 100486620.326 6  24539847.211                    24539858.984
 116754941.878 7  90977896.26945  22217729.125                    22217734.480
 119104021.941 7  92808375.63645  22664739.461                    22664746.906
 115707134.259 7  90161347.07245  22018311.898                    22018319.500
 115710665.395 7  90164176.83145  22019011.805                    22019019.926
 126003567.463 6  98184606.74943  23977694.109                    23977702.746
 11  8 20 17 52 30.0000000  0 10G24G01G08G07G17G19G28G11G13G23
 122656545.754 7  95576402.55243  23340721.852                    23340732.754
 123222996.765 6  96017813.970 7  23448511.141                    23448524.289
 112323539.822 8  87524874.38245  21374455.680                    21374463.000
 107414133.342 8  83699356.401 8  20440230.117                    20440236.500
 128853880.546 6 100405546.192 6  24520048.648                    24520059.719
 116836852.962 7  91041723.06045  22233316.617                    22233321.852
 119071115.485 7  92782734.26444  22658477.305                    22658485.164
 115658282.537 7  90123280.83445  22009014.844                    22009023.133
 115808280.896 7  90240240.78145  22037587.836                    22037596.363
 126117856.240 6  98273662.71643  23999442.266                    23999451.293
 11  8 20 17 53  0.0000000  0 10G24G01G08G07G17G19G28G11G13G23
 122587315.469 7  95522456.90643  23327548.125                    23327558.828
 123148737.485 7  95959949.667 7  23434380.359                    23434393.871
 112257521.147 8  87473431.27045  21361892.414                    21361899.797
 107391723.860 8  83681894.464 8  20435965.523                    20435972.484
 128749946.011 6 100324558.336 6  24500270.602                    24500281.156
 116919128.522 7  91105833.84245  22248972.766                    22248978.160
 119038338.853 7  92757194.05144  22652240.133                    22652247.316
 115609842.778 7  90085535.58745  21999797.609                    21999805.484
 115906181.826 7  90316527.13745  22056217.633                    22056226.203
 126232167.330 6  98362736.08743  24021195.547                    24021204.508
 11  8 20 17 53 30.0000000  0 10G24G01G08G07G17G19G28G11G13G23
 122518233.429 7  95468626.78944  23314401.375                    23314412.945
 123074608.713 7  95902187.061 6  23420274.219                    23420287.492
 112191654.326 8  87422106.47946  21349359.102                    21349365.672
 107369654.119 8  83664697.258 8  20431765.234                    20431772.758
 128646124.834 6 100243658.819 5  24480514.594                    24480525.023
 117001765.957 7  91170226.62945  22264698.086                    22264703.586
 119005691.306 7  92731754.42244  22646027.320                    22646033.938
 115561817.734 7  90048113.49445  21990658.594                    21990666.070
 116004366.033 7  90393034.23245  22074901.375                    22074909.930
 126346498.614 6  98451825.18543  24042951.164                    24042961.406
 11  8 20 17 54  0.0000000  0 10G24G01G08G07G17G19G28G11G13G23
 122449301.973 6  95414914.03144  23301284.898                    23301295.695
 123000613.210 7  95844528.283 7  23406193.469                    23406206.176
 112125940.947 8  87370901.26145  21336853.563                    21336860.898
 107347925.626 8  83647765.979 8  20427630.852                    20427638.051
 128542419.109 6 100162849.270 5  24460778.750                    24460789.676
 117084762.312 7  91234899.07545  22280491.961                    22280497.906
 118973171.828 7  92706414.58744  22639838.852                    22639845.977
 115514209.731 7  90011016.38945  21981598.773                    21981606.566
 116102829.408 7  90469758.86945  22093638.500                    22093647.063
 126460846.677 6  98540927.32843  24064711.516                    24064721.133
 11  8 20 17 54 30.0000000  0 10G24G01G08G07G17G19G28G11G13G23
 122380525.034 6  95361321.69444  23288196.359                    23288208.441
 122926754.473 7  95786976.084 6  23392138.883                    23392151.078
 112060383.859 8  87319817.83846  21324378.625                    21324385.859
 107326540.683 8  83631102.378 8  20423561.703                    20423568.348
 128438831.118 6 100082131.474 5  24441067.461                    24441077.797
 117168115.134 7  91299849.29445  22296353.391                    22296359.813
 118940779.612 7  92681173.93044  22633674.961                    22633682.465
 115467021.968 7  89974246.73745  21972619.531                    21972627.539
 116201569.988 7  90546699.49445  22112428.023                    22112436.695
 126575209.192 6  98630040.74843  24086474.398                    24086483.953
 11  8 20 17 55  0.0000000  0 10G24G01G08G07G17G19G28G11G13G23
 122311905.684 7  95307852.13344  23275139.469                    23275150.426
 122853035.372 7  95729532.686 6  23378109.906                    23378122.305
 111994985.156 8  87268857.83345  21311933.695                    21311941.102
 107305501.043 8  83614707.852 8  20419557.320                    20419564.527
 128335362.867 6 100001506.979 6  24421377.469                    24421388.508
 117251821.520 7  91365075.00545  22312282.234                    22312288.363
 118908513.907 7  92656031.84444  22627535.359                    22627542.539
 115420256.546 7  89937806.18545  21963720.563                    21963727.684
 116300584.642 7  90623853.68145  22131269.938                    22131278.805
 126689583.070 6  98719162.99543  24108239.305                    24108248.746
 11  8 20 17 55 30.0000000  0 10G24G01G08G07G17G19G28G11G13G23
 122243446.574 6  95254507.40944  23262111.320                    23262122.527
 122779458.819 7  95672200.365 6  23364108.055                    23364120.797
 111929746.674 8  87218022.67146  21299519.164                    21299527.375
 107284808.047 8  83598583.427 8  20415620.234                    20415626.773
 128232015.843 6  99920976.942 6  24401710.414                    24401722.293
 117335878.351 7  91430573.78045  22328277.820                    22328283.605
 118876373.303 7  92630987.23744  22621418.828                    22621427.172
 115373915.862 7  89901696.58845  21954902.375                    21954910.004
 116399869.646 7  90701218.52045  22150163.633                    22150171.793
 126803965.708 6  98808292.08343  24130005.883                    24130015.227
 11  8 20 17 56  0.0000000  0 10G24G01G08G07G17G19G28G11G13G23
 122175151.040 6  95201290.20244  23249115.125                    23249126.773
 122706028.063 7  95614981.632 6  23350135.195                    23350147.691
 111864670.910 7  87167314.31245  21287135.406                    21287143.238
 107264463.951 8  83582730.882 8  20411748.445                    20411755.617
 128128792.837 6  99840543.518 5  24382067.742                    24382079.188
 117420283.106 7  91496343.69045  22344339.750                    22344345.969
 118844357.162 7  92606039.61744  22615327.188                    22615334.500
 115328002.855 7  89865920.24145  21946164.758                    21946172.355
 116499422.792 7  90778792.32345  22169107.961                    22169115.992
 126918354.535 6  98897425.97043  24151773.063                    24151783.207
 11  8 20 17 56 30.0000000  0 10G24G01G08G07G17G19G28G11G13G23
 122107022.344 7  95148202.95144  23236151.031                    23236162.113
 122632746.526 7  95557879.183 7  23336190.563                    23336203.332
 111799760.254 8  87116734.60045  21274783.086                    21274790.930
 107244470.773 8  83567151.780 8  20407944.367                    20407951.059
 128025696.004 6  99760208.448 5  24362449.602                    24362460.398
 117505032.882 7  91562382.43145  22360467.031                    22360473.355
 118812464.862 7  92581188.51244  22609258.016                    22609265.652
 115282520.029 8  89830479.09945  21937509.289                    21937516.992
 116599240.773 7  90856572.47045  22188102.688                    22188111.004
 127032746.858 6  98986562.63242  24173541.734                    24173551.359
 11  8 20 17 57  0.0000000  0 10G24G01G08G07G17G19G28G11G13G23
 122039063.061 7  95095247.72244  23223218.602                    23223230.016
 122559616.370 7  95500894.716 7  23322274.633                    23322287.098
 111735016.301 8  87066284.77745  21262462.859                    21262470.570
 107224829.631 8  83551846.986 8  20404206.422                    20404213.590
 127922726.836 6  99679972.859 5  24342854.633                    24342865.625
 117590124.523 7  91628687.57145  22376659.492                    22376665.824
 118780694.587 7  92556432.49344  22603212.086                    22603220.070
 115237468.850 7  89795374.31145  21928937.273                    21928944.512
 116699319.735 7  90934556.00444  22207147.266                    22207155.375
 127147139.390 6  99075699.42542  24195309.281                    24195319.613
 11  8 20 17 57 30.0000000  0 10G24G01G08G07G17G19G28G11G13G23
 121971276.493 7  95042427.09944  23210319.336                    23210329.715
 122486640.931 7  95444030.806 7  23308387.461                    23308400.551
 111670441.490 7  87015966.75146  21250174.875                    21250182.559
 107205542.501 8  83536818.053 8  20400536.102                    20400543.305
 127819887.371 6  99599838.341 5  24323285.258                    24323295.723
 117675555.563 7  91695257.17645  22392916.273                    22392922.820
 118749045.511 7  92531770.90245  22597189.820                    22597197.219
 115192852.559 7  89760608.40045  21920446.867                    21920454.375
 116799656.852 7  91012740.67144  22226240.563                    22226248.496
 127261529.199 6  99164834.08442  24217077.867                    24217087.063
 11  8 20 17 58  0.0000000  0 10G24G01G08G07G17G19G28G11G13G23
 121903665.920 6  94989743.58444  23197453.570                    23197464.250
 122413823.705 7  95387290.165 7  23294530.828                    23294544.039
 111606038.298 8  86965782.46446  21237919.180                    21237926.867
 107186611.495 8  83522066.614 7  20396933.758                    20396940.730
 127717179.858 6  99519806.627 5  24303740.234                    24303751.121
 117761323.264 7  91762089.12545  22409237.352                    22409243.480
 118717517.295 7  92507203.50345  22591189.875                    22591197.445
 115148673.607 8  89726183.26545  21912039.484                    21912047.375
 116900249.871 7  91091124.77544  22245383.367                    22245390.969
 127375913.904 5  99253964.84442  24238844.422                    24238853.973
 11  8 20 17 58 30.0000000  0 10G24G01G08G07G17G19G28G11G13G23
 121836234.257 7  94937199.47444  23184621.484                    23184632.289
 122341167.605 6  95330675.099 7  23280704.406                    23280717.992
 111541808.937 8  86915733.62545  21225696.711                    21225704.641
 107168038.592 8  83507594.209 8  20393399.430                    20393406.496
 127614606.423 6  99439879.393 6  24284221.266                    24284232.453
 117847424.831 7  91829181.18545  22425622.172                    22425628.293
 118686108.670 7  92482729.27245  22585213.672                    22585220.285
 115104934.336 7  89692100.72645  21903716.633                    21903724.223
 117001095.295 7  91169705.53545  22264573.148                    22264581.480
 127490291.057 5  99343089.62442  24260610.422                    24260619.328
 11  8 20 17 59  0.0000000  0 10G24G01G08G07G17G19G28G11G13G23
 121768984.732 7  94884797.32444  23171823.836                    23171834.906
 122268675.905 7  95274188.133 7  23266909.766                    23266922.270
 111477755.757 8  86865822.06145  21213507.711                    21213515.602
 107149825.408 8  83493402.110 8  20389933.664                    20389940.770
 127512169.177 6  99360058.269 6  24264727.953                    24264738.172
 117933857.039 7  91896530.89645  22442070.109                    22442075.102
 118654818.820 7  92458347.60544  22579258.563                    22579265.934
 115061636.970 8  89658362.53945  21895477.141                    21895485.164
 117102189.950 7  91248480.50744  22283811.469                    22283819.629
 127604657.746 5  99432206.24042  24282372.719                    24282383.023
 11  8 20 17 59 30.0000000  0 10G24G01G08G07G17G19G28G11G13G23
 121701920.044 7  94832539.19144  23159062.430                    23159072.969
 122196351.175 7  95217831.241 7  23253147.344                    23253159.297
 111413880.520 8  86816049.16445  21201352.828                    21201360.270
 107131973.181 8  83479491.272 8  20386536.758                    20386543.359
 127409869.858 6  99280344.613 6  24245262.172                    24245271.539
 118020617.075 7  91964136.06845  22458580.109                    22458586.027
 118623646.493 7  92434057.50044  22573326.445                    22573333.961
 115018783.837 8  89624970.51445  21887322.656                    21887329.949
 117203530.909 7  91327447.40045  22303095.789                    22303104.227
 127719010.841 5  99521312.29742  24304133.305                    24304143.852
 11  8 20 18  0  0.0000000  0 10G24G01G08G07G17G19G28G11G13G23
 121635043.306 6  94780427.54743  23146335.922                    23146346.547
 122124196.191 6  95161606.654 7  23239415.758                    23239428.582
 111350185.513 8  86766416.71246  21189232.172                    21189239.570
 107114483.878 8  83465863.239 8  20383208.438                    20383215.484
 127307710.465 6  99200739.990 6  24225820.531                    24225831.746
 118107702.310 7  92031994.64345  22475151.375                    22475157.395
 118592590.512 7  92409858.05845  22567416.648                    22567424.672
 114976377.224 8  89591926.42745  21879252.313                    21879260.238
 117305114.645 7  91406603.44845  22322426.539                    22322434.805
 127833347.619 5  99610405.59442  24325892.156                    24325901.348
 11  8 20 18  0 30.0000000  0 10G24G01G08G07G17G19G28G11G13G23
 121568357.840 7  94728464.91543  23133645.266                    23133656.379
 122052214.424 7  95105517.046 7  23225718.359                    23225731.391
 111286673.311 8  86716926.68745  21177146.070                    21177153.387
 107097359.414 8  83452519.498 8  20379949.883                    20379956.699
 127205693.292 6  99121246.197 6  24206407.500                    24206418.328
 118195109.754 7  92100104.31345  22491783.953                    22491791.047
 118561650.341 7  92385748.85945  22561529.477                    22561536.668
 114934419.561 8  89559232.18445  21871268.367                    21871276.152
 117406938.272 7  91485946.45145  22341803.406                    22341811.859
 127947665.342 6  99699484.11542  24347646.063                    24347656.246
 11  8 20 18  1  0.0000000  0 10G24G01G08G07G17G19G28G11G13G23
 121501866.856 7  94676653.84843  23120993.117                    23121003.227
 121980409.455 7  95049565.173 7  23212054.477                    23212066.969
 111223346.513 7  86667581.15645  21165095.094                    21165103.266
 107080601.836 8  83439461.641 8  20376760.938                    20376767.996
 127103820.742 6  99041865.092 6  24187021.586                    24187032.180
 118282836.863 7  92168463.07445  22508478.258                    22508484.469
 118530825.090 7  92361729.20845  22555663.250                    22555670.816
 114892913.481 8  89526889.82145  21863369.922                    21863377.949
 117508999.073 7  91565474.25344  22361224.844                    22361232.832
 128061961.841 6  99788546.02543  24369396.258                    24369405.902
 11  8 20 18  1 30.0000000  0 10G24G01G08G07G17G19G28G11G13G23
 121435573.511 6  94624996.73843  23108377.484                    23108388.152
 121908784.153 7  94993753.296 7  23198423.734                    23198436.836
 111160207.582 7  86618382.01446  21153080.398                    21153087.836
 107064213.277 8  83426691.333 8  20373642.016                    20373649.102
 127002094.714 6  98962598.167 6  24167663.906                    24167674.379
 118370880.866 7  92237068.73745  22525232.781                    22525239.070
 118500114.097 7  92337798.58945  22549819.336                    22549826.297
 114851861.400 8  89494901.21145  21855558.203                    21855566.152
 117611294.245 7  91645184.68244  22380690.602                    22380699.609
 128176234.227 6  99877589.16642  24391141.328                    24391151.762
 11  8 20 18  2  0.0000000  0 10G24G01G08G07G17G19G28G11G13G23
 121369480.505 7  94573495.75744  23095800.461                    23095810.785
 121837340.838 7  94938083.248 7  23184829.031                    23184842.066
 111097258.121 8  86569330.50446  21141101.539                    21141108.914
 107048194.776 8  83414209.375 8  20370594.148                    20370601.137
 126900516.915 6  98883446.705 6  24148334.703                    24148344.855
 118459238.408 7  92305918.71745  22542046.195                    22542052.570
 118469516.127 7  92313956.04545  22543996.586                    22544004.059
 114811265.188 7  89463267.82245  21847832.984                    21847840.469
 117713819.830 7  91725074.65044  22400201.148                    22400209.234
 128290479.635 6  99966611.30242  24412882.492                    24412892.742
 11  8 20 18  2 30.0000000  0 10G24G01G08G07G17G19G28G11G13G23
 121303591.174 7  94522153.46444  23083262.266                    23083272.676
 121766083.430 7  94882558.054 7  23171269.586                    23171281.980
 111034500.660 8  86520428.60346  21129159.172                    21129166.527
 107032548.013 8  83402017.090 8  20367616.570                    20367623.539
 126799089.284 6  98804412.279 6  24129032.906                    24129043.441
 118547906.761 7  92375010.90445  22558919.430                    22558925.977
 118439030.044 7  92290200.69144  22538195.102                    22538202.168
 114771127.409 7  89431991.64745  21840194.992                    21840202.375
 117816573.219 7  91805142.12444  22419754.359                    22419763.445
 128404695.202 6 100055610.21642  24434616.844                    24434627.965
 11  8 20 18  3  0.0000000  0 10G24G01G08G07G17G19G28G11G13G23
 121237908.484 6  94470972.23644  23070763.172                    23070774.031
 121695014.658 7  94827179.853 7  23157745.383                    23157758.094
 110971937.824 7  86471678.35846  21117253.719                    21117261.852
 107017274.831 8  83390115.905 8  20364710.336                    20364717.125
 126697814.232 6  98725496.768 6  24109761.023                    24109771.645
 118636883.425 7  92444343.30445  22575851.656                    22575858.141
 118408654.818 7  92266531.70945  22532415.242                    22532422.117
 114731449.983 7  89401074.19745  21832644.000                    21832652.309
 117919551.251 7  91885384.64144  22439350.664                    22439358.984
 128518878.378 6 100144583.80442  24456345.461                    24456355.902
 11  8 20 18  3 30.0000000  0  9G24G01G08G07G17G19G28G11G13
 121172435.892 7  94419954.71444  23058304.164                    23058314.918
 121624138.190 7  94771951.490 7  23144257.688                    23144270.121
 110909571.917 8  86423081.56546  21105386.016                    21105393.652
 107002377.525 8  83378507.604 8  20361875.039                    20361881.934
 126596693.847 6  98646701.784 6  24090517.883                    24090528.918
 118726165.715 7  92513913.86145  22592842.328                    22592847.480
 118378390.172 7  92242948.88545  22526655.313                    22526663.117
 114692235.683 7  89370517.62045  21825181.836                    21825189.379
 118022751.265 7  91965800.14244  22458988.523                    22458997.543
 11  8 20 18  4  0.0000000  0  9G24G01G08G07G17G19G28G11G13
 121107176.416 7  94369103.22943  23045885.680                    23045895.898
 121553456.849 6  94716875.194 7  23130807.609                    23130820.410
 110847405.299 8  86374640.06746  21093556.195                    21093563.703
 106987857.899 8  83367193.601 8  20359112.328                    20359119.020
 126495730.242 6  98568028.955 6  24071304.430                    24071315.773
 118815750.444 7  92583720.08145  22609888.750                    22609895.566
 118348235.225 7  92219451.55045  22520917.648                    22520925.234
 114653487.030 7  89340323.87145  21817808.859                    21817815.734
 118126169.954 7  92046386.03644  22478668.805                    22478677.465
 11  8 20 18  4 30.0000000  0  9G24G01G08G07G17G19G28G11G13
 121042132.761 6  94318419.95244  23033507.445                    23033519.484
 121482973.556 6  94661953.191 7  23117395.102                    23117407.434
 110785440.361 7  86326355.70946  21081764.539                    21081772.086
 106973717.357 8  83356174.994 8  20356421.680                    20356428.473
 126394925.181 6  98489479.660 6  24052122.094                    24052133.574
 118905635.030 7  92653759.96745  22626993.469                    22626999.945
 118318188.542 7  92196038.56845  22515199.156                    22515207.215
 114615205.754 8  89310494.31045  21810523.813                    21810531.230
 118229804.045 7  92127139.78644  22498389.781                    22498397.930
 11  8 20 18  5  0.0000000  0  9G24G01G08G07G17G19G28G11G13
 120977307.928 6  94267907.19744  23021172.258                    23021183.344
 121412691.185 7  94607187.756 7  23104021.219                    23104033.109
 110723679.123 8  86278230.09546  21070011.609                    21070019.199
 106959957.564 8  83345453.061 8  20353803.359                    20353810.066
 126294280.762 6  98411055.549 6  24032971.055                    24032981.340
 118995816.528 7  92724031.21344  22644153.844                    22644160.395
 118288249.200 7  92172709.23045  22509502.383                    22509509.637
 114577394.174 8  89281030.76345  21803328.625                    21803336.438
 118333650.617 7  92208059.09344  22518151.289                    22518159.953
 11  8 20 18  5 30.0000000  0 10G24G01G08G07G17G26G19G28G11G13
 120912705.402 7  94217567.63744  23008878.766                    23008890.043
 121342612.799 6  94552581.301 7  23090684.875                    23090697.766
 110662124.186 8  86230265.22346  21058298.563                    21058305.715
 106946580.190 8  83335029.128 8  20351257.508                    20351264.188
 126193798.860 6  98332758.052 6  24013849.664                    24013859.797
 127484027.59216                  24259394.711
 119086291.921 7  92794531.47544  22661370.852                    22661377.602
 118258416.504 7  92149462.98545  22503825.961                    22503832.965
 114540054.280 7  89251934.75145  21796223.156                    21796230.719
 118437706.637 7  92289141.61544  22537952.711                    22537961.125
 11  8 20 18  6  0.0000000  0 10G24G01G08G07G17G26G19G28G11G13
 120848328.170 7  94167403.62944  22996627.484                    22996638.887
 121272742.073 6  94498136.665 7  23077389.148                    23077401.324
 110600777.748 8  86182462.82146  21046624.508                    21046631.773
 106933586.833 8  83324904.409 8  20348784.945                    20348791.719
 126093481.582 6  98254588.860 6  23994759.180                    23994769.840
 127396313.603 6  99269852.53152  24242703.797                    24242712.453
 119177058.411 7  92865258.57644  22678642.922                    22678649.668
 118228689.504 7  92126299.11145  22498168.914                    22498176.086
 114503188.536 7  89223208.21145  21789208.016                    21789215.598
 118541968.957 7  92370384.86544  22557793.031                    22557801.906
 11  8 20 18  6 30.0000000  0 10G24G01G08G07G17G26G19G28G11G13
 120784179.483 7  94117417.69544  22984420.781                    22984431.621
 121203081.516 7  94443855.755 7  23064133.891                    23064145.551
 110539642.158 8  86134824.71446  21034990.922                    21034998.551
 106920979.457 8  83315080.472 8  20346385.648                    20346392.691
 125993331.062 6  98176549.597 6  23975701.141                    23975711.289
 127308979.982 6  99201800.43742  24226084.234                    24226093.988
 119268113.385 7  92936210.48645  22695970.430                    22695977.098
 118199067.214 7  92103216.82945  22492531.969                    22492538.734
 114466799.075 7  89194852.80645  21782283.008                    21782290.527
 118646434.581 7  92451786.54344  22577671.789                    22577681.320
 11  8 20 18  7  0.0000000  0 10G24G01G08G07G17G26G19G28G11G13
 120720261.866 7  94067611.80244  22972258.406                    22972268.531
 121133634.257 6  94389741.036 7  23050917.688                    23050930.277
 110478719.690 8  86087352.66446  21023397.563                    21023404.980
 106908759.414 8  83305558.358 8  20344060.367                    20344067.418
 125893348.814 7  98098641.433 6  23956675.289                    23956684.734
 127222029.267 6  99134046.70142  24209538.578                    24209548.027
 119359453.757 7  93007384.76245  22713351.859                    22713359.078
 118169548.494 7  92080215.24745  22486914.672                    22486922.051
 114430887.647 7  89166869.90045  21775448.961                    21775457.473
 118751099.913 7  92533343.85544  22597589.430                    22597597.922
 11  8 20 18  7 30.0000000  0 10G24G01G08G07G17G26G19G28G11G13
 120656578.547 7  94017988.49244  22960139.477                    22960150.570
 121064403.215 6  94335794.842 7  23037743.398                    23037756.125
 110418013.055 8  86040048.81246  21011845.250                    21011853.250
 106896928.437 8  83296339.403 8  20341809.313                    20341815.824
 125793537.198 6  98020866.243 6  23937681.680                    23937691.098
 127135464.268 6  99066593.55643  24193065.164                    24193075.055
 119451076.433 7  93078779.01845  22730788.086                    22730794.707
 118140132.393 7  92057293.63345  22481317.375                    22481323.859
 114395456.756 7  89139261.44045  21768706.859                    21768714.773
 118855962.339 7  92615054.72144  22617544.242                    22617553.320
 11  8 20 18  8  0.0000000  0 10G24G01G08G07G17G26G19G28G11G13
 120593132.549 6  93968550.13044  22948065.672                    22948077.012
 120995391.674 7  94282019.686 7  23024610.352                    23024623.262
 110357524.378 8  85992914.79046  21000334.555                    21000342.840
 106885488.064 8  83287424.819 8  20339632.180                    20339638.684
 125693897.704 7  97943225.154 6  23918721.078                    23918730.953
 127049287.589 6  98999442.95343  24176665.891                    24176676.000
 119542978.671 7  93150391.11145  22748276.008                    22748283.207
 118110817.879 7  92034451.17444  22475738.195                    22475745.492
 114360508.208 7  89112028.81545  21762056.594                    21762064.160
 118961018.643 7  92696916.67544  22637535.266                    22637544.961
 11  8 20 18  8 30.0000000  0 10G24G01G08G07G17G26G19G28G11G13
 120529926.902 7  93919299.03444  22936038.258                    22936049.453
 120926602.374 7  94228417.692 7  23011520.867                    23011533.066
 110297255.879 8  85945952.34146  20988866.016                    20988874.270
 106874440.186 8  83278816.091 8  20337529.734                    20337536.953
 125594432.810 7  97865720.135 6  23899793.227                    23899803.148
 126963502.190 6  98932597.24943  24160341.469                    24160351.242
 119635157.872 7  93222219.02445  22765817.117                    22765823.508
 118081604.320 7  92011687.37745  22470179.039                    22470186.125
 114326043.875 7  89085173.50345  21755498.148                    21755505.816
 119066265.562 7  92778927.13444  22657563.477                    22657572.379
 11  8 20 18  9  0.0000000  0 10G24G01G08G07G17G26G19G28G11G13
 120466964.720 7  93870237.68744  22924057.055                    22924067.988
 120858038.285 7  94174991.162 7  22998473.789                    22998485.238
 110237210.035 8  85899163.38446  20977440.070                    20977446.871
 106863786.110 8  83270514.212 8  20335502.664                    20335509.359
 125495144.083 7  97788352.364 6  23880899.094                    23880909.656
 126878110.599 6  98866058.41343  24144092.633                    24144102.367
 119727610.783 7  93294260.19044  22783410.063                    22783416.625
 118052490.707 7  91989001.46045  22464639.234                    22464645.820
 114292066.302 7  89058697.50145  21749032.539                    21749040.414
 119171699.585 7  92861083.40344  22677626.977                    22677636.266
 11  8 20 18  9 30.0000000  0 10G24G01G08G07G17G26G19G28G11G13
 120404248.943 6  93821368.30344  22912122.031                    22912132.992
 120789702.424 7  94121742.489 7  22985470.047                    22985482.168
 110177389.360 7  85852549.88946  20966056.516                    20966063.766
 106853527.470 8  83262520.461 8  20333550.086                    20333557.262
 125396033.771 6  97711123.637 6  23862039.211                    23862049.473
 126793115.562 6  98799828.55643  24127917.758                    24127927.996
 119820334.814 7  93366512.62845  22801055.031                    22801061.684
 118023475.992 7  91966392.60045  22459118.109                    22459124.742
 114258576.873 7  89032601.86545  21742659.281                    21742667.305
 119277317.888 7  92943383.28044  22697725.500                    22697734.422
 11  8 20 18 10  0.0000000  0 10G24G01G08G07G17G26G19G28G11G13
 120341782.747 7  93772693.41144  22900235.242                    22900245.602
 120721598.428 7  94068674.505 7  22972510.047                    22972522.645
 110117796.568 7  85806113.97146  20954715.852                    20954723.828
 106843666.237 8  83254836.371 8  20331673.516                    20331680.551
 125297103.770 7  97634035.395 6  23843213.359                    23843223.684
 126708519.994 6  98733909.98743  24111820.766                    24111830.063
 119913327.409 7  93438974.31545  22818750.742                    22818757.707
 117994559.403 7  91943860.20645  22453614.938                    22453621.852
 114225578.026 7  89006888.46745  21736380.406                    21736387.754
 119383118.037 7  93025824.84844  22717858.742                    22717867.781
 11  8 20 18 10 30.0000000  0 10G24G01G08G07G17G26G19G28G11G13
 120279569.359 7  93724215.50444  22888396.094                    22888407.656
 120653729.111 7  94015789.380 7  22959594.641                    22959607.078
 110058433.969 7  85759857.42446  20943419.922                    20943427.172
 106834204.033 8  83247463.205 8  20329873.031                    20329879.953
 125198356.119 7  97557089.270 6  23824422.000                    23824432.535
 126624326.641 6  98668304.83343  24095798.078                    24095808.363
 120006585.430 6  93511642.83645  22836497.547                    22836504.148
 117965739.998 7  91921403.54345  22448130.953                    22448138.016
 114193071.975 7  88981559.09245  21730194.430                    21730202.160
 119489096.617 7  93108405.45744  22738026.063                    22738034.750
 11  8 20 18 11  0.0000000  0 10G24G01G08G07G17G26G19G28G11G13
 120217611.551 7  93675936.78444  22876606.336                    22876616.734
 120586097.619 7  93963089.597 7  22946724.898                    22946736.734
 109999303.711 7  85713781.91946  20932167.617                    20932174.766
 106825142.554 8  83240402.316 8  20328148.742                    20328155.957
 125099792.504 7  97480286.540 6  23805666.117                    23805676.109
 126540538.220 6  98603015.22643  24079854.625                    24079864.020
 120100106.006 7  93584515.96444  22854293.750                    22854300.457
 117937017.114 7  91899022.07945  22442665.211                    22442672.793
 114161060.996 7  88956615.47345  21724102.875                    21724110.297
 119595250.782 7  93191122.86544  22758226.375                    22758235.426
 11  8 20 18 11 30.0000000  0 10G24G01G08G07G17G26G19G28G11G13
 120155912.338 7  93627859.51944  22864865.297                    22864875.684
 120518706.717 7  93910577.250 7  22933900.742                    22933912.750
 109940408.050 7  85667889.21746  20920959.859                    20920967.551
 106816483.318 8  83233654.845 8  20326501.109                    20326508.281
 125001415.054 7  97403628.890 6  23786945.539                    23786955.770
 126457157.374 6  98538043.19443  24063987.070                    24063997.555
 120193886.434 7  93657591.56144  22872139.203                    22872146.469
 117908389.692 7  91876715.02645  22437217.563                    22437224.918
 114129546.375 7  88932058.65045  21718105.219                    21718113.332
 119701576.998 7  93273974.34744  22778460.031                    22778468.672
 11  8 20 18 12  0.0000000  0 10G24G01G08G07G17G26G19G28G11G13
 120094474.725 7  93579986.11544  22853174.141                    22853184.141
 120451559.127 7  93858254.506 7  22921123.164                    22921135.234
 109881749.754 8  85622181.47746  20909797.734                    20909805.355
 106808227.421 8  83227221.664 8  20324929.781                    20324936.547
 124903225.678 6  97327117.772 6  23768260.164                    23768270.707
 126374186.417 6  98473390.55843  24048198.852                    24048208.984
 120287923.991 7  93730867.52345  22890034.234                    22890041.902
 117879856.518 7  91854481.41145  22431787.844                    22431795.316
 114098529.949 7  88907890.00545  21712203.547                    21712211.391
 119808071.811 7  93356957.20144  22798725.484                    22798734.387
 11  8 20 18 12 30.0000000  0 10G24G01G08G07G17G26G19G28G11G13
 120033301.743 6  93532318.91144  22841533.977                    22841543.762
 120384658.407 7  93806124.144 7  22908391.750                    22908404.223
 109823330.945 7  85576660.33146  20898681.008                    20898688.570
 106800376.714 8  83221104.211 8  20323436.078                    20323442.973
 124805226.190 6  97250754.614 6  23749611.797                    23749622.355
 126291628.357 6  98409059.62443  24032489.031                    24032498.512
 120382215.370 7  93804341.26645  22907978.023                    22907984.559
 117851416.876 7  91832320.68645  22426375.953                    22426383.297
 114068013.791 7  88884111.19845  21706396.867                    21706404.227
 119914732.613 7  93440069.39044  22819022.359                    22819032.047
 11  8 20 18 13  0.0000000  0 10G24G01G08G07G17G26G19G28G11G13
 119972396.625 6  93484860.44544  22829943.242                    22829953.785
 120318007.406 7  93754188.382 7  22895708.172                    22895720.809
 109765154.614 7  85531328.14346  20887610.477                    20887618.055
 106792932.984 8  83215303.895 8  20322019.500                    20322026.586
 124707418.676 7  97174541.058 6  23730999.836                    23731009.785
 126209485.652 6  98345052.34743  24016856.828                    24016866.906
 120476758.310 7  93878011.02145  22925968.961                    22925975.563
 117823069.988 7  91810232.22745  22420982.242                    22420989.328
 114038000.299 7  88860724.06845  21700685.469                    21700692.781
 120021556.511 7  93523308.66044  22839350.352                    22839359.965
 11  8 20 18 13 30.0000000  0 10G24G01G08G07G17G26G19G28G11G13
 119911762.380 6  93437613.05044  22818404.859                    22818415.164
 120251609.335 7  93702449.673 7  22883073.406                    22883085.391
 109707222.734 7  85486186.44046  20876586.148                    20876593.277
 106785897.621 8  83209821.790 8  20320680.898                    20320687.836
 124609804.901 7  97098478.488 6  23712424.398                    23712434.574
 126127761.003 6  98281370.84543  24001304.719                    24001314.781
 120571549.506 7  93951874.25445  22944006.641                    22944013.379
 117794815.060 7  91788215.44045  22415605.078                    22415612.590
 114008491.096 7  88837729.89245  21695069.844                    21695077.598
 120128540.316 7  93606672.54944  22859708.547                    22859718.020
 11  8 20 18 14  0.0000000  0 10G24G01G08G07G17G26G19G28G11G13
 119851401.779 6  93390578.83244  22806918.492                    22806928.742
 120185466.919 7  93650910.165 7  22870486.766                    22870499.367
 109649537.902 7  85441237.22246  20865609.117                    20865616.418
 106779272.091 8  83204659.030 8  20319420.039                    20319426.805
 124512386.992 6  97022568.528 6  23693886.914                    23693896.895
 126046457.412 6  98218017.47743  23985833.844                    23985843.582
 120666586.379 6  94025928.87944  22962091.469                    22962098.477
 117766650.905 7  91766269.37045  22410245.820                    22410252.688
 113979487.805 7  88815129.94945  21689550.617                    21689558.352
 120235680.682 7  93690158.41344  22880097.156                    22880105.973
 11  8 20 18 14 30.0000000  0 10G24G01G08G07G17G26G19G28G11G13
 119791317.865 6  93343760.24443  22795484.711                    22795494.730
 120119583.567 7  93599572.544 7  22857949.719                    22857962.473
 109592102.552 7  85396482.41746  20854679.328                    20854686.859
 106773057.892 8  83199816.783 8  20318237.531                    20318244.574
 124415166.801 7  96946812.618 6  23675386.656                    23675395.512
 125965576.884 6  98154993.73643  23970442.875                    23970452.395
 120761866.118 7  94100172.78045  22980223.141                    22980229.375
 117738576.714 7  91744393.40245  22404903.195                    22404910.438
 113950992.487 7  88792925.81545  21684128.070                    21684135.766
 120342974.684 7  93773763.99544  22900514.445                    22900523.527
 11  8 20 18 15  0.0000000  0 10G24G01G08G07G17G26G19G28G11G13
 119731513.808 7  93297159.71944  22784104.953                    22784114.574
 120053961.914 7  93548438.845 7  22845461.875                    22845474.297
 109534919.009 7  85351923.82546  20843798.078                    20843805.273
 106767256.822 8  83195296.449 8  20317133.750                    20317140.461
 124318146.080 7  96871212.150 6  23656923.242                    23656933.313
 125885122.479 6  98092302.03842  23955132.375                    23955142.906
 120857385.974 7  94174603.77444  22998399.750                    22998406.242
 117710591.671 7  91722586.92145  22399577.813                    22399584.977
 113923007.148 7  88771119.06245  21678803.219                    21678810.500
 120450419.385 7  93857487.01244  22920960.750                    22920969.336
 11  8 20 18 15 30.0000000  0 10G24G01G08G07G17G26G19G28G11G13
 119671992.497 7  93250779.55744  22772777.602                    22772788.508
 119988605.298 7  93497511.677 7  22833025.172                    22833037.441
 109477990.100 8  85307563.64846  20832964.688                    20832971.949
 106761870.497 8  83191099.306 8  20316108.375                    20316115.336
 124221326.938 6  96795768.767 6  23638499.258                    23638509.074
 125805096.860 6  98029944.41543  23939903.945                    23939914.316
 120953143.176 7  94249219.70744  23016622.141                    23016628.887
 117682695.155 7  91700849.39945  22394269.266                    22394275.801
 113895533.400 7  88749710.95245  21673574.641                    21673582.395
 120558011.572 7  93941324.95944  22941435.469                    22941443.711
 11  8 20 18 16  0.0000000  0 10G24G01G08G07G17G26G19G28G11G13
 119612756.858 7  93204621.96044  22761505.813                    22761516.625
 119923516.371 7  93446793.081 7  22820638.688                    22820650.973
 109421318.194 8  85263403.72946  20822180.703                    20822187.797
 106756900.267 8  83187226.389 8  20315162.656                    20315169.813
 124124711.384 6  96720484.008 6  23620113.758                    23620123.762
 125725502.562 6  97967922.93843  23924757.852                    23924768.578
 121049135.028 7  94324018.49044  23034888.992                    23034895.457
 117654886.033 7  91679179.96245  22388977.063                    22388983.734
 113868573.044 7  88728702.88845  21668444.109                    21668451.859
 120665748.142 7  94025275.39844  22961936.578                    22961945.641
 11  8 20 18 16 30.0000000  0 10G24G01G08G07G17G26G19G28G11G13
 119553810.166 6  93158689.53344  22750288.414                    22750299.641
 119858698.751 7  93396285.878 7  22808304.672                    22808316.875
 109364905.772 7  85219446.00146  20811445.547                    20811452.660
 106752347.994 7  83183679.156 8  20314296.453                    20314303.613
 124028301.171 7  96645359.243 6  23601767.414                    23601777.430
 125646342.472 6  97906239.80043  23909693.703                    23909704.016
 121145358.268 7  94398997.59644  23053199.938                    23053205.410
 117627163.403 7  91657577.94145  22383701.633                    22383708.711
 113842128.181 7  88708096.51945  21663411.617                    21663419.602
 120773626.441 7  94109336.28644  22982465.320                    22982474.363
 11  8 20 18 17  0.0000000  0 10G24G01G08G07G17G26G19G28G11G13
 119495155.073 7  93112984.29744  22739127.180                    22739137.227
 119794155.274 7  93345992.327 7  22796022.625                    22796034.688
 109308755.427 8  85175692.49046  20800760.664                    20800767.699
 106748214.434 8  83180458.197 8  20313509.797                    20313516.594
 123932098.052 7  96570395.823 6  23583460.273                    23583470.988
 125567618.561 6  97844896.59043  23894713.305                    23894723.047
 121241810.355 7  94474154.99044  23071553.820                    23071559.789
 117599526.594 7  91636042.77645  22378442.766                    22378449.402
 113816200.167 7  88687892.88745  21658477.867                    21658485.563
 120881643.165 7  94193505.00544  23003020.555                    23003029.469
 11  8 20 18 17 30.0000000  0 10G24G01G08G07G17G26G19G28G11G13
 119436794.859 6  93067508.85744  22728021.125                    22728030.805
 119729888.812 7  93295914.621 7  22783792.820                    22783805.422
 109252869.745 8  85132145.21446  20790125.469                    20790132.840
 106744501.631 8  83177565.089 8  20312803.117                    20312810.418
 123836104.085 6  96495595.398 6  23565193.078                    23565203.387
 125489333.696 7  97783895.40443  23879816.438                    23879825.484
 121338488.766 7  94549488.78244  23089951.484                    23089957.438
 117571974.584 7  91614573.68945  22373200.031                    22373206.668
 113790790.894 7  88668093.48045  21653642.383                    21653650.340
 120989795.300 7  94277779.25944  23023601.008                    23023610.344
 11  8 20 18 18  0.0000000  0 10G24G01G08G07G17G26G19G28G11G13
 119378731.992 7  93022265.10444  22716971.852                    22716982.445
 119665901.549 7  93246054.475 7  22771616.633                    22771629.191
 109197250.620 8  85088805.63246  20779541.938                    20779548.906
 106741210.629 7  83175000.678 8  20312177.227                    20312184.332
 123740321.094 6  96420959.376 6  23546966.141                    23546976.387
 125411490.091 7  97723238.11643  23865003.039                    23865012.340
 121435390.556 7  94624996.60844  23108390.898                    23108397.570
 117544506.659 7  91593170.11345  22367972.844                    22367979.633
 113765901.738 7  88648699.34345  21648906.305                    21648913.957
 121098079.456 7  94362156.37644  23044206.914                    23044215.840
 11  8 20 18 18 30.0000000  0 10G24G01G08G07G17G26G19G28G11G13
 119320969.545 7  92977255.44944  22705980.320                    22705991.141
 119602197.496 7  93196415.007 7  22759493.914                    22759506.594
 109141900.910 8  85045676.00446  20769009.047                    20769016.105
 106738342.991 7  83172766.140 8  20311631.203                    20311638.461
 123644751.221 6  96346489.409 6  23528779.227                    23528790.121
 125334090.532 7  97662926.80843  23850273.859                    23850284.004
 121532512.780 7  94700676.20544  23126873.063                    23126878.891
 117517121.835 7  91571831.30745  22362761.594                    22362768.688
 113741534.645 7  88629712.01845  21644269.242                    21644277.207
 121206492.706 7  94446634.08444  23064837.633                    23064846.852
 11  8 20 18 19  0.0000000  0 10G24G01G08G07G17G26G19G28G11G13
 119263510.713 7  92932482.41044  22695046.297                    22695056.953
 119538779.276 7  93146998.261 7  22747426.039                    22747438.684
 109086822.983 8  85002758.14046  20758527.688                    20758535.141
 106735900.135 8  83170862.606 8  20311166.320                    20311173.488
 123549395.495 6  96272186.314 6  23510634.602                    23510644.164
 125257137.669 7  97602963.58943  23835630.398                    23835640.898
 121629852.659 7  94776525.40244  23145396.094                    23145402.301
 117489819.260 7  91550556.57945  22357566.164                    22357572.691
 113717691.453 7  88611132.92145  21639732.406                    21639740.375
 121315031.922 7  94531209.96444  23085491.656                    23085501.227
 11  8 20 18 19 30.0000000  0 10G24G01G08G07G17G26G19G28G11G13
 119206358.313 7  92887948.11544  22684170.414                    22684180.633
 119475649.637 7  93097806.396 7  22735413.086                    22735425.520
 109032019.250 8  84960053.94646  20748099.211                    20748106.582
 106733883.544 8  83169291.239 8  20310782.750                    20310789.836
 123454256.066 7  96198051.787 6  23492530.063                    23492539.828
 125180633.803 6  97543350.22743  23821073.000                    23821082.301
 121727407.211 6  94852541.88744  23163959.352                    23163966.531
 117462597.901 7  91529345.14645  22352386.297                    22352393.289
 113694373.581 7  88592963.17045  21635294.953                    21635302.742
 121423694.042 7  94615881.57844  23106170.016                    23106178.676
 11  8 20 18 20  0.0000000  0 10G24G01G08G07G17G26G19G28G11G13
 119149515.371 7  92843654.98444  22673353.211                    22673364.047
 119412811.671 7  93048841.800 7  22723455.039                    22723467.309
 108977492.292 8  84917565.42046  20737722.758                    20737730.398
 106732294.573 8  83168053.068 8  20310480.547                    20310487.441
 123359334.982 7  96124087.409 6  23474467.281                    23474476.852
 125104581.276 6  97484088.57243  23806599.891                    23806609.738
 121825173.990 6  94928723.71544  23182564.070                    23182571.105
 117435457.046 7  91508196.44845  22347221.539                    22347228.273
 113671582.493 7  88575203.91245  21630957.922                    21630965.867
 121532476.075 7  94700646.65044  23126870.109                    23126879.758
 11  8 20 18 20 30.0000000  0 10G24G01G08G07G17G26G19G28G11G13
 119092984.617 7  92799605.07544  22662595.883                    22662606.160
 119350268.358 7  93000106.793 7  22711553.594                    22711565.320
 108923244.600 8  84875294.50246  20727400.180                    20727407.504
 106731134.349 8  83167148.987 8  20310259.727                    20310266.613
 123264633.846 7  96050294.417 6  23456446.273                    23456455.875
 125028982.843 6  97425180.75943  23792214.438                    23792223.398
 121923149.800 6  95005068.46644  23201208.922                    23201215.414
 117408395.507 7  91487109.56545  22342071.148                    22342079.230
 113649319.737 7  88557856.32045  21626721.836                    21626729.117
 121641374.987 7  94785502.80343  23147593.266                    23147602.371
 11  8 20 18 21  0.0000000  0 10G24G01G08G07G17G26G19G28G11G13
 119036769.167 7  92755800.88644  22651898.773                    22651909.402
 119288022.640 7  92951603.678 7  22699709.000                    22699720.453
 108869278.666 8  84833243.13846  20717131.094                    20717138.191
 106730404.455 8  83166580.232 8  20310121.250                    20310127.527
 123170154.768 7  95976674.447 6  23438467.102                    23438476.805
 124953840.766 6  97366628.53843  23777915.430                    23777924.855
 122021332.100 7  95081574.09244  23219892.500                    23219899.164
 117381412.862 7  91466084.14245  22336936.805                    22336944.098
 113627586.973 7  88540921.71545  21622585.719                    21622593.477
 121750387.751 7  94870447.64243  23168337.469                    23168347.801
 11  8 20 18 21 30.0000000  0 10G24G01G08G07G17G26G19G28G11G13
 118980871.722 6  92712244.49944  22641261.313                    22641272.031
 119226077.616 7  92903334.870 7  22687920.648                    22687933.234
 108815596.993 8  84791413.28046  20706915.758                    20706922.973
 106730106.639 8  83166348.163 8  20310064.039                    20310071.090
 123075899.189 7  95903228.641 6  23420530.711                    23420540.285
 124879157.732 6  97308434.05243  23763703.156                    23763713.551
 122119718.285 7  95158238.61344  23238614.117                    23238621.012
 117354508.374 7  91445119.63045  22331816.992                    22331824.461
 113606386.340 7  88524401.76445  21618551.242                    21618559.227
 121859511.264 7  94955478.81144  23189103.234                    23189113.242
 11  8 20 18 22  0.0000000  0 10G24G01G08G07G17G26G19G28G11G13
 118925295.394 6  92668938.36244  22630685.609                    22630696.504
 119164436.064 7  92855302.536 7  22676190.500                    22676203.465
 108762202.105 8  84749806.88946  20696754.891                    20696762.141
 106730241.991 8  83166453.615 8  20310090.195                    20310096.926
 122981869.331 7  95829958.702 6  23402637.750                    23402646.672
 124804935.943 6  97250598.90143  23749579.023                    23749589.730
 122218305.619 7  95235059.83044  23257375.242                    23257381.227
 117327681.335 7  91424215.45745  22326712.352                    22326719.250
 113585718.414 7  88508296.91545  21614618.922                    21614626.398
 121968742.716 7  95040594.05943  23209889.789                    23209898.824
 11  8 20 18 22 30.0000000  0 10G24G01G08G07G17G26G19G28G11G13
 118870042.756 7  92625884.39944  22620171.945                    22620181.934
 119103100.769 7  92807508.838 7  22664519.508                    22664531.277
 108709096.422 8  84708425.84446  20686648.961                    20686656.281
 106730811.565 8  83166897.415 8  20310198.422                    20310205.512
 122888066.744 7  95756865.860 6  23384787.328                    23384797.047
 124731177.786 6  97193125.10843  23735543.859                    23735553.301
 122317091.199 7  95312035.51844  23276172.805                    23276178.477
 117300930.732 7  91403370.85445  22321621.797                    22321629.168
 113565585.271 7  88492608.76645  21610787.211                    21610794.938
 122078078.512 7  95125790.62443  23230695.641                    23230705.430
 11  8 20 18 23  0.0000000  0 10G24G01G08G07G17G26G19G28G11G13
 118815117.118 7  92583085.24844  22609719.477                    22609730.508
 119042074.971 7  92759956.311 7  22652906.086                    22652918.117
 108656282.388 8  84667272.05446  20676598.898                    20676605.953
 106731817.240 8  83167681.040 8  20310389.656                    20310396.707
 122794493.311 7  95683951.593 6  23366980.414                    23366990.629
 124657885.866 6  97136014.60943  23721595.492                    23721606.586
 122416072.500 7  95389163.71844  23295009.148                    23295014.711
 117274255.271 7  91382584.80145  22316545.336                    22316552.922
 113545988.178 7  88477338.33045  21607057.930                    21607065.730
 122187516.342 7  95211066.69543  23251521.125                    23251530.652
 11  8 20 18 23 30.0000000  0 10G24G01G08G07G17G26G19G28G11G13
 118760521.151 7  92540543.00244  22599329.742                    22599340.465
 118981361.197 7  92712646.933 7  22641351.523                    22641364.652
 108603762.446 8  84626347.44146  20666604.258                    20666611.859
 106733259.953 8  83168805.221 8  20310664.078                    20310670.984
 122701150.601 6  95611217.117 6  23349217.766                    23349228.059
 124585062.420 6  97079269.11543  23707738.383                    23707748.465
 122515246.398 6  95466442.05044  23313880.656                    23313887.461
 117247654.332 7  91361856.82145  22311483.211                    22311490.344
 113526928.922 8  88462486.97245  21603431.180                    21603438.828
 122297052.700 7  95296419.53343  23272364.945                    23272374.441
 11  8 20 18 24  0.0000000  0 10G24G01G08G07G17G26G19G28G11G13
 118706257.572 7  92498259.72844  22589003.586                    22589014.152
 118920962.632 7  92665583.132 7  22629859.359                    22629870.645
 108551539.480 8  84585654.24446  20656666.656                    20656674.434
 106735141.070 8  83170271.003 8  20311022.086                    20311029.145
 122608040.949 7  95538664.224 6  23331499.109                    23331509.617
 124512709.844 6  97022890.52343  23693969.594                    23693980.273
 122614610.478 6  95543868.53744  23332789.828                    23332795.504
 117221127.511 7  91341186.59345  22306435.523                    22306442.719
 113508408.490 7  88448055.48445  21599906.828                    21599914.586
 122406684.415 7  95381846.68043  23293227.328                    23293237.719
 11  8 20 18 24 30.0000000  0 10G24G01G08G07G17G26G19G28G11G13
 118652329.479 7  92456237.87944  22578742.047                    22578752.496
 118860882.398 7  92618767.392 7  22618425.719                    22618438.086
 108499615.788 8  84545194.23846  20646786.211                    20646793.531
 106737462.031 7  83172079.524 8  20311464.359                    20311471.035
 122515165.714 7  95466293.990 6  23313826.078                    23313835.980
 124440830.691 6  96966880.83843  23680292.422                    23680302.258
 122714161.806 6  95621440.95044  23351733.156                    23351739.809
 117194674.022 7  91320573.50745  22301401.805                    22301408.613
 113490428.512 8  88434045.12145  21596485.367                    21596493.066
 122516408.999 7  95467346.19344  23314107.680                    23314117.230
 11  8 20 18 25  0.0000000  0 10G24G01G08G07G17G26G19G28G11G13
 118598739.647 7  92414479.61644  22568544.469                    22568554.586
 118801122.973 7  92572201.658 7  22607054.883                    22607066.621
 108447993.598 8  84504969.15746  20636962.867                    20636970.195
 106740223.775 8  83174231.517 8  20311989.461                    20311996.730
 122422526.547 7  95394107.689 6  23296197.719                    23296207.352
 124369427.043 6  96911241.68443  23666704.336                    23666713.984
 122813897.634 6  95699157.11344  23370712.664                    23370719.941
 117168292.374 7  91300016.40745  22296381.563                    22296388.578
 113472990.101 8  88420456.76045  21593167.211                    21593174.344
 122626223.098 7  95552915.45243  23335004.852                    23335014.164
 11  8 20 18 25 30.0000000  0 10G24G01G08G07G17G26G19G28G11G13
 118545490.902 7  92372987.12844  22558411.617                    22558421.191
 118741687.402 7  92525888.244 7  22595744.164                    22595756.461
 108396676.087 8  84464981.48846  20627197.305                    20627204.797
 106743428.001 8  83176728.299 8  20312599.281                    20312606.570
 122330125.344 7  95322106.847 6  23278613.891                    23278623.711
 124298501.257 6  96855974.87143  23653207.281                    23653217.203
 122913815.513 6  95777015.13344  23389725.391                    23389733.234
 117141982.375 7  91279515.11445  22291374.797                    22291381.941
 113456095.039 8  88407291.79145  21589951.953                    21589959.660
 122736123.611 7  95638552.04343  23355918.047                    23355928.035
 11  8 20 18 26  0.0000000  0 10G24G01G08G07G17G26G19G28G11G13
 118492586.087 7  92331762.62844  22548344.023                    22548354.066
 118682578.678 7  92479829.527 7  22584496.211                    22584508.438
 108345665.504 8  84425232.99646  20617490.609                    20617497.918
 106747075.927 8  83179570.816 8  20313293.875                    20313300.445
 122237964.000 7  95250292.889 6  23261076.172                    23261085.996
 124228055.973 7  96801082.47043  23639801.648                    23639811.988
 123013912.499 7  95855012.74644  23408774.273                    23408780.883
 117115743.081 7  91259068.94045  22286381.563                    22286388.691
 113439744.626 8  88394551.21945  21586840.758                    21586848.199
 122846108.021 7  95724253.97143  23376847.805                    23376857.887
 11  8 20 18 26 30.0000000  0 10G24G01G08G07G17G26G19G28G11G13
 118440027.875 7  92290808.22344  22538341.672                    22538352.230
 118623799.434 7  92434027.535 7  22573310.484                    22573323.574
 108294963.902 8  84385725.26046  20607842.500                    20607849.801
 106751168.434 8  83182759.774 8  20314072.000                    20314079.418
 122146043.999 7  95178666.983 6  23243584.641                    23243594.234
 124158093.184 7  96746566.02543  23626488.164                    23626498.219
 123114185.628 7  95933147.59544  23427855.695                    23427862.316
 117089573.334 7  91238676.95445  22281401.844                    22281408.355
 113423939.897 8  88382235.86645  21583833.500                    21583840.555
 122956172.712 6  95810018.48943  23397792.055                    23397802.359
 11  8 20 18 27  0.0000000  0 10G24G01G08G07G17G26G19G28G11G13
 118387819.083 7  92250126.08044  22528407.461                    22528416.645
 118565352.423 6  92388484.437 7  22562188.211                    22562200.992
 108244574.143 8  84346460.52146  20598253.594                    20598260.793
 106755706.663 8  83186296.038 8  20314936.094                    20314943.238
 122054366.960 7  95107230.417 6  23226138.500                    23226148.098
 124088615.132 6  96692427.32943  23613268.539                    23613276.754
 123214632.272 7  96011417.64644  23446970.055                    23446977.070
 117063472.392 7  91218338.57645  22276434.695                    22276441.789
 113408682.102 8  88370346.69945  21580929.344                    21580937.355
 123066314.861 7  95895843.33643  23418751.516                    23418761.625
 11  8 20 18 27 30.0000000  0 10G24G01G08G07G17G26G19G28G11G13
 118335962.448 7  92209718.30744  22518538.602                    22518549.047
 118507240.386 7  92343202.346 7  22551130.680                    22551142.727
 108194498.554 8  84307440.58746  20588724.258                    20588731.453
 106760691.703 8  83190180.483 8  20315884.344                    20315891.480
 121962934.669 7  95035984.557 6  23208740.117                    23208749.199
 124019624.011 7  96638668.02443  23600138.594                    23600147.918
 123315249.962 7  96089820.99644  23466117.109                    23466123.766
 117037439.624 7  91198053.31045  22271480.664                    22271488.020
 113393972.391 8  88358884.59145  21578130.008                    21578137.840
 123176531.191 7  95981726.01743  23439725.375                    23439734.977
 11  8 20 18 28  0.0000000  0 10G24G01G08G07G17G26G19G28G11G13
 118284461.005 7  92169587.36744  22508738.359                    22508748.734
 118449466.527 7  92298183.777 7  22540136.500                    22540148.484
 108144739.834 8  84268667.56746  20579255.734                    20579263.078
 106766125.228 8  83194414.378 8  20316918.664                    20316925.406
 121871748.992 7  94964930.862 6  23191387.492                    23191397.281
 123951122.229 7  96585290.05143  23587103.367                    23587112.109
 123416035.932 7  96168355.44144  23485295.875                    23485303.355
 117011474.278 7  91177820.59545  22266539.398                    22266547.051
 113379812.195 8  88347850.70545  21575435.477                    21575443.215
 123286819.300 6  96067664.61543  23460712.477                    23460722.160
 11  8 20 18 28 30.0000000  0 10G24G01G08G07G17G26G19G28G11G13
 118233317.720 6  92129735.47444  22499006.469                    22499016.594
 118392033.713 7  92253430.963 7  22529207.703                    22529219.074
 108095300.710 8  84230143.57946  20569847.352                    20569854.914
 106772008.711 8  83198998.906 8  20318038.133                    20318045.211
 121780811.872 7  94894070.883 6  23174083.242                    23174092.586
 123883112.189 7  96532295.26243  23574161.625                    23574169.598
 123516987.403 7  96247018.84544  23504506.477                    23504513.539
 116985575.957 7  91157640.09845  22261611.367                    22261618.598
 113366203.108 8  88337246.22445  21572846.555                    21572853.605
 123397176.036 7  96153656.68143  23481713.625                    23481723.277
 11  8 20 18 29  0.0000000  0 10G24G01G08G07G17G26G19G28G11G13
 118182535.035 6  92090164.56244  22489343.242                    22489353.016
 118334944.856 6  92208946.154 7  22518343.203                    22518355.156
 108046183.592 8  84191870.50346  20560501.000                    20560508.449
 106778342.789 8  83203934.542 8  20319243.055                    20319250.555
 121690124.685 7  94823405.635 6  23156825.320                    23156834.695
 123815596.052 7  96479685.29943  23561313.656                    23561322.508
 123618101.897 7  96325809.27344  23523747.891                    23523755.320
 116959743.645 7  91137511.03445  22256695.875                    22256703.258
 113353146.108 8  88327071.95445  21570361.375                    21570368.766
 123507597.891 7  96239699.49643  23502725.461                    23502735.852
 11  8 20 18 29 30.0000000  0 10G24G01G08G07G17G26G19G28G11G13
 118132115.493 7  92050876.63944  22479748.539                    22479758.109
 118278202.398 7  92164731.272 7  22507545.234                    22507557.992
 107997390.457 8  84153849.88146  20551215.828                    20551223.340
 106785128.410 8  83209222.016 8  20320534.570                    20320541.754
 121599689.021 7  94752936.346 6  23139616.648                    23139625.254
 123748575.591 7  96427461.63343  23548560.086                    23548569.527
 123719376.583 7  96404724.52744  23543019.852                    23543027.047
 116933976.476 7  91117432.75445  22251792.188                    22251799.805
 113340642.246 8  88317328.71245  21567982.078                    21567989.496
 123618082.136 7  96325790.91243  23523751.070                    23523760.664
 11  8 20 18 30  0.0000000  0 10G24G01G08G07G17G26G19G28G11G13
 118082062.087 7  92011874.00044  22470223.336                    22470233.207
 118221809.181 7  92120788.531 7  22496814.539                    22496825.984
 107948924.404 8  84116084.14146  20541993.172                    20542000.445
 106792367.081 8  83214862.524 8  20321912.078                    20321919.445
 121509506.512 7  94682664.347 6  23122454.750                    23122464.039
 123682053.381 6  96375626.18243  23535901.375                    23535910.633
 123820808.870 7  96483762.59744  23562322.172                    23562329.520
 116908273.641 7  91097404.58745  22246901.227                    22246908.293
 113328692.607 8  88308017.31245  21565707.875                    21565715.176
 123728626.105 6  96411928.87043  23544786.945                    23544796.707
 11  8 20 18 30 30.0000000  0 10G24G01G08G07G17G26G19G28G11G13
 118032377.249 6  91973158.55544  22460768.797                    22460778.094
 118165768.064 7  92077120.162 7  22486151.055                    22486161.867
 107900787.336 8  84078574.73646  20532833.305                    20532840.316
 106800059.271 8  83220856.419 8  20323376.008                    20323382.879
 121419578.911 7  94612590.985 6  23105342.125                    23105351.746
 123616031.179 6  96324180.36043  23523337.781                    23523348.082
 123922395.817 7  96562921.18444  23581653.680                    23581661.125
 116882634.149 7  91077425.77345  22242022.570                    22242029.391
 113317298.261 8  88299138.61545  21563539.875                    21563546.793
 123839226.546 6  96498110.82443  23565833.422                    23565843.797
 11  8 20 18 31  0.0000000  0 10G24G01G08G07G17G26G19G28G11G13
 117983064.441 7  91934733.00944  22451385.508                    22451395.320
 118110082.140 7  92033728.571 7  22475553.703                    22475564.871
 107852982.515 8  84041324.22946  20523736.063                    20523743.398
 106808207.061 8  83227205.324 8  20324926.602                    20324933.566
 121329908.106 7  94542717.711 6  23088278.781                    23088287.910
 123550511.642 6  96273126.23043  23510870.203                    23510879.414
 124024135.048 7  96642198.46444  23601014.031                    23601021.750
 116857057.647 7  91057496.05845  22237154.977                    22237162.180
 113306460.685 8  88290693.74745  21561477.602                    21561484.855
 123949880.668 6  96584334.59943  23586889.969                    23586900.402
 11  8 20 18 31 30.0000000  0 10G24G01G08G07G17G26G19G28G11G13
 117934126.152 7  91896599.29744  22442071.563                    22442082.535
 118054753.970 7  91990615.745 7  22465024.742                    22465036.781
 107805512.527 8  84004334.63546  20514702.906                    20514710.484
 106816811.271 8  83233909.883 8  20326563.758                    20326570.805
 121240495.652 7  94473045.758 6  23071263.750                    23071273.363
 123485496.973 6  96222465.45743  23498497.836                    23498507.773
 124126023.917 7  96721592.33944  23620402.711                    23620410.500
 116831543.526 7  91037614.94145  22232300.219                    22232307.375
 113296180.821 8  88282683.46645  21559521.094                    21559528.773
 124060585.629 6  96670598.00943  23607956.305                    23607966.926
 11  8 20 18 32  0.0000000  0 10G24G01G08G07G17G26G19G28G11G13
 117885564.892 7  91858759.40144  22432831.094                    22432841.926
 117999786.627 7  91947784.088 7  22454564.367                    22454576.223
 107758379.380 8  83967607.51746  20505733.336                    20505741.195
 106825872.826 8  83240970.811 8  20328288.398                    20328295.410
 121151343.386 7  94403576.535 6  23054298.375                    23054307.875
 123420989.085 7  96172199.62543  23486222.359                    23486232.453
 124228059.505 7  96801100.57144  23639819.570                    23639826.551
 116806091.077 7  91017781.88545  22227456.195                    22227463.840
 113286459.646 8  88275108.54145  21557671.219                    21557678.531
 124171338.459 6  96756898.69743  23629032.492                    23629042.656
 11  8 20 18 32 30.0000000  0 10G24G01G08G07G17G26G19G28G11G13
 117837383.065 7  91821215.14944  22423661.758                    22423672.375
 117945182.497 7  91905235.470 7  22444174.008                    22444186.105
 107711585.564 8  83931144.80746  20496828.953                    20496836.020
 106835392.773 8  83248388.929 8  20330099.922                    20330107.027
 121062452.627 7  94334311.078 7  23037382.547                    23037392.508
 123356989.771 6  96122330.08443  23474043.531                    23474053.184
 124330239.736 7  96880721.49144  23659264.328                    23659271.320
 116780699.094 7  90997995.92945  22222624.523                    22222632.133
 113277298.157 8  88267969.71545  21555928.047                    21555935.207
 124282135.872 6  96843234.10943  23650116.086                    23650127.012
 11  8 20 18 33  0.0000000  0 10G24G01G08G07G17G26G19G28G11G13
 117789583.699 7  91783968.93644  22414566.563                    22414576.867
 117890944.214 7  91862971.918 7  22433852.727                    22433864.902
 107665133.649 8  83894948.51646  20487989.227                    20487996.832
 106845372.174 8  83256165.069 8  20331998.844                    20332005.977
 120973825.345 7  94265250.952 7  23020517.648                    23020527.117
 123293501.535 6  96072858.79343  23461961.977                    23461971.551
 124432561.530 7  96960452.68844  23678734.992                    23678742.258
 116755366.967 7  90978256.64245  22217803.438                    22217810.957
 113268697.182 7  88261267.67545  21554291.375                    21554298.324
 124392974.974 7  96929602.02643  23671209.508                    23671219.609
 11  8 20 18 33 30.0000000  0 10G24G01G08G07G17G26G19G28G11G13
 117742169.103 7  91747022.52844  22405543.688                    22405553.754
 117837074.305 7  91820995.405 7  22423601.773                    22423613.055
 107619025.655 8  83859020.21246  20479215.359                    20479222.641
 106855811.555 8  83264299.639 8  20333985.313                    20333992.375
 120885462.572 7  94196396.924 7  23003703.070                    23003712.246
 123230525.940 6  96023786.96643  23449977.680                    23449987.641
 124535022.207 6  97040292.12044  23698233.055                    23698239.844
 116730093.761 7  90958563.23945  22212994.852                    22213001.891
 113260657.587 8  88255003.06045  21552760.750                    21552769.086
 124503852.583 6  97015999.95043  23692308.719                    23692318.730
 11  8 20 18 34  0.0000000  0 10G24G01G08G07G17G26G19G28G11G13
 117695142.083 7  91710378.13244  22396595.367                    22396605.137
 117783575.496 7  91779308.065 7  22413420.844                    22413432.977
 107573264.253 8  83823361.96946  20470507.289                    20470514.598
 106866712.354 8  83272793.752 7  20336059.695                    20336066.520
 120797366.129 7  94127750.431 7  22986938.945                    22986947.953
 123168065.063 6  95975116.21043  23438092.656                    23438102.051
 124637619.257 6  97120237.81144  23717756.313                    23717763.930
 116704879.176 7  90938915.52445  22208196.266                    22208203.672
 113253180.521 8  88249176.79645  21551338.289                    21551346.125
 124614765.673 6  97102425.52243  23713414.695                    23713424.758
 11  8 20 18 34 30.0000000  0 10G24G01G08G07G17G26G19G28G11G13
 117648505.302 7  91674037.80644  22387720.305                    22387730.500
 117730450.836 7  91737912.275 7  22403311.633                    22403323.852
 107527852.163 8  83787975.92546  20461865.703                    20461872.398
 106878075.417 8  83281648.069 8  20338221.875                    20338228.859
 120709537.416 7  94059312.557 6  22970225.469                    22970234.660
 123106120.919 7  95926848.07043  23426304.789                    23426313.844
 124740349.891 6  97200287.57044  23737305.016                    23737312.609
 116679721.993 7  90919312.53745  22203408.859                    22203416.656
 113246266.952 8  88243789.61545  21550022.695                    21550030.551
 124725711.783 7  97188876.82243  23734527.289                    23734537.320
 11  8 20 18 35  0.0000000  0 10G24G01G08G07G17G26G19G28G11G13
 117602261.521 6  91638003.76044  22378920.258                    22378930.105
 117677702.853 7  91696810.000 7  22393274.508                    22393285.684
 107482792.108 8  83752864.20646  20453290.883                    20453298.137
 106889901.615 7  83290863.285 8  20340472.492                    20340479.434
 120621978.333 7  93991084.768 6  22953562.797                    22953572.656
 123044695.823 7  95878984.43343  23414615.578                    23414624.754
 124843211.605 6  97280439.46044  23756879.906                    23756886.680
 116654621.838 7  90899753.99045  22198632.953                    22198639.648
 113239917.665 8  88238842.13145  21548814.445                    21548822.414
 124836687.846 6  97275351.48743  23755645.672                    23755655.836
 11  8 20 18 35 30.0000000  0 10G24G01G08G07G17G26G19G28G11G13
 117556413.324 7  91602277.93844  22370195.359                    22370205.242
 117625334.573 7  91656003.598 7  22383308.398                    22383320.273
 107438086.247 8  83718028.47746  20444783.938                    20444791.379
 106902192.329 8  83300440.441 8  20342811.281                    20342818.344
 120534690.280 7  93923068.163 7  22936952.984                    22936962.223
 122983791.611 6  95831526.63643  23403026.203                    23403034.707
 124946201.797 6  97360691.48444  23776477.789                    23776485.820
 116629578.106 7  90880239.40945  22193867.367                    22193874.656
 113234133.878 8  88234335.30245  21547713.930                    21547721.547
 124947690.964 6  97361847.17243  23776768.445                    23776779.570
 11  8 20 18 36  0.0000000  0 10G24G01G08G07G17G26G19G28G11G13
 117510963.325 7  91566862.40444  22361546.922                    22361556.531
 117573348.214 7  91615494.820 7  22373415.750                    22373427.445
 107393737.380 8  83683470.92246  20436344.125                    20436351.707
 106914948.294 8  83310380.141 8  20345239.219                    20345246.055
 120447674.992 7  93855264.100 6  22920394.438                    22920403.480
 122923410.350 6  95784476.34543  23391535.758                    23391544.879
 125049318.100 6  97441041.77944  23796100.719                    23796107.508
 116604590.134 7  90860768.28745  22189111.984                    22189119.387
 113228916.184 8  88230269.57645  21546720.930                    21546728.609
 125058718.200 6  97448361.67243  23797896.453                    23797907.117
 11  8 20 18 36 30.0000000  0 10G24G01G08G07G17G26G19G28G11G13
 117465914.210 7  91531759.26044  22352973.594                    22352983.699
 117521747.030 7  91575286.167 7  22363596.391                    22363608.340
 107349748.119 8  83649193.57446  20427973.813                    20427980.734
 106928170.868 8  83320683.444 8  20347754.969                    20347762.070
 120360934.244 7  93787673.953 6  22903887.891                    22903897.527
 122863553.859 7  95737834.97443  23380145.398                    23380154.863
 125152558.018 6  97521488.40144  23815745.969                    23815753.773
 116579657.368 7  90841340.17645  22184367.820                    22184374.957
 113224265.476 8  88226645.64845  21545835.914                    21545843.406
 125169767.009 6  97534892.99843  23819028.984                    23819039.887
 11  8 20 18 37  0.0000000  0 10G24G01G08G07G17G26G19G28G11G13
 117421268.483 7  91496970.44344  22344477.773                    22344488.031
 117470533.597 7  91535379.633 7  22353851.297                    22353863.055
 107306120.950 8  83615198.37246  20419672.102                    20419679.316
 106941860.767 8  83331350.876 8  20350359.969                    20350367.148
 120274469.341 7  93720298.772 7  22887434.383                    22887444.055
 122804224.317 7  95691604.19644  23368855.008                    23368864.391
 125255918.842 7  97602029.23544  23835415.383                    23835422.238
 116554779.156 7  90821954.56445  22179633.133                    22179640.441
 113220182.682 8  88223464.26045  21545058.836                    21545066.508
 125280834.284 6  97621438.68043  23840163.781                    23840174.539
 11  8 20 18 37 30.0000000  0 10G24G01G08G07G17G26G19G28G11G13
 117377028.458 7  91462497.76144  22336059.188                    22336069.523
 117419710.124 7  91495776.996 7  22344179.617                    22344191.371
 107262857.957 8  83581486.95646  20411438.539                    20411446.203
 106956018.507 8  83342382.867 7  20353053.992                    20353061.297
 120188281.654 7  93653139.615 7  22871033.406                    22871042.656
 122745423.438 6  95645785.37743  23357665.664                    23357675.605
 125359397.732 6  97682662.09244  23855107.195                    23855112.938
 116529954.312 7  90802610.55145  22174909.313                    22174916.367
 113216668.403 8  88220725.87745  21544389.469                    21544397.730
 125391916.819 6  97707996.26643  23861302.680                    23861313.473
 11  8 20 18 38  0.0000000  0 10G24G01G08G07G17G26G19G28G11G13
 117333196.868 7  91428343.33144  22327718.313                    22327728.543
 117369279.425 7  91456480.426 7  22334582.992                    22334595.121
 107219961.892 8  83548061.46446  20403275.664                    20403283.090
 106970645.168 8  83353780.250 8  20355837.352                    20355844.184
 120102372.939 7  93586197.826 6  22854685.773                    22854694.555
 122687153.138 6  95600379.98543  23346577.008                    23346587.074
 125462992.485 6  97763385.21244  23874820.727                    23874827.699
 116505182.440 8  90783307.79745  22170195.422                    22170202.500
 113213723.282 7  88218430.98945  21543829.641                    21543837.199
 125503011.750 6  97794563.51543  23882442.320                    23882454.473
 11  8 20 18 38 30.0000000  0 10G24G01G08G07G17G26G19G28G11G13
 117289776.222 7  91394509.12245  22319456.133                    22319466.059
 117319243.890 7  91417491.746 7  22325061.141                    22325073.246
 107177434.693 8  83514923.36946  20395183.414                    20395190.605
 106985741.000 7  83365543.223 8  20358710.047                    20358716.977
 120016744.468 7  93519474.419 6  22838391.000                    22838399.555
 122629414.812 6  95555389.10143  23335590.359                    23335599.422
 125566700.036 6  97844196.23544  23894555.117                    23894561.809
 116480462.793 8  90764045.75245  22165491.523                    22165498.391
 113211348.049 7  88216580.17445  21543377.703                    21543385.520
 125614116.113 6  97881138.14143  23903586.594                    23903597.066
 11  8 20 18 39  0.0000000  0 10G24G01G08G07G17G26G19G28G11G13
 117246769.021 7  91360997.07345  22311272.172                    22311281.418
 117269606.015 7  91378812.927 7  22315615.203                    22315627.781
 107135279.287 8  83482074.99246  20387161.734                    20387168.809
 107001307.315 7  83377672.796 8  20361672.531                    20361679.414
 119931398.081 7  93452970.815 6  22822149.859                    22822158.551
 122572210.481 6  95510814.31043  23324705.047                    23324714.340
 125670518.280 6  97925093.48644  23914311.445                    23914318.891
 116455794.534 8  90744823.75445  22160796.914                    22160804.207
 113209543.174 7  88215173.79045  21543034.383                    21543041.977
 125725227.318 6  97967718.08543  23924729.867                    23924741.160
 11  8 20 18 39 30.0000000  0 10G24G01G08G07G17G26G19G28G11G13
 117204177.549 7  91327808.95644  22303166.875                    22303177.004
 117220368.705 7  91340446.260 7  22306246.156                    22306257.914
 107093497.965 8  83449518.11846  20379210.422                    20379218.242
 107017344.922 8  83390169.605 8  20364724.406                    20364731.477
 119846334.925 7  93386687.911 6  22805962.766                    22805971.871
 122515542.192 6  95466657.24243  23313921.680                    23313929.957
 125774444.588 6  98006074.93644  23934088.250                    23934094.734
 116431177.269 8  90725641.47345  22156112.438                    22156119.289
 113208309.706 8  88214212.66445  21542799.688                    21542807.242
 125836342.303 6  98054300.97443  23945873.766                    23945885.844
 11  8 20 18 40  0.0000000  0 10G24G01G08G07G17G26G19G28G11G13
 117162004.529 7  91294946.91844  22295141.523                    22295151.227
 117171534.622 7  91302393.762 7  22296953.508                    22296965.043
 107052092.898 8  83417254.42446  20371331.875                    20371339.078
 107033854.806 8  83403034.430 8  20367865.914                    20367872.836
 119761556.492 7  93320626.878 7  22789829.938                    22789839.102
 122459411.685 6  95422919.22843  23303239.617                    23303248.652
 125878476.251 6  98087138.47943  23953884.289                    23953891.605
 116406610.201 8  90706498.32345  22151437.672                    22151444.164
 113207648.272 8  88213697.27345  21542673.813                    21542680.863
 125947458.252 6  98140884.60543  23967019.602                    23967030.953
 11  8 20 18 40 30.0000000  0 10G24G01G08G07G17G26G19G28G11G13
 117120252.279 7  91262412.77544  22287196.383                    22287206.527
 117123106.186 7  91264657.370 7  22287737.102                    22287749.270
 107011067.060 8  83385286.23646  20363524.359                    20363532.152
 107050837.609 8  83416267.767 8  20371097.805                    20371105.020
 119677064.419 7  93254788.993 7  22773752.016                    22773761.305
 122403820.796 6  95379601.66043  23292661.102                    23292669.863
 125982611.198 6  98168282.54143  23973700.094                    23973707.555
 116382092.877 8  90687393.91945  22146772.484                    22146778.891
 113207559.429 8  88213628.05645  21542657.070                    21542664.297
 126058572.091 6  98227466.57943  23988164.266                    23988175.121
 11  8 20 18 41  0.0000000  0 10G24G01G08G07G17G26G19G28G11G13
 117078923.537 7  91230208.61144  22279331.281                    22279340.957
 117075086.088 7  91227239.159 7  22278599.406                    22278611.344
 106970423.073 8  83353615.60146  20355790.172                    20355797.480
 107068294.651 8  83429870.615 8  20374419.641                    20374427.133
 119592860.577 7  93189175.692 6  22757727.938                    22757736.996
 122348771.354 7  95336706.04444  23282185.797                    23282194.797
 126086846.819 6  98249505.05143  23993535.188                    23993543.113
 116357624.891 8  90668327.96545  22142116.047                    22142123.254
 113208043.986 8  88214005.64545  21542749.164                    21542756.164
 126169681.580 6  98314045.15743  24009307.203                    24009318.266
 11  8 20 18 41 30.0000000  0 10G24G01G08G07G17G26G19G28G11G13
 117038020.627 7  91198336.28444  22271547.320                    22271557.840
 117027476.863 7  91190141.095 7  22269539.828                    22269551.195
 106930163.240 8  83322244.30046  20348129.211                    20348136.426
 107086226.058 8  83443843.114 8  20377831.828                    20377839.109
 119508946.089 7  93123787.842 6  22741760.211                    22741768.219
 122294265.019 6  95294233.59843  23271812.773                    23271822.840
 126191180.454 6  98330803.88843  24013389.703                    24013397.316
 116333205.430 7  90649299.81345  22137468.852                    22137475.734
 113209102.341 8  88214830.35645  21542950.508                    21542957.836
 126280783.523 6  98400617.85943  24030450.078                    24030461.324
 11  8 20 18 42  0.0000000  0 10G24G01G08G07G17G26G19G28G11G13
 116997545.756 7  91166797.44744  22263846.070                    22263855.664
 116980280.558 7  91153364.787 7  22260558.555                    22260571.141
 106890289.621 8  83291173.93646  20340541.344                    20340548.957
 107104632.406 8  83458185.708 8  20381334.711                    20381341.781
 119425321.978 7  93058626.275 7  22725846.227                    22725855.559
 122240303.280 6  95252185.51743  23261545.016                    23261554.027
 126295609.588 6  98412177.13444  24033262.367                    24033269.352
 116308833.521 7  90630308.72545  22132831.109                    22132838.410
 113210734.607 7  88216102.26645  21543261.156                    21543267.848
 126391874.956 6  98487182.38943  24051590.094                    24051601.078
 11  8 20 18 42 30.0000000  0 10G24G01G08G07G17G26G19G28G11G13
 116957501.579 7  91135594.24144  22256225.836                    22256235.477
 116933499.868 7  91116912.344 7  22251656.211                    22251668.516
 106850804.785 8  83260406.53346  20333028.070                    20333035.109
 107123514.672 8  83472899.135 8  20384927.828                    20384934.992
 119341990.178 7  92993692.485 7  22709989.070                    22709998.262
 122186887.856 6  95210563.12643  23251378.992                    23251389.047
 126400131.500 7  98493622.71944  24053152.016                    24053158.855
 116284508.661 7  90611354.31045  22128201.992                    22128209.453
 113212941.709 8  88217822.10245  21543681.297                    21543687.539
 126502952.980 6  98573736.45343  24072727.016                    24072738.449
 11  8 20 18 43  0.0000000  0 10G24G01G08G07G17G26G19G28G11G13
 116917890.215 7  91104728.27144  22248688.141                    22248697.953
 116887137.326 7  91080785.722 7  22242834.016                    22242845.648
 106811710.978 8  83229943.82946  20325588.258                    20325595.609
 107142873.438 8  83487983.871 8  20388611.523                    20388618.953
 119258951.717 7  92928987.262 7  22694186.680                    22694195.891
 122134020.351 6  95169367.70343  23241319.766                    23241328.930
 126504743.853 7  98575138.76444  24073059.781                    24073066.063
 116260230.286 7  90592436.10345  22123582.422                    22123589.176
 113215723.908 8  88219990.05445  21544210.398                    21544217.805
 126614014.807 6  98660277.88143  24093862.563                    24093873.344
 11  8 20 18 43 30.0000000  0 10G24G01G08G07G17G26G19G28G11G13
 116878714.331 7  91074201.64644  22241233.547                    22241242.938
 116841195.659 7  91044987.040 7  22234091.328                    22234103.172
 106773010.962 8  83199787.96046  20318224.078                    20318231.152
 107162709.554 8  83503440.565 8  20392386.469                    20392393.402
 119176208.276 7  92864511.916 7  22678441.625                    22678450.789
 122081702.638 6  95128600.66943  23231363.977                    23231373.285
 126609444.210 7  98656723.40544  24092984.109                    24092989.426
 116235997.852 7  90573553.71345  22118970.703                    22118978.168
 113219082.048 8  88222606.81145  21544849.406                    21544856.895
 126725057.795 6  98746804.62143  24114992.742                    24115004.082
 11  8 20 18 44  0.0000000  0 10G24G01G08G07G17G26G19G28G11G13
 116839976.005 7  91044015.97344  22233861.313                    22233870.938
 116795676.904 7  91009517.912 7  22225429.422                    22225441.207
 106734706.856 8  83169940.59346  20310935.227                    20310942.074
 107183023.566 8  83519269.643 8  20396251.656                    20396259.480
 119093761.055 7  92800267.384 7  22662752.188                    22662761.629
 122029936.102 6  95088263.15043  23221512.492                    23221522.305
 126714230.184 7  98738374.73044  24112923.438                    24112930.066
 116211810.762 7  90554706.64845  22114368.617                    22114375.059
 113223015.978 7  88225672.20745  21545598.422                    21545605.328
 126836079.026 6  98833314.43343  24136119.680                    24136130.137
 11  8 20 18 44 30.0000000  0 10G24G01G08G07G17G26G19G28G11G13
 116801677.856 7  91014173.30244  22226573.469                    22226583.535
 116750584.065 7  90974380.657 7  22216848.375                    22216860.531
 106696801.210 8  83140403.71846  20303721.969                    20303729.027
 107203816.324 8  83535471.766 8  20400208.641                    20400216.195
 119011611.623 7  92736254.905 7  22647119.477                    22647128.910
 121978722.464 6  95048356.46043  23211767.250                    23211776.879
 126819099.317 6  98820090.82443  24132879.094                    24132886.352
 116187668.604 8  90535894.59045  22109774.500                    22109781.059
 113227526.341 8  88229186.77345  21546456.336                    21546463.250
 126947075.680 6  98919805.08043  24157241.750                    24157252.914
 11  8 20 18 45  0.0000000  0 10G24G01G08G07G17G26G19G28G11G13
 116763822.242 7  90984675.45544  22219369.461                    22219379.293
 116705918.882 7  90939576.667 7  22208349.266                    22208360.699
 106659296.251 8  83111179.07446  20296584.938                    20296592.371
 107225088.214 8  83552047.246 8  20404256.516                    20404263.813
 118929761.375 7  92672475.563 7  22631543.844                    22631552.746
 121928063.159 6  95008881.69843  23202127.445                    23202136.754
 126924049.311 6  98901869.96443  24152851.070                    24152858.320
 116163570.490 7  90517116.85445  22105188.852                    22105195.723
 113232613.508 7  88233150.80145  21547424.320                    21547431.945
 127058044.808 6  99006274.27243  24178359.570                    24178370.367
 11  8 20 18 45 30.0000000  0 10G24G01G08G07G17G26G19G28G11G13
 116726411.288 7  90955524.10344  22212250.742                    22212259.922
 116661684.306 7  90905108.202 7  22199931.688                    22199943.039
 106622194.571 8  83082268.67246  20289524.766                    20289532.340
 107246839.747 8  83568996.468 8  20408395.977                    20408403.281
 118848211.600 7  92608930.338 7  22616025.914                    22616034.355
 121877959.911 6  94969840.21043  23192593.258                    23192602.496
 127029077.183 6  98983709.85443  24172835.766                    24172844.520
 116139516.067 8  90498373.17045  22100611.453                    22100618.375
 113238278.008 7  88237564.68945  21548502.453                    21548509.598
 127168983.621 6  99092719.84143  24199470.047                    24199482.125
 11  8 20 18 46  0.0000000  0 10G24G01G08G07G17G26G19G28G11G13
 116689447.285 7  90926721.03544  22205216.555                    22205227.266
 116617882.471 7  90870976.951 7  22191596.102                    22191607.840
 106585498.277 8  83053674.14946  20282541.781                    20282548.934
 107269071.496 8  83586319.899 8  20412626.563                    20412633.762
 118766964.233 7  92545620.755 7  22600564.602                    22600573.570
 121828414.175 6  94931233.18543  23183165.164                    23183173.559
 127134180.707 6  99065608.64343  24192837.492                    24192845.836
 116115504.406 8  90479662.81345  22096042.281                    22096049.223
 113244520.028 8  88242428.60845  21549690.289                    21549697.910
 127279889.284 6  99179139.57043  24220574.891                    24220586.641
 11  8 20 18 46 30.0000000  0 10G24G01G08G07G17G26G19G28G11G13
 116652932.885 7  90898268.29544  22198267.664                    22198277.375
 116574516.215 7  90837185.113 7  22183344.070                    22183355.211
 106549210.582 8  83025398.02546  20275636.508                    20275643.738
 107291784.838 8  83604018.574 8  20416948.734                    20416956.105
 118686019.783 7  92482547.240 7  22585161.477                    22585170.348
 121779427.802 7  94893062.01744  23173843.055                    23173852.156
 127239358.024 6  99147564.86143  24212851.758                    24212860.375
 116091535.742 8  90460985.95245  22091480.781                    22091487.699
 113251340.281 7  88247743.08345  21550987.898                    21550995.848
 127390759.661 6  99265531.82942  24241673.969                    24241684.129
 11  8 20 18 47  0.0000000  0 10G24G01G08G07G17G26G19G28G11G13
 116616869.644 7  90870167.09644  22191405.344                    22191414.512
 116531587.434 7  90803734.151 7  22175174.172                    22175185.926
 106513333.448 8  82997441.81646  20268808.688                    20268815.961
 107314979.431 8  83622092.262 8  20421362.484                    20421369.742
 118605379.751 7  92419710.916 7  22569815.984                    22569824.688
 121731001.900 7  94855327.59244  23164627.016                    23164636.805
 127344606.537 6  99229576.58243  24232881.719                    24232888.594
 116067608.885 8  90442341.64945  22086927.969                    22086934.504
 113258738.662 8  88253508.05145  21552396.656                    21552403.613
 127501591.392 6  99351893.97343  24262763.359                    24262775.297
 11  8 20 18 47 30.0000000  0 10G24G01G08G07G17G26G19G28G11G13
 116581260.048 7  90842419.39844  22184629.008                    22184638.539
 116489098.536 7  90770625.946 7  22167089.063                    22167100.816
 106477868.651 8  82969806.88746  20262060.406                    20262067.945
 107338655.889 8  83640541.418 8  20425867.961                    20425875.129
 118525045.418 7  92357112.791 7  22554529.477                    22554537.832
 121683137.701 6  94818030.86644  23155519.125                    23155528.512
 127449923.521 6  99311641.72743  24252920.703                    24252929.664
 116043722.946 8  90423729.23945  22082382.695                    22082389.203
 113266715.282 7  88259723.61845  21553913.891                    21553921.004
 127612381.762 6  99438223.92542  24283846.523                    24283858.379
 11  8 20 18 48  0.0000000  0 10G24G01G08G07G17G26G19G28G11G13
 116546106.371 7  90815026.97544  22177939.516                    22177949.043
 116447051.661 7  90737862.199 7  22159087.656                    22159099.895
 106442818.780 8  82942495.30646  20255390.422                    20255397.387
 107362814.743 8  83659366.478 8  20430465.086                    20430472.348
 118445018.212 7  92294753.986 7  22539300.039                    22539309.070
 121635836.816 7  94781173.04943  23146517.836                    23146527.469
 127555306.461 6  99393758.21344  24272976.375                    24272983.668
 116019877.846 7  90405148.66445  22077845.023                    22077852.492
 113275270.418 7  88266389.94345  21555541.969                    21555549.578
 127723127.904 6  99524519.37643  24304921.227                    24304933.191
 11  8 20 18 48 30.0000000  0 10G24G01G08G07G17G26G19G28G11G13
 116511410.827 7  90787991.52245  22171336.984                    22171346.352
 116405449.292 7  90705444.823 7  22151171.242                    22151183.227
 106408186.478 8  82915509.09746  20248800.430                    20248807.359
 107387456.629 8  83678567.930 7  20435154.750                    20435161.352
 118365299.278 7  92232635.396 7  22524130.313                    22524139.109
 121589100.718 7  94744755.33343  23137624.234                    23137633.508
 127660753.267 6  99475924.47544  24293041.758                    24293049.332
 115996072.884 8  90386599.35745  22073314.875                    22073321.699
 113284404.245 8  88273507.21645  21557279.992                    21557287.777
 127833827.176 6  99610778.33743  24325986.180                    24325998.570
 11  8 20 18 49  0.0000000  0 10G24G01G08G07G17G26G19G28G11G13
 116477175.617 7  90761314.77745  22164822.188                    22164832.055
 116364293.265 7  90673375.240 7  22143339.336                    22143351.359
 106373973.674 8  82888849.77446  20242290.086                    20242297.090
 107412581.945 8  83698146.060 8  20439935.555                    20439942.785
 118285890.020 7  92170758.122 7  22509019.086                    22509027.613
 121542930.526 7  94708778.58243  23128838.703                    23128848.047
 127766261.411 6  99558138.54543  24313118.883                    24313126.488
 115972307.824 7  90368081.14445  22068792.672                    22068799.098
 113294116.706 7  88281075.37345  21559128.148                    21559136.250
 127944476.920 6  99696998.68242  24347043.047                    24347054.863
 11  8 20 18 49 30.0000000  0 10G24G01G08G07G17G26G19G28G11G13
 116443403.199 7  90734998.63845  22158395.242                    22158404.980
 116323586.736 7  90641655.891 7  22135593.391                    22135605.430
 106340183.447 8  82862519.73346  20235859.359                    20235867.789
 107438191.462 8  83718101.499 8  20444809.234                    20444816.426
 118206792.153 7  92109123.493 7  22493967.313                    22493975.848
 121497328.029 7  94673244.18743  23120160.992                    23120170.023
 127871828.803 6  99640398.77543  24333207.602                    24333215.328
 115948581.992 8  90349593.50145  22064277.844                    22064285.004
 113304408.655 8  88289095.09345  21561086.742                    21561094.559
 128055074.135 6  99783178.11242  24368088.953                    24368101.176
 11  8 20 18 50  0.0000000  0 10G24G01G08G07G17G26G19G28G11G13
 116410095.808 7  90709044.86845  22152057.945                    22152067.402
 116283332.143 7  90610288.707 7  22127933.313                    22127944.414
 106306817.959 8  82836520.64946  20229510.180                    20229517.676
 107464285.887 8  83738434.788 7  20449774.516                    20449781.941
 118128006.571 7  92047732.196 7  22478974.891                    22478983.352
 121452294.761 6  94638153.36944  23111590.734                    23111600.387
 127977453.079 6  99722703.35443  24353306.500                    24353315.547
 115924895.258 7  90331136.32845  22059770.055                    22059777.324
 113315280.046 8  88297566.30445  21563155.422                    21563162.602
 128165616.684 6  99869314.92142  24389123.672                    24389136.867
 11  8 20 18 50 30.0000000  0 10G24G01G08G07G17G26G19G28G11G13
 116377255.239 7  90683454.85344  22145808.125                    22145817.840
 116243530.963 7  90579274.847 7  22120359.219                    22120370.180
 106273879.086 8  82810854.00646  20223242.586                    20223249.719
 107490864.788 8  83759145.601 8  20454832.672                    20454840.313
 118049534.545 7  91986585.214 7  22464042.320                    22464051.184
 121407831.633 7  94603506.80743  23103130.352                    23103138.906
 128083131.560 6  99805050.13043  24373417.352                    24373426.121
 115901246.656 8  90312708.85645  22055269.945                    22055276.629
 113326730.921 8  88306489.07545  21565334.344                    21565341.805
 128276101.283 6  99955406.57042  24410148.977                    24410160.785
 11  8 20 18 51  0.0000000  0 10G24G01G08G07G17G26G19G28G11G13
 116344883.426 7  90658230.10645  22139647.414                    22139657.117
 116204185.444 7  90548616.039 7  22112872.063                    22112883.352
 106241369.055 7  82785521.52146  20217056.180                    20217063.273
 107517928.544 8  83780234.216 7  20459982.680                    20459989.566
 117971376.941 7  91925683.260 7  22449169.406                    22449177.484
 121363939.724 7  94569305.35543  23094778.227                    23094786.988
 128188862.073 6  99887437.47043  24393537.430                    24393545.512
 115877635.594 7  90294310.62845  22050776.727                    22050783.992
 113338760.887 8  88315863.06145  21567623.813                    21567630.914
 128386525.315 6 100041451.07642  24431162.117                    24431174.980
 11  8 20 18 51 30.0000000  0 10G24G01G08G07G17G26G19G28G11G13
 116312982.447 7  90633372.23045  22133577.539                    22133586.848
 116165298.182 7  90518314.305 7  22105472.133                    22105483.398
 106209290.430 7  82760525.18946  20210951.727                    20210958.914
 107545478.109 8  83801701.379 8  20465225.320                    20465232.102
 117893535.548 8  91865027.680 7  22434356.094                    22434364.789
 121320620.547 7  94535550.16444  23086534.852                    23086543.375
 128294642.371 6  99969863.61843  24413667.070                    24413674.012
 115854061.770 8  90275941.43145  22046291.039                    22046297.992
 113351370.249 8  88325688.54045  21570023.305                    21570030.793
 128496886.194 6 100127446.32642  24452163.648                    24452176.316
 11  8 20 18 52  0.0000000  0 10G24G01G08G07G17G26G19G28G11G13
 116281554.473 7  90608882.92745  22127596.563                    22127606.520
 116126871.088 7  90488371.150 7  22098159.180                    22098171.148
 106177645.273 8  82735866.63646  20204929.352                    20204937.352
 107573513.676 8  83823547.260 7  20470560.047                    20470567.422
 117816011.749 7  91804619.595 7  22419604.156                    22419612.824
 121277875.130 7  94502242.08444  23078399.625                    23078409.605
 128400470.090 6 100052326.72243  24433805.227                    24433813.773
 115830524.484 8  90257600.70045  22041811.672                    22041818.410
 113364558.863 8  88335965.39045  21572532.523                    21572539.973
 128607180.869 6 100213390.01543  24473151.953                    24473164.848
 11  8 20 18 52 30.0000000  0 10G24G01G08G07G17G26G19G28G11G13
 116250601.696 7  90584763.92045  22121706.156                    22121716.309
 116088906.660 7  90458788.510 7  22090934.961                    22090946.637
 106146435.955 8  82711547.68146  20198990.648                    20198998.531
 107602035.371 8  83845771.937 7  20475987.719                    20475994.137
 117738806.207 7  91744459.501 7  22404911.953                    22404920.590
 121235704.828 7  94469382.10644  23070375.633                    23070384.906
 128506342.873 6 100134824.93043  24453951.273                    24453960.945
 115807023.591 8  90239288.32445  22037340.047                    22037346.398
 113378326.806 8  88346693.64845  21575152.875                    21575159.555
 128717406.656 6 100299280.01942  24494127.844                    24494140.066
 11  8 20 18 53  0.0000000  0 10G24G01G08G07G17G26G19G28G11G13
 116220126.329 7  90561016.90545  22115906.766                    22115917.082
 116051406.932 7  90429567.975 7  22083799.047                    22083810.977
 106115664.904 8  82687570.23646  20193134.977                    20193143.309
 107631043.890 8  83868375.949 8  20481508.125                    20481514.871
 117661919.997 7  91684548.217 7  22390281.094                    22390289.754
 121194111.072 6  94436971.43843  23062459.680                    23062469.473
 128612258.509 6 100217356.46243  24474107.172                    24474115.906
 115783558.587 8  90221003.90845  22032874.859                    22032880.781
 113392674.214 8  88357873.45345  21577883.125                    21577890.125
 128827561.296 6 100385114.57742  24515089.516                    24515101.961
 11  8 20 18 53 30.0000000  0 10G24G01G08G07G17G26G19G28G11G13
 116190130.316 7  90537643.42345  22110199.617                    22110209.613
 116014373.890 7  90400711.092 7  22076751.953                    22076762.656
 106085334.561 8  82663936.19146  20187363.531                    20187371.195
 107660539.272 8  83891359.355 7  20487120.648                    20487127.301
 117585354.729 7  91624887.030 7  22375710.977                    22375719.309
 121153094.862 7  94405010.75643  23054655.219                    23054664.344
 128718214.431 6 100299919.41443  24494270.422                    24494278.141
 115760129.099 8  90202747.18845  22028416.227                    22028423.195
 113407600.946 8  88369504.67745  21580723.305                    21580730.922
 128937642.234 6 100470891.74542  24536037.391                    24536049.992
 11  8 20 18 54  0.0000000  0 10G24G01G08G07G17G26G19G28G11G13
 116160615.324 7  90514644.77244  22104582.289                    22104592.488
 115977810.157 7  90372219.902 7  22069794.477                    22069805.313
 106055446.919 8  82640647.11046  20181675.836                    20181684.094
 107690521.916 8  83914722.421 7  20492826.391                    20492833.133
 117509111.452 7  91565476.726 7  22361202.289                    22361211.148
 121112657.186 7  94373500.90443  23046960.094                    23046969.277
 128824208.651 6 100382512.28143  24514439.680                    24514447.785
 115736734.393 7  90184517.56545  22023964.078                    22023971.105
 113423107.120 8  88381587.41645  21583674.281                    21583681.320
 129047646.363 6 100556609.02642  24556970.742                    24556983.684
 11  8 20 18 54 30.0000000  0 10G24G01G08G07G17G26G19G28G11G13
 116131583.241 7  90492022.38845  22099057.695                    22099067.816
 115941716.760 7  90344095.195 7  22062925.758                    22062937.223
 106026003.668 8  82617704.31146  20176073.477                    20176081.121
 107720991.679 8  83938465.066 7  20498624.266                    20498631.762
 117433191.008 7  91506318.004 7  22346755.086                    22346764.359
 121072798.977 7  94342442.59243  23039375.180                    23039384.277
 128930238.821 6 100465133.12443  24534616.555                    24534624.645
 115713373.875 7  90166314.57745  22019518.609                    22019525.930
 113439192.104 7  88394121.16745  21586735.195                    21586742.875
 129157571.193 6 100642264.52642  24577888.289                    24577901.520
 11  8 20 18 55  0.0000000  0 10G24G01G08G07G17G26G19G28G11G13
 116103036.521 7  90469778.24445  22093625.313                    22093635.723
 115906096.925 7  90316339.512 7  22056147.711                    22056158.930
 105997007.618 8  82595109.98346  20170555.250                    20170562.840
 107751949.224 8  83962587.823 8  20504515.547                    20504522.090
 117357595.095 7  91447412.148 7  22332369.867                    22332378.598
 121033521.777 7  94311836.99643  23031901.211                    23031910.375
 129036302.808 6 100547780.35043  24554799.141                    24554808.457
 115690047.594 8  90148138.27445  22015080.047                    22015086.477
 113455856.185 7  88407106.16245  21589906.031                    21589913.430
 129267413.711 6 100727855.93242  24598790.828                    24598804.668
 11  8 20 18 55 30.0000000  0 10G24G01G08G07G17G26G19G28G11G13
 116074977.086 7  90447913.75944  22088286.453                    22088295.555
 115870952.240 7  90288954.068 7  22049459.758                    22049471.254
 105968460.887 8  82572865.77446  20165123.648                    20165130.477
 107783394.826 8  83987090.866 7  20510499.234                    20510506.254
 117282324.504 7  91388759.796 7  22318046.219                    22318054.801
 120994826.416 7  94281684.77243  23024537.898                    23024546.699
 129142398.263 6 100630452.10043  24574988.859                    24574997.605
 115666755.040 8  90129988.25245  22010647.703                    22010654.762
 113473099.117 8  88420542.21645  21593187.773                    21593195.121
 129377171.591 5 100813381.29642  24619678.383                    24619691.676
 11  8 20 18 56  0.0000000  0 10G24G01G08G07G17G26G19G28G11G13
 116047406.963 7  90426430.56844  22083039.391                    22083049.305
 115836285.004 7  90261940.663 7  22042862.492                    22042874.480
 105940365.965 8  82550973.62146  20159777.359                    20159784.563
 107815328.747 8  84011974.410 7  20516575.992                    20516583.277
 117207380.574 7  91330361.991 7  22303784.656                    22303793.191
 120956714.221 7  94251986.99543  23017284.867                    23017293.625
 129248522.751 6 100713146.43643  24595184.820                    24595192.918
 115643495.673 8  90111864.08545  22006221.336                    22006228.336
 113490920.682 7  88434429.15545  21596578.617                    21596586.063
 129486842.343 5                  24640546.648
 11  8 20 18 56 30.0000000  0 10G24G01G08G07G17G26G19G28G11G13
 116020327.701 7  90405329.87045  22077887.078                    22077896.641
 115802096.816 7  90235300.547 7  22036356.875                    22036368.652
 105912724.482 8  82529434.79646  20154516.961                    20154524.340
 107847751.001 8  84037238.470 7  20522745.961                    20522752.699
 117132764.190 7  91272219.421 7  22289586.055                    22289594.398
 120919185.859 7  94222744.13543  23010142.922                    23010152.820
 129354674.256 6 100795861.81743  24615385.539                    24615393.262
 115620268.911 8  90093765.32245  22001801.086                    22001808.059
 113509320.345 7  88448766.55045  21600080.273                    21600087.477
 129596423.016 5                  24661400.477
 11  8 20 18 57  0.0000000  0  9G24G01G08G07G17G26G19G28G11
 115993742.275 7  90384613.98745  22072827.852                    22072837.391
 115768390.986 7  90209036.297 7  22029942.438                    22029954.215
 105885539.936 8  82508252.02646  20149343.586                    20149351.277
 107880662.630 8  84062883.877 7  20529008.563                    20529015.848
 117058477.551 7  91214333.798 7  22275449.563                    22275458.070
 120882243.227 7  94193957.66944  23003113.672                    23003122.836
 129460851.507 6 100878597.25043  24635589.602                    24635598.422
 115597075.329 8  90075692.42345  21997387.727                    21997394.574
 113528298.774 7  88463554.94645  21603691.117                    21603698.816
 11  8 20 18 57 30.0000000  0  9G24G01G08G07G17G26G19G28G11
 115967651.509 7  90364283.54145  22067863.023                    22067872.992
 115735168.390 7  90183148.580 7  22023620.648                    22023632.137
 105858813.721 8  82487426.40046  20144258.508                    20144265.535
 107914062.748 7  84088909.914 8  20535364.602                    20535371.746
 116984520.754 7  91156705.184 7  22261375.922                    22261384.512
 120845886.462 7  94165627.73344  22996195.211                    22996204.742
 129567051.414 6 100961350.35243  24655798.758                    24655807.633
 115573913.790 7  90057644.48545  21992980.070                    21992986.625
 113547855.187 7  88478793.69945  21607412.734                    21607420.461
 11  8 20 18 58  0.0000000  0  9G24G01G08G07G17G26G19G28G11
 115942057.151 7  90344339.90745  22062992.789                    22063001.699
 115702430.955 7  90157638.903 7  22017390.625                    22017401.992
 105832547.784 8  82466959.43846  20139260.102                    20139267.559
 107947951.510 8  84115316.704 7  20541813.414                    20541820.496
 116910894.517 7  91099334.150 7  22247365.281                    22247373.734
 120810116.303 7  94137754.91444  22989388.344                    22989397.684
 129673271.681 6 101044119.34443  24676012.313                    24676020.348
 115550783.780 7  90039621.11245  21988579.023                    21988585.758
 113567989.177 7  88494482.53045  21611244.203                    21611251.984
 11  8 20 18 58 30.0000000  0  9G24G01G08G07G17G26G19G28G11
 115916960.809 7  90324784.33245  22058216.359                    22058226.551
 115670180.624 7  90132508.807 7  22011254.188                    22011264.922
 105806744.012 8  82446852.60446  20134349.898                    20134357.000
 107982329.108 8  84142104.416 8  20548355.219                    20548362.949
 116837600.080 7  91042221.656 7  22233417.453                    22233426.098
 120774933.552 7  94110339.81444  22982693.414                    22982702.410
 129779509.836 6 101126902.25743  24696227.734                    24696236.809
 115527684.469 7  90021621.64945  21984183.227                    21984189.645
 113588700.048 7  88510620.87645  21615185.234                    21615193.176
 11  8 20 18 59  0.0000000  0  9G24G01G08G07G17G26G19G28G11
 115892364.605 7  90305618.47945  22053536.289                    22053545.496
 115638419.522 7  90107759.940 7  22005210.078                    22005221.535
 105781404.864 8  82427107.80846  20129528.133                    20129535.211
 108017195.569 8  84169273.063 7  20554990.570                    20554997.625
 116764638.616 7  90985368.637 7  22219533.656                    22219542.176
 120740339.361 7  94083383.32344  22976110.203                    22976119.535
 129885764.211 6 101209697.77643  24716448.156                    24716455.891
 115504616.125 7  90003646.33745  21979793.039                    21979800.176
 113609987.628 8  88527208.60345  21619236.336                    21619243.965
 11  8 20 18 59 30.0000000  0  9G24G01G08G07G17G26G19G28G11
 115868270.080 7  90286843.54845  22048951.078                    22048960.758
 115607149.400 7  90083393.636 7  21999259.406                    21999270.629
 105756532.169 8  82407726.48746  20124794.305                    20124802.047
 108052550.861 8  84196822.610 7  20561718.023                    20561725.348
 116692011.156 7  90928775.862 7  22205713.344                    22205721.313
 120706334.410 7  94056885.97144  22969639.375                    22969649.055
 129992031.946 5 101292503.75643  24736670.344                    24736678.445
 115481578.059 7  89985694.61845  21975409.211                    21975416.020
 113631851.537 8  88544245.41345  21623397.266                    21623404.793
 11  8 20 19  0  0.0000000  0  9G24G01G08G07G17G26G19G28G11
 115844678.916 7  90268460.83744  22044461.695                    22044471.371
 115576371.961 7  90059411.238 7  21993402.672                    21993413.844
 105732127.945 8  82388710.20946  20120150.734                    20120158.414
 108088395.001 8  84224753.083 7  20568538.836                    20568546.242
 116619718.528 7  90872443.990 7  22191956.164                    22191964.148
 120672919.630 7  94030848.48244  22963280.609                    22963289.902
 130098311.273 6 101375318.72543  24756893.836                    24756902.457
 115458569.801 7  89967766.11945  21971031.180                    21971037.840
 113654291.437 7  88561731.03945  21627667.289                    21627674.742
 11  8 20 19  0 30.0000000  0  9G24G01G08G07G17G26G19G28G11
 115821593.321 7  90250472.09044  22040068.578                    22040078.223
 115546089.617 7  90035814.627 7  21987640.250                    21987651.695
 105708194.549 8  82370060.80346  20115596.313                    20115603.984
 108124728.598 8  84253064.944 7  20575453.359                    20575460.590
 116547761.853 7  90816373.907 7  22178263.656                    22178271.789
 120640095.831 7  94005271.54644  22957034.641                    22957043.031
 130204600.121 6 101458141.14242  24777119.789                    24777128.016
 115435591.399 7  89949860.89845  21966658.758                    21966665.215
 113677306.871 8  88579665.14445  21632046.750                    21632054.477
 11  8 20 19  1  0.0000000  0  9G24G01G08G07G17G26G19G28G11
 115799014.558 7  90232878.25644  22035772.016                    22035781.387
 115516303.381 7  90012604.586 7  21981971.953                    21981982.906
 105684733.548 8  82351779.49746  20111131.875                    20111139.449
 108161550.656 8  84281757.419 7  20582460.148                    20582467.309
 116476141.787 7  90760566.114 7  22164634.742                    22164642.910
 120607863.536 7  93980155.47244  22950901.469                    22950909.844
 130310896.094 5 101540969.08243  24797345.602                    24797355.383
 115412642.129 8  89931978.36045  21962291.195                    21962297.605
 113700897.280 8  88598047.27445  21636535.844                    21636542.695
 11  8 20 19  1 30.0000000  0  8G24G01G08G07G17G26G28G11
 115776944.938 7  90215681.16544  22031572.305                    22031581.090
 115487016.218 7  89989783.444 7  21976398.930                    21976410.574
 105661747.955 8  82333868.64146  20106757.781                    20106765.414
 108198862.332 8  84310831.445 7  20589560.617                    20589567.793
 116404859.979 7  90705021.908 7  22151069.938                    22151078.508
 120576224.212 6  93955501.46644  22944880.102                    22944889.590
 115389722.099 8  89914118.61945  21957929.828                    21957936.590
 113725062.759 8  88616877.50745  21641134.609                    21641141.262
 11  8 20 19  2  0.0000000  0  8G24G01G08G07G17G26G28G11
 115755386.010 7  90198882.03045  22027469.852                    22027479.168
 115458229.605 7  89967352.333 7  21970921.219                    21970932.059
 105639239.982 8  82316329.96046  20102474.852                    20102482.133
 108236663.106 8  84340286.563 7  20596753.633                    20596761.059
 116333917.434 7  90649742.037 7  22137569.883                    22137578.043
 120545178.290 7  93931309.85244  22938972.445                    22938981.719
 115366831.234 7  89896281.59445  21953573.453                    21953580.684
 113749802.733 8  88636155.40145  21645842.344                    21645849.113
 11  8 20 19  2 30.0000000  0  8G24G01G08G07G17G26G28G11
 115734339.159 7  90182481.90945  22023464.703                    22023473.801
 115429944.997 7  89945312.416 7  21965537.938                    21965549.801
 105617211.175 8  82299164.64946  20098282.828                    20098289.859
 108274953.039 8  84370122.831 7  20604040.047                    20604047.391
 116263314.976 7  90594727.170 7  22124134.586                    22124143.320
 120514726.252 7  93907581.00844  22933177.578                    22933186.770
 115343968.763 7  89878466.68745  21949223.094                    21949230.020
 113775116.260 8  88655880.21845  21650659.656                    21650666.262
 11  8 20 19  3  0.0000000  0  8G24G01G08G07G17G26G28G11
 115713806.077 7  90166482.14645  22019557.453                    22019567.102
 115402164.473 7  89923665.284 7  21960251.945                    21960263.699
 105595663.491 8  82282374.25046  20094182.406                    20094189.684
 108313731.901 8  84400340.110 7  20611419.563                    20611427.277
 116193053.279 7  90539977.854 7  22110764.664                    22110773.059
 120484868.738 7  93884315.42544  22927496.000                    22927505.363
 115321134.492 7  89860673.76945  21944877.969                    21944884.238
 113801002.677 7  88676051.44345  21655585.180                    21655592.668
 11  8 20 19  3 30.0000000  0  8G24G01G08G07G17G26G28G11
 115693788.043 7  90150883.70145  22015748.313                    22015757.469
 115374889.222 7  89902411.869 7  21955061.156                    21955072.254
 105574598.476 8  82265959.95446  20090174.063                    20090181.480
 108352999.267 8  84430938.023 7  20618891.945                    20618899.086
 116123133.012 8  90485494.587 7  22097459.039                    22097467.023
 120455606.154 7  93861513.41344  22921927.242                    22921936.313
 115298327.444 7  89842902.04945  21940538.039                    21940544.617
 113827461.327 7  88696668.56745  21660620.063                    21660627.555
 11  8 20 19  4  0.0000000  0  8G24G01G08G07G17G26G28G11
 115674286.787 7  90135687.96345  22012037.398                    22012046.656
 115348121.427 7  89881553.873 7  21949967.531                    21949979.395
 105554018.502 7  82249923.60846  20086257.820                    20086265.488
 108392755.291 8  84461916.708 7  20626457.211                    20626464.578
 116053555.453 7  90431278.352 7  22084218.648                    22084226.746
 120426939.289 6  93839175.61544  22916471.945                    22916481.180
 115275547.897 7  89825151.77145  21936202.461                    21936209.531
 113854491.703 7  88717731.19545  21665764.086                    21665771.109
 11  8 20 19  4 30.0000000  0  8G24G01G08G07G17G26G28G11
 115655303.803 7  90120896.06545  22008424.547                    22008434.066
 115321862.250 7  89861092.213 7  21944970.891                    21944982.793
 105533925.454 7  82234266.68546  20082433.883                    20082441.676
 108432999.561 8  84493275.815 7  20634115.594                    20634122.777
 115984321.520 8  90377329.874 7  22071043.531                    22071052.055
 120398868.581 7  93817302.34544  22911130.055                    22911139.840
 115252795.442 7  89807422.59345  21931873.422                    21931879.992
 113882093.174 7  88739238.83345  21671016.031                    21671023.723
 11  8 20 19  5  0.0000000  0  8G24G01G08G07G17G26G28G11
 115636840.348 7  90106508.98445  22004911.773                    22004920.387
 115296113.792 7  89841028.494 7  21940071.086                    21940082.121
 105514320.869 8  82218990.38046  20078703.477                    20078710.898
 108473731.786 8  84525015.195 7  20641866.891                    20641873.949
 115915431.335 8  90323649.269 7  22057934.891                    22057942.816
 120371394.484 7  93795893.96544  22905902.430                    22905911.289
 115230069.540 7  89789714.10545  21927548.781                    21927555.613
 113910265.014 8  88761190.92345  21676377.156                    21676385.148
 11  8 20 19  5 30.0000000  0  8G24G01G08G07G17G26G28G11
 115618898.562 7  90092528.41045  22001497.203                    22001506.316
 115270878.153 7  89821364.397 7  21935269.047                    21935280.148
 105495207.833 8  82204097.09646  20075066.484                    20075073.852
 108514952.714 8  84557135.354 7  20649710.508                    20649717.953
 115846887.161 7  90270238.268 7  22044890.930                    22044899.117
 120344518.153 7  93774951.38644  22900788.422                    22900796.820
 115207370.782 7  89772026.78145  21923229.398                    21923235.957
 113939006.976 7  88783587.25145  21681846.773                    21681854.270
 11  8 20 19  6  0.0000000  0  8G24G01G08G07G17G26G28G11
 115601479.751 7  90078955.34245  21998182.219                    21998191.676
 115246156.719 7  89802100.959 7  21930564.852                    21930575.570
 105476588.034 8  82189588.15546  20071523.016                    20071530.594
 108556661.768 8  84589635.856 7  20657647.336                    20657654.824
 115778688.988 7  90217096.888 7  22031912.688                    22031921.320
 120318239.880 7  93754474.84044  22895786.852                    22895796.332
 115184698.375 8  89754359.98245  21918915.070                    21918921.625
 113968318.348 8  88806427.27245  21687424.461                    21687432.191
 11  8 20 19  6 30.0000000  0  8G24G01G08G07G17G26G28G11
 115584585.539 7  90065791.06245  21994967.563                    21994976.930
 115221950.894 7  89783239.290 7  21925957.727                    21925969.645
 105458463.336 8  82175465.01146  20068074.141                    20068082.066
 108598858.872 8  84622516.698 7  20665677.898                    20665684.805
 115710838.199 8  90164226.176 7  22019001.547                    22019009.797
 120292560.147 7  93734464.66044  22890900.297                    22890910.094
 115162052.346 7  89736713.73745  21914605.727                    21914612.121
 113998198.251 8  88829710.30845  21693110.617                    21693117.855
 11  8 20 19  7  0.0000000  0  8G24G01G08G07G17G26G28G11
 115568217.146 7  90053036.50345  21991852.656                    21991861.832
 115198262.548 7  89764780.882 7  21921450.664                    21921461.961
 105440835.417 8  82161728.97246  20064719.352                    20064727.129
 108641543.584 8  84655777.486 7  20673800.102                    20673807.656
 115643335.169 7  90111626.465 7  22006156.016                    22006164.250
 120267479.195 7  93714921.07844  22886127.617                    22886137.039
 115139431.979 8  89719087.49645  21910301.273                    21910307.387
 114028645.918 8  88853435.75045  21698904.438                    21698911.723
 11  8 20 19  7 30.0000000  0  8G24G01G08G07G17G26G28G11
 115552376.192 7  90040692.92045  21988838.250                    21988847.137
 115175093.395 7  89746727.032 7  21917041.203                    21917052.770
 105423706.475 8  82148381.72746  20061460.195                    20061467.496
 108684715.699 8  84689418.067 7  20682015.359                    20682022.867
 115576180.984 8  90059298.581 7  21993376.609                    21993385.297
 120242997.730 7  93695844.62844  22881468.859                    22881477.898
 115116837.336 8  89701481.28545  21906001.297                    21906007.988
 114059660.546 7  88877602.97545  21704806.250                    21704813.711
 11  8 20 19  8  0.0000000  0  8G24G01G08G07G17G26G28G11
 115537064.094 7  90028761.42945  21985924.617                    21985933.656
 115152444.748 7  89729078.760 7  21912731.711                    21912743.246
 105407078.238 8  82135424.65446  20058296.047                    20058303.191
 108728375.035 8  84723438.290 7  20690323.742                    20690331.430
 115509376.412 8  90007243.107 7  21980664.648                    21980672.516
 120219115.929 7  93677235.45144  22876924.547                    22876933.395
 115094268.582 8  89683895.24345  21901706.727                    21901713.172
 114091241.317 7  88902211.35145  21710816.523                    21710823.078
 11  8 20 19  8 30.0000000  0  8G24G01G08G07G17G26G28G11
 115522282.036 7  90017242.95644  21983112.094                    21983120.793
 115130317.919 7  89711837.105 7  21908520.867                    21908533.035
 105390952.638 8  82122859.24446  20055227.578                    20055234.691
 108772521.063 8  84757837.779 7  20698724.469                    20698731.824
 115442922.409 8  89955460.819 7  21968018.820                    21968026.930
 120195834.106 7  93659093.78144  22872494.578                    22872503.035
 115071725.303 8  89666329.05445  21897416.672                    21897423.496
 114123387.548 7  88927260.36345  21716933.063                    21716940.645
 11  8 20 19  9  0.0000000  0  8G24G01G08G07G17G26G28G11
 115508031.320 7  90006138.51145  21980399.828                    21980408.395
 115108714.738 7  89695003.473 7  21904410.156                    21904421.508
 105375331.041 8  82110686.55946  20052254.586                    20052262.082
 108817153.370 8  84792616.172 7  20707217.773                    20707225.262
 115376819.048 7  89903951.753 7  21955439.711                    21955447.777
 120173152.479 7  93641419.78944  22868177.539                    22868186.809
 115049206.909 8  89648782.28445  21893131.711                    21893139.152
 114156098.096 7  88952749.11745  21723157.594                    21723165.203
 11  8 20 19  9 30.0000000  0  8G24G01G08G07G17G26G28G11
 115494313.155 7  89995449.05945  21977788.750                    21977798.223
 115087636.420 7  89678578.844 7  21900398.609                    21900410.297
 105360215.431 8  82098908.15746  20049378.508                    20049385.508
 108862271.900 8  84827773.439 7  20715804.023                    20715810.844
 115311067.541 7  89852716.855 7  21942927.656                    21942935.605
 120151071.447 7  93624213.81444  22863975.602                    22863985.020
 115026713.322 8  89631254.81445  21888851.125                    21888857.969
 114189372.272 7  88978677.04045  21729489.773                    21729497.270
 11  8 20 19 10  0.0000000  0  8G24G01G08G07G17G26G28G11
 115481128.589 7  89985175.38945  21975280.172                    21975289.883
 115067084.231 7  89662564.170 7  21896488.055                    21896499.746
 105345607.196 8  82087525.10546  20046598.031                    20046605.520
 108907876.082 8  84863309.123 7  20724481.891                    20724489.363
 115245668.350 8  89801756.495 7  21930482.344                    21930490.875
 120129590.958 7  93607475.77944  22859888.617                    22859897.762
 115004244.019 8  89613746.26845  21884575.836                    21884581.734
 114223208.888 7  89005043.23345  21735928.398                    21735936.180
 11  8 20 19 10 30.0000000  0  8G24G01G08G07G17G26G28G11
 115468479.349 7  89975318.84545  21972872.852                    21972882.633
 115047059.939 8  89646960.837 7  21892678.008                    21892688.320
 105331508.658 8  82076539.22446  20043915.734                    20043923.488
 108953965.341 8  84899222.797 7  20733252.219                    20733259.836
 115180622.757 7  89751071.666 7  21918104.984                    21918112.676
 120108711.541 7  93591206.09044  22855915.266                    22855924.754
 114981799.190 7  89596256.79845  21880304.484                    21880311.750
 114257607.131 7  89031847.06045  21742474.281                    21742482.086
 11  8 20 19 11  0.0000000  0  8G24G01G08G07G17G26G28G11
 115456366.525 7  89965880.30345  21970568.000                    21970577.547
 115027565.145 7  89631770.116 7  21888967.977                    21888978.879
 105317921.605 8  82065951.89446  20041330.031                    20041337.852
 109000539.576 8  84935514.351 7  20742114.711                    20742122.398
 115115931.151 7  89700662.661 7  21905794.359                    21905802.336
 120088433.578 6  93575405.07444  22852056.578                    22852065.664
 114959378.586 7  89578786.21945  21876037.570                    21876045.105
 114292566.071 7  89059087.79645  21749126.742                    21749134.039
 11  8 20 19 11 30.0000000  0  8G24G01G08G07G17G26G28G11
 115444791.419 7  89956860.73245  21968365.391                    21968375.645
 115008600.931 7  89616992.822 7  21885358.938                    21885370.035
 105304847.529 8  82055764.29846  20038842.492                    20038849.246
 109047598.268 8  84972183.446 7  20751070.492                    20751077.508
 115051594.236 7  89650530.056 7  21893551.180                    21893559.855
 120068756.847 7  93560072.55344  22848311.914                    22848321.461
 114936981.980 8  89561334.34445  21871775.648                    21871782.918
 114328084.654 7  89086764.60245  21755885.672                    21755893.020
 11  8 20 19 12  0.0000000  0  8G24G01G08G07G17G26G28G11
 115433755.106 7  89948261.02145  21966265.359                    21966275.141
 114990168.362 7  89602629.792 7  21881851.859                    21881862.316
 105292288.197 8  82045977.78946  20036452.359                    20036459.797
 109095140.997 8  85009229.689 7  20760117.500                    20760124.590
 114987612.794 7  89600674.433 7  21881376.539                    21881384.898
 120049681.691 7  93545208.80144  22844681.773                    22844691.066
 114914609.537 8  89543901.28245  21867518.977                    21867525.934
 114364161.886 7  89114876.72545  21762751.336                    21762758.336
 11  8 20 19 12 30.0000000  0  8G24G01G08G07G17G26G28G11
 115423258.662 7  89940081.99045  21964268.211                    21964277.371
 114972269.114 7  89588682.350 7  21878445.570                    21878456.551
 105280245.246 8  82036593.66246  20034160.766                    20034167.902
 109143167.281 8  85046652.729 7  20769256.117                    20769263.641
 114923987.098 7  89551096.009 7  21869268.438                    21869276.973
 120031208.222 7  93530813.87344  22841166.492                    22841176.137
 114892260.460 8  89526486.42145  21863265.773                    21863272.602
 114400796.811 7  89143423.40245  21769722.859                    21769729.977
 11  8 20 19 13  0.0000000  0  8G24G01G08G07G17G26G28G11
 115413304.054 7  89932325.18045  21962373.516                    21962382.953
 114954905.296 7  89575152.120 7  21875141.258                    21875152.402
 105268721.464 8  82027614.09146  20031968.086                    20031974.707
 109191677.073 8  85084452.525 7  20778487.344                    20778494.914
 114860718.724 7  89501796.025 7  21857228.961                    21857236.887
 120013337.045 7  93516888.28144  22837766.633                    22837775.309
 114869935.712 8  89509090.52545  21859017.563                    21859024.340
 114437988.912 7  89172404.25545  21776800.000                    21776807.316
 11  8 20 19 13 30.0000000  0  8G24G01G08G07G17G26G28G11
 115403891.901 7  89924991.06245  21960582.352                    21960591.492
 114938077.593 7  89562039.655 7  21871938.391                    21871949.609
 105257717.830 8  82019039.82046  20029873.508                    20029880.965
 109240669.531 8  85122628.415 7  20787810.461                    20787817.820
 114797807.903 7  89452774.665 7  21845257.328                    21845265.207
 119996067.896 7  93503431.78644  22834480.367                    22834489.188
 114847634.643 8  89491713.07445  21854773.570                    21854780.137
 114475736.606 7  89201818.03445  21783983.078                    21783990.359
 11  8 20 19 14  0.0000000  0  8G24G01G08G07G17G26G28G11
 115395023.117 7  89918080.35444  21958894.883                    21958903.992
 114921786.825 7  89549345.570 7  21868838.922                    21868849.875
 105247235.521 8  82010871.77646  20027878.969                    20027886.945
 109290144.107 8  85161179.997 7  20797224.984                    20797232.172
 114735255.038 7  89404032.209 7  21833353.961                    21833361.809
 119979400.390 7  93490444.10043  22831308.594                    22831317.148
 114825356.751 8  89474353.68645  21850534.469                    21850541.086
 114514038.879 7  89231663.95445  21791271.914                    21791279.086
 11  8 20 19 14 30.0000000  0  8G24G01G08G07G17G26G28G11
 115386698.719 7  89911593.80645  21957310.813                    21957319.961
 114906034.492 7  89537071.053 7  21865841.117                    21865851.926
 105237276.440 8  82003111.44046  20025983.977                    20025991.609
 109340100.297 8  85200106.876 7  20806731.633                    20806739.141
 114673060.725 8  89355569.168 7  21821518.641                    21821526.352
 119963334.913 6  93477925.54743  22828250.977                    22828259.715
 114803102.060 7  89457012.37845  21846299.375                    21846306.375
 114552894.624 7  89261941.14445  21798666.000                    21798673.195
 11  8 20 19 15  0.0000000  0  8G24G01G08G07G17G26G28G11
 115378920.114 7  89905532.58845  21955830.609                    21955839.605
 114890822.236 7  89525217.360 7  21862946.102                    21862957.633
 105227842.628 8  81995760.40446  20024188.281                    20024195.867
 109390537.714 8  85239408.707 7  20816329.516                    20816336.949
 114611225.929 7  89307386.261 7  21809751.445                    21809759.262
 119947871.750 7  93465876.34943  22825309.570                    22825317.070
 114780870.790 7  89439689.32445  21842068.406                    21842075.832
 114592302.737 7  89292648.75745  21806165.203                    21806172.031
 11  8 20 19 15 30.0000000  0  8G24G01G08G07G17G26G28G11
 115371688.355 7  89899897.46645  21954454.703                    21954462.930
 114876151.338 7  89513785.532 7  21860154.625                    21860166.328
 105218935.859 8  81988820.05446  20022493.836                    20022501.355
 109441455.875 8  85279085.156 7  20826018.594                    20826026.613
 114549751.466 8  89259484.126 7  21798053.609                    21798061.484
 119933010.857 7  93454296.41544  22822480.820                    22822490.016
 114758663.051 8  89422384.59345  21837842.594                    21837849.645
 114632262.134 7  89323785.94145  21813769.164                    21813776.082
 11  8 20 19 16  0.0000000  0  8G24G01G08G07G17G26G28G11
 115365004.434 7  89894689.23145  21953182.406                    21953190.727
 114862022.682 7  89502776.210 7  21857466.063                    21857477.402
 105210557.229 8  81982291.24346  20020899.531                    20020906.785
 109492854.016 8  85319135.593 7  20835799.727                    20835807.602
 114488637.560 7  89211862.954 7  21786423.852                    21786432.273
 119918751.635 7  93443185.34743  22819766.836                    22819775.777
 114736478.477 8  89405097.90845  21833621.234                    21833628.332
 114672771.407 7  89355351.58845  21821477.664                    21821484.637
 11  8 20 19 16 30.0000000  0  8G24G01G08G07G17G26G28G11
 115358868.978 7  89889908.34545  21952015.563                    21952023.789
 114848437.238 7  89492190.185 7  21854880.281                    21854891.895
 105202708.338 8  81976175.19446  20019406.258                    20019413.379
 109544731.178 8  85359559.309 7  20845671.227                    20845679.199
 114427884.630 7  89164523.046 7  21774863.055                    21774871.313
 119905094.225 7  93432543.22044  22817167.984                    22817177.793
 114714316.754 8  89387829.03645  21829404.477                    21829411.488
 114713829.543 7  89387344.91945  21829291.086                    21829298.152
 11  8 20 19 17  0.0000000  0  8G24G01G08G07G17G26G28G11
 115353282.948 7  89885555.61545  21950951.492                    21950961.000
 114835396.015 7  89482028.220 7  21852399.258                    21852410.465
 105195390.322 8  81970472.82246  20018013.281                    20018020.461
 109597086.696 8  85400355.748 7  20855634.438                    20855642.324
 114367493.251 8  89117464.872 7  21763371.164                    21763378.523
 119892038.170 7  93422369.63543  22814683.953                    22814692.262
 114692177.620 8  89370577.76946  21825191.313                    21825198.445
 114755434.950 7  89419764.69545  21837208.258                    21837215.707
 11  8 20 19 17 30.0000000  0  8G24G01G08G07G17G26G28G11
 115348247.309 6  89881631.75545  21949993.461                    21950003.297
 114822900.322 8  89472291.338 7  21850021.172                    21850033.043
 105188605.031 8  81965185.58946  20016721.906                    20016729.738
 109649920.123 8  85441524.639 7  20865688.773                    20865696.293
 114307463.782 7  89070688.686 7  21751947.086                    21751955.137
 119879583.504 7  93412664.73744  22812313.508                    22812322.141
 114670061.347 8  89353344.31845  21820982.570                    21820989.746
 114797586.783 8  89452610.25745  21845228.984                    21845236.535
 11  8 20 19 18  0.0000000  0  8G24G01G08G07G17G26G28G11
 115343763.667 7  89878138.04645  21949140.461                    21949149.738
 114810951.859 7  89462980.881 7  21847747.109                    21847759.148
 105182354.851 8  81960315.30946  20015532.523                    20015540.547
 109703231.515 8  85483065.943 7  20875833.320                    20875840.730
 114247797.291 7  89024195.373 7  21740593.289                    21740601.117
 119867730.571 7  93403428.68744  22810058.156                    22810066.957
 114647968.418 8  89336129.05645  21816778.742                    21816785.273
 114840284.064 7  89485880.86345  21853354.234                    21853361.691
 11  8 20 19 18 30.0000000  0  8G24G01G08G07G17G26G28G11
 115339831.983 7  89875074.44045  21948391.633                    21948401.004
 114799550.656 7  89454096.851 7  21845577.828                    21845588.555
 105176640.295 8  81955862.40546  20014445.375                    20014452.914
 109757019.427 8  85524978.559 7  20886068.602                    20886076.801
 114188494.101 8  88977985.130 7  21729308.109                    21729316.133
 119856478.612 7  93394660.91344  22807917.164                    22807925.961
 114625897.948 8  89318931.30445  21812578.711                    21812585.379
 114883524.913 7  89519575.01745  21861583.063                    21861590.035
 11  8 20 19 19  0.0000000  0  8G24G01G08G07G17G26G28G11
 115336453.610 7  89872441.95545  21947748.617                    21947758.828
 114788698.679 7  89445640.775 7  21843511.859                    21843522.930
 105171463.514 8  81951828.55846  20013460.195                    20013467.707
 109811283.339 8  85567262.082 7  20896394.867                    20896402.461
 114129555.101 7  88932058.669 7  21718092.703                    21718100.809
 119845827.846 7  93386361.62444  22805890.305                    22805899.590
 114603850.738 8  89301751.66745  21808382.984                    21808389.641
 114927308.501 7  89553692.09944  21869914.117                    21869921.688
 11  8 20 19 19 30.0000000  0  8G24G01G08G07G17G26G28G11
 115333629.062 7  89870241.03545  21947211.875                    21947220.953
 114778396.407 7  89437613.050 7  21841552.406                    21841563.383
 105166825.231 8  81948214.29446  20012577.703                    20012585.164
 109866022.359 7  85609915.822 7  20906811.680                    20906819.207
 114070980.414 8  88886416.087 7  21706946.195                    21706954.113
 119835777.545 7  93378530.22144  22803977.719                    22803986.852
 114581826.171 8  89284589.68146  21804192.305                    21804198.781
 114971632.933 7  89588230.63344  21878349.102                    21878356.000
 11  8 20 19 20  0.0000000  0  8G24G01G08G07G17G26G28G11
 115331359.062 7  89868472.23845  21946779.195                    21946788.660
 114768644.764 7  89430014.397 7  21839696.406                    21839707.586
 105162726.826 8  81945020.72446  20011797.453                    20011805.531
 109921235.558 8  85652939.048 7  20917317.867                    20917325.820
 114012769.990 7  88841057.358 7  21695869.086                    21695877.145
 119826327.316 7  93371166.39244  22802178.945                    22802188.668
 114559824.068 8  89267445.20046  21800005.188                    21800011.930
 115016496.982 7  89623189.63545  21886886.469                    21886894.027
 11  8 20 19 20 30.0000000  0  8G24G01G08G07G17G26G28G11
 115329644.583 7  89867136.30145  21946453.078                    21946463.141
 114759444.591 7  89422845.450 7  21837945.695                    21837957.246
 105159169.907 8  81942249.08346  20011120.766                    20011128.383
 109976922.225 8  85696331.199 7  20927914.984                    20927922.762
 113954924.671 7  88795983.115 7  21684860.883                    21684869.191
 119817476.994 7  93364270.02944  22800495.773                    22800504.348
 114537844.727 8  89250318.45746  21795822.945                    21795829.859
 115061899.419 7  89658568.14845  21895526.477                    21895534.094
 11  8 20 19 21  0.0000000  0  8G24G01G08G07G17G26G28G11
 115328486.983 7  89866234.30245  21946232.797                    21946242.277
 114750797.651 7  89416107.588 7  21836300.203                    21836311.582
 105156156.725 8  81939901.14046  20010547.539                    20010555.258
 110033082.309 8  85740092.254 7  20938602.313                    20938609.734
 113897445.371 7  88751194.084 7  21673923.445                    21673931.734
 119809226.687 7  93357841.23244  22798925.461                    22798934.316
 114515888.706 8  89233209.87346  21791644.570                    21791651.563
 115107839.302 8  89694365.45545  21904269.031                    21904275.805
 11  8 20 19 21 30.0000000  0  8G24G01G08G07G17G26G28G11
 115327885.982 7  89865765.99545  21946118.680                    21946127.719
 114742703.908 7  89409800.791 7  21834760.211                    21834771.434
 105153687.282 8  81937976.88846  20010077.672                    20010085.465
 110089714.138 8  85784220.906 7  20949378.445                    20949386.086
 113840331.713 7  88706689.973 7  21663055.281                    21663063.480
 119801575.249 7  93351879.05644  22797469.523                    22797478.305
 114493955.146 8  89216118.79346  21787470.813                    21787477.465
 115154314.264 8  89730579.70545  21913112.641                    21913119.742
 11  8 20 19 22  0.0000000  0  8G24G01G08G07G17G26G28G11
 115327842.814 7  89865732.36945  21946110.531                    21946119.883
 114735165.154 7  89403926.455 7  21833325.359                    21833337.027
 105151763.995 7  81936478.20446  20009711.453                    20009718.758
 110146817.555 8  85828717.031 7  20960245.305                    20960252.891
 113783584.896 7  88662471.705 7  21652256.531                    21652264.836
 119794523.137 7  93346383.91944  22796127.242                    22796135.738
 114472044.843 8  89199045.84245  21783301.500                    21783308.176
 115201323.487 8  89767210.25345  21922057.727                    21922065.078
 11  8 20 19 22 30.0000000  0  8G24G01G08G07G17G26G28G11
 115328357.710 7  89866133.61145  21946208.438                    21946217.605
 114728181.410 7  89398484.602 7  21831996.734                    21832008.211
 105150387.489 8  81935405.58546  20009449.516                    20009456.734
 110204391.147 7  85873579.520 7  20971201.453                    20971209.000
 113727204.917 7  88618539.286 7  21641527.594                    21641535.672
 119788069.120 7  93341354.80344  22794899.039                    22794907.957
 114450157.032 8  89181990.41945  21779135.828                    21779143.074
 115248865.334 7  89804255.84245  21931103.906                    21931111.848
 11  8 20 19 23  0.0000000  0  8G24G01G08G07G17G26G28G11
 115329431.421 7  89866970.29345  21946412.781                    21946421.328
 114721753.692 7  89393476.014 7  21830773.406                    21830784.738
 105149559.187 8  81934760.13546  20009291.977                    20009299.434
 110262433.831 7  85918807.533 7  20982246.414                    20982254.363
 113671192.470 7  88574893.263 7  21630868.648                    21630877.063
 119782212.830 7  93336791.46144  22793784.586                    22793793.563
 114428291.935 8  89164952.69245  21774975.266                    21774982.484
 115296938.257 7  89841715.23845  21940252.828                    21940260.457
 11  8 20 19 23 30.0000000  0  8G24G01G08G07G17G26G28G11
 115331065.230 7  89868243.39945  21946723.469                    21946732.891
 114715883.107 7  89388901.542 7  21829656.234                    21829667.598
 105149280.929 8  81934543.29246  20009239.203                    20009246.309
 110320945.550 7  85964401.029 7  20993380.984                    20993388.723
 113615547.559 7  88531533.615 7  21620279.656                    21620288.281
 119776954.322 7  93332693.91244  22792783.906                    22792792.457
 114406450.269 8  89147933.22745  21770818.938                    21770825.578
 115345541.092 7  89879587.57245  21949501.391                    21949509.023
 11  8 20 19 24  0.0000000  0  8G24G01G08G07G17G26G28G11
 115333259.195 7  89869953.01645  21947140.914                    21947150.438
 114710570.093 7  89384761.566 8  21828645.039                    21828656.453
 105149553.162 8  81934755.41446  20009290.547                    20009298.188
 110379924.788 7  86010358.828 7  21004603.758                    21004611.961
 113560270.307 7  88488460.472 7  21609761.148                    21609769.109
 119772292.353 7  93329061.22144  22791896.453                    22791905.824
 114384631.045 8  89130931.23345  21766666.914                    21766673.145
 115394671.626 7  89917871.08645  21958851.102                    21958858.707
 11  8 20 19 24 30.0000000  0  8G24G01G08G07G17G26G28G11
 115336014.132 7  89872099.73345  21947665.227                    21947674.633
 114705815.883 8  89381056.991 7  21827740.805                    21827751.844
 105150377.896 8  81935398.04546  20009447.664                    20009455.684
 110439371.127 7  86056680.590 7  21015916.719                    21015924.066
 113505361.588 7  88445674.501 7  21599312.391                    21599320.191
 119768226.951 7  93325893.33744  22791123.156                    22791132.332
 114362835.467 8  89113947.66845  21762519.375                    21762525.852
 115444329.206 7  89956565.30145  21968300.195                    21968307.660
 11  8 20 19 25  0.0000000  0  8G24G01G08G07G17G26G28G11
 115339330.842 7  89874684.19745  21948297.094                    21948305.820
 114701620.991 7  89377788.264 7  21826942.602                    21826954.148
 105151756.665 7  81936472.39146  20009710.250                    20009717.434
 110499283.584 8  86103365.578 7  21027317.398                    21027325.031
 113450821.931 7  88403176.108 7  21588933.219                    21588941.695
 119764757.584 7  93323189.90944  22790463.242                    22790472.445
 114341063.307 7  89096982.33845  21758376.422                    21758383.219
 115494512.289 7  89995668.98145  21977849.547                    21977857.699
 11  8 20 19 25 30.0000000  0  8G24G01G08G07G17G26G28G11
 115343209.628 7  89877706.65245  21949034.484                    21949043.961
 114697986.358 7  89374956.104 7  21826250.398                    21826261.949
 105153690.270 8  81937979.08446  20010078.352                    20010085.551
 110559661.068 8  86150412.928 7  21038806.859                    21038814.477
 113396651.812 7  88360965.662 7  21578625.320                    21578633.375
 119761883.539 7  93320950.37544  22789915.969                    22789925.254
 114319314.640 8  89080035.32345  21754237.891                    21754244.391
 115545218.868 7  90035180.58845  21987499.156                    21987506.598
 11  8 20 19 26  0.0000000  0  8G24G01G08G07G17G26G28G11
 115347650.708 7  89881167.25745  21949879.086                    21949889.242
 114694912.421 7  89372560.848 7  21825665.383                    21825676.613
 105156179.335 8  81939918.60046  20010552.086                    20010559.527
 110620502.316 8  86197821.648 7  21050384.516                    21050392.215
 113342850.679 7  88319042.739 7  21568387.563                    21568395.344
 119759603.935 7  93319174.05844  22789482.609                    22789491.441
 114297589.466 7  89063106.61246  21750103.883                    21750110.203
 115596447.207 7  90075098.75645  21997247.883                    21997255.520
 11  8 20 19 26 30.0000000  0  8G24G01G08G07G17G26G28G11
 115352654.520 7  89885066.34245  21950831.742                    21950840.828
 114692399.828 7  89370602.988 7  21825187.219                    21825198.180
 105159225.312 8  81942292.06246  20011131.422                    20011138.875
 110681806.335 8  86245590.968 7  21062050.336                    21062058.023
 113289419.141 7  88277407.808 7  21558219.828                    21558227.484
 119757918.265 7  93317860.53644  22789161.641                    22789170.703
 114275887.562 8  89046196.03345  21745973.727                    21745980.371
 115648195.811 7  90115422.32845  22007095.328                    22007102.402
 11  8 20 19 27  0.0000000  0  8G24G01G08G07G17G26G28G11
 115358221.597 7  89889404.35045  21951891.289                    21951900.500
 114690448.979 7  89369082.863 7  21824816.203                    21824827.375
 105162829.295 8  81945100.34046  20011817.422                    20011824.391
 110743572.277 7  86293720.227 7  21073804.086                    21073811.941
 113236357.275 8  88236060.926 7  21548122.398                    21548129.910
 119756825.736 7  93317009.19144  22788953.594                    22788962.715
 114254209.359 8  89029303.92445  21741848.758                    21741855.254
 115700463.257 7  90156150.18845  22017041.242                    22017048.578
 11  8 20 19 27 30.0000000  0  8G24G01G08G07G17G26G28G11
 115364352.534 7  89894181.70145  21953057.727                    21953067.387
 114689060.903 7  89368001.249 7  21824551.758                    21824563.086
 105166992.593 8  81948344.45846  20012609.492                    20012617.438
 110805799.162 7  86342208.658 7  21085645.820                    21085653.578
 113183665.620 7  88195002.520 7  21538095.328                    21538102.859
 119756325.881 7  93316619.68744  22788858.336                    22788867.297
 114232555.295 8  89012430.63445  21737728.313                    21737734.613
 115753247.723 7  90197280.93045  22027085.844                    22027093.238
 11  8 20 19 28  0.0000000  0  8G24G01G08G07G17G26G28G11
 115371047.855 7  89899398.85345  21954332.086                    21954341.555
 114688236.487 7  89367358.860 7  21824395.258                    21824406.539
 105171716.514 7  81952025.43146  20013508.617                    20013516.066
 110868486.074 7  86391055.550 7  21097574.781                    21097582.441
 113131344.919 7  88154233.179 7  21528138.961                    21528146.742
 119756417.897 7  93316691.37544  22788876.516                    22788884.875
 114210925.458 7  88995576.21745  21733611.758                    21733618.664
 115806547.717 7  90238813.40745  22037228.250                    22037235.578
 11  8 20 19 28 30.0000000  0  8G24G01G08G07G17G26G28G11
 115378307.033 7  89905055.36845  21955713.289                    21955723.258
 114687975.231 7  89367155.293 7  21824345.586                    21824356.820
 105177000.808 7  81956143.04146  20014513.977                    20014521.477
 110931631.154 7  86440259.464 7  21109590.922                    21109598.293
 113079394.233 8  88113752.153 7  21518252.836                    21518261.047
 119757100.466 6  93317223.22844  22789006.086                    22789014.121
 114189319.133 8  88978740.11845  21729499.914                    21729506.922
 115860360.603 7  90280745.48845  22047467.820                    22047475.930
 11  8 20 19 29  0.0000000  0  8G24G01G08G07G17G26G28G11
 115386131.027 7  89911151.99945  21957202.258                    21957211.844
 114688278.276 7  89367391.453 7  21824403.211                    21824414.691
 105182847.688 8  81960699.02946  20015626.992                    20015634.027
 110995234.158 8  86489820.198 7  21121693.945                    21121701.492
 113027814.537 7  88073560.213 7  21508437.313                    21508445.598
 119758373.347 7  93318215.07044  22789248.633                    22789257.543
 114167737.254 7  88961923.07945  21725393.648                    21725400.164
 115914685.423 7  90323076.49844  22057806.227                    22057813.324
 11  8 20 19 29 30.0000000  0  8G24G01G08G07G17G26G28G11
 115394520.171 7  89917689.00145  21958798.336                    21958808.363
 114689146.141 7  89368067.717 7  21824568.422                    21824579.422
 105189258.128 7  81965694.15746  20016846.422                    20016854.395
 111059293.738 7  86539736.700 7  21133884.758                    21133892.258
 112976606.372 7  88033657.785 7  21498692.859                    21498700.816
 119760235.460 7  93319666.04944  22789602.648                    22789611.602
 114146179.978 7  88945125.22445  21721290.938                    21721298.246
 115969520.641 7  90365805.22944  22068241.125                    22068248.418
 11  8 20 19 30  0.0000000  0  8G24G01G08G07G17G26G28G11
 115403474.931 7  89924666.74445  21960502.578                    21960512.305
 114690579.505 7  89369184.646 7  21824841.008                    21824852.348
 105196233.436 7  81971129.43546  20018173.805                    20018181.629
 111123808.979 7  86590008.268 7  21146160.969                    21146168.691
 112925769.386 7  87994044.589 7  21489018.805                    21489026.961
 119762686.428 7  93321575.89244  22790069.125                    22790077.699
 114124647.554 7  88928346.72945  21717193.742                    21717200.500
 116024864.491 7  90408930.28644  22078772.625                    22078780.246
 11  8 20 19 30 30.0000000  0  8G24G01G08G07G17G26G28G11
 115412995.078 7  89932085.03145  21962314.336                    21962323.645
 114692578.524 7  89370742.344 7  21825221.453                    21825232.348
 105203773.940 8  81977005.13446  20019608.914                    20019616.605
 111188778.332 7  86640633.672 7  21158524.227                    21158531.918
 112875303.776 7  87954720.762 7  21479415.625                    21479423.305
 119765725.021 7  93323943.58344  22790647.742                    22790656.594
 114103139.801 7  88911587.44945  21713101.000                    21713107.879
 116080714.904 7  90452450.05544  22089400.477                    22089408.176
 11  8 20 19 31  0.0000000  0  8G24G01G08G07G17G26G28G11
 115423080.820 7  89939944.05545  21964233.414                    21964242.734
 114695143.266 7  89372740.860 7  21825709.539                    21825721.246
 105211880.261 7  81983321.73546  20021151.703                    20021159.012
 111254200.337 7  86691611.794 7  21170973.602                    21170982.180
 112825209.516 7  87915686.303 7  21469883.117                    21469890.961
 119769349.861 7  93326768.13544  22791336.914                    22791345.895
 114081656.730 8  88894847.40445  21709012.938                    21709019.801
 116137070.114 7  90496363.18344  22100124.781                    22100132.137
 11  8 20 19 31 30.0000000  0  8G24G01G08G07G17G26G28G11
 115433732.899 7  89948244.37945  21966260.547                    21966269.160
 114698274.677 7  89375180.944 7  21826305.633                    21826316.219
 105220554.024 7  81990080.49446  20022801.727                    20022809.375
 111320074.509 7  86742942.264 7  21183509.586                    21183517.324
 112775487.070 7  87876941.574 7  21460421.453                    21460429.059
 119773560.713 7  93330049.28444  22792138.141                    22792147.027
 114060199.053 7  88878127.14645  21704929.703                    21704936.258
 116193928.248 7  90540668.19744  22110944.820                    22110952.156
 11  8 20 19 32  0.0000000  0  8G24G01G08G07G17G26G28G11
 115444951.090 7  89956985.83245  21968395.125                    21968404.301
 114701972.878 7  89378062.657 7  21827008.727                    21827019.684
 105229795.429 7  81997281.56046  20024560.375                    20024568.098
 111386399.147 7  86794623.751 7  21196130.539                    21196138.414
 112726136.286 7  87838486.442 7  21451030.039                    21451038.188
 119778355.961 7  93333785.82344  22793051.531                    22793059.664
 114038766.823 7  88861426.71745  21700851.266                    21700857.914
 116251287.609 7  90585363.77144  22121860.086                    22121866.688
 11  8 20 19 32 30.0000000  0  8G24G01G08G07G17G26G28G11
 115456735.463 7  89966168.47545  21970637.891                    21970646.938
 114706238.147 7  89381386.243 7  21827820.930                    21827831.809
 105239605.556 8  82004925.79046  20026427.359                    20026435.066
 111453173.015 7  86846655.289 7  21208836.859                    21208845.313
 112677157.499 7  87800321.176 7  21441709.570                    21441717.723
 119783734.874 7  93337977.16044  22794074.766                    22794083.598
 114017360.018 7  88844746.10245  21696777.531                    21696784.469
 116309146.015 7  90630448.21945  22132870.039                    22132877.480
 11  8 20 19 33  0.0000000  0  8G24G01G08G07G17G26G28G11
 115469086.745 7  89975792.87745  21972987.992                    21972997.477
 114711071.195 7  89385152.272 7  21828740.531                    21828751.434
 105249986.009 8  82013014.44146  20028402.789                    20028410.426
 111520395.342 7  86899036.268 7  21221629.273                    21221637.355
 112628551.010 7  87762446.018 7  21432460.430                    21432468.266
 119789696.899 7  93342622.87044  22795209.164                    22795218.059
 113995979.512 7  88828085.97045  21692708.977                    21692716.113
 116367502.463 7  90675920.74945  22143974.359                    22143982.453
 11  8 20 19 33 30.0000000  0  8G24G01G08G07G17G26G28G11
 115482004.594 7  89985858.76245  21975446.297                    21975456.016
 114716471.866 7  89389360.613 7  21829768.297                    21829778.770
 105260936.931 8  82021547.59746  20030486.727                    20030494.148
 111588064.559 7  86951765.468 7  21234505.875                    21234514.160
 112580316.753 8  87724860.919 7  21423281.047                    21423289.203
 119796240.482 7  93347721.74144  22796454.797                    22796463.797
 113974624.955 7  88811446.05445  21688645.016                    21688651.855
 116426354.304 7  90721779.29545  22155173.594                    22155182.164
 11  8 20 19 34  0.0000000  0  8G24G01G08G07G17G26G28G11
 115495489.240 7  89996366.29445  21978011.758                    21978021.625
 114722440.983 7  89394011.883 7  21830903.594                    21830914.363
 105272459.533 8  82030526.22246  20032679.172                    20032686.629
 111656179.689 7  87004842.139 7  21247468.344                    21247476.461
 112532454.984 7  87687566.057 7  21414173.602                    21414180.715
 119803364.923 7  93353273.24144  22797809.992                    22797818.832
 113953297.028 8  88794826.88045  21684586.711                    21684593.512
 116485700.092 7  90768022.74344  22166467.102                    22166474.637
 11  8 20 19 34 30.0000000  0  8G24G01G08G07G17G26G28G11
 115509540.467 7  90007315.30845  21980686.484                    21980695.465
 114728978.155 7  89399105.792 7  21832147.969                    21832158.609
 105284553.924 8  82039950.40846  20034980.625                    20034988.320
 111724738.918 7  87058264.847 7  21260514.266                    21260522.363
 112484965.366 7  87650561.189 7  21405136.773                    21405144.457
 119811068.557 6  93359276.07144  22799275.938                    22799284.734
 113931995.763 7  88778228.49345  21680533.094                    21680540.004
 116545537.803 7  90814649.50944  22177853.609                    22177861.230
 11  8 20 19 35  0.0000000  0  8G24G01G08G07G17G26G28G11
 115524158.214 7  90018705.77245  21983467.547                    21983477.477
 114736083.702 7  89404642.593 7  21833499.906                    21833510.820
 105297220.814 8  82049820.69346  20037391.141                    20037398.805
 111793740.895 7  87112032.563 7  21273644.898                    21273653.504
 112437847.969 7  87613846.367 7  21396170.586                    21396178.969
 119819350.373 7  93365729.42444  22800852.094                    22800860.730
 113910721.216 7  88761650.91945  21676484.938                    21676491.359
 116605865.150 7  90861657.81644  22189333.852                    22189341.234
 11  8 20 19 35 30.0000000  0  8G24G01G08G07G17G26G28G11
 115539342.751 7  90030537.88545  21986357.461                    21986366.309
 114743758.171 7  89410622.708 7  21834960.719                    21834971.313
 105310461.588 8  82060138.16846  20039910.734                    20039918.727
 111863184.954 7  87166144.760 7  21286860.313                    21286867.625
 112391103.194 7  87577421.907 7  21387275.188                    21387283.234
 119828209.501 7  93372632.61744  22802538.430                    22802547.270
 113889473.991 8  88745094.63745  21672441.563                    21672448.438
 116666680.529 7  90909046.41444  22200906.766                    22200914.098
 11  8 20 19 36  0.0000000  0  8G24G01G08G07G17G26G28G11
 115555094.328 7  90042811.85145  21989354.781                    21989364.051
 114752002.040 7  89417046.506 7  21836529.297                    21836540.961
 105324277.061 8  82070903.45246  20042540.000                    20042547.359
 111933069.549 7  87220600.231 7  21300158.648                    21300166.762
 112344730.904 7  87541287.673 7  21378450.828                    21378458.816
 119837644.904 7  93379984.87344  22804333.453                    22804342.289
 113868254.788 7  88728560.20345  21668403.727                    21668410.492
 116727982.284 7  90956814.00444  22212571.547                    22212579.117
 11  8 20 19 36 30.0000000  0  8G24G01G08G07G17G26G28G11
 115571412.667 7  90055527.43345  21992459.547                    21992469.262
 114760814.971 7  89423913.735 7  21838206.297                    21838217.063
 105338667.728 8  82082116.94746  20045278.922                    20045285.746
 112003393.174 7  87275397.802 7  21313541.133                    21313548.711
 112298731.256 7  87505443.817 7  21369697.523                    21369705.574
 119847655.385 7  93387785.24544  22806237.945                    22806247.547
 113847063.550 8  88712047.56045  21664370.891                    21664377.820
 116789768.072 7  91004958.76344  22224329.016                    22224335.859
 11  8 20 19 37  0.0000000  0  8G24G01G08G07G17G26G28G11
 115588297.483 7  90068684.43545  21995673.008                    21995682.211
 114770196.927 7  89431224.370 7  21839991.336                    21840002.617
 105353633.881 8  82093778.86346  20048126.594                    20048134.250
 112074154.422 7  87330536.375 7  21327005.766                    21327014.816
 112253104.154 8  87469890.262 7  21361014.680                    21361023.043
 119858239.389 7  93396032.48644  22808252.125                    22808261.387
 113825900.252 8  88695556.67745  21660343.875                    21660350.109
 116852035.790 7  91053479.02644  22236177.891                    22236185.102
 11  8 20 19 37 30.0000000  0  8G24G01G08G07G17G26G28G11
 115605748.818 7  90082282.87745  21998993.828                    21999002.883
 114780148.239 7  89438978.646 7  21841885.328                    21841897.000
 105369176.299 8  82105889.81946  20051084.180                    20051091.285
 112145352.043 7  87386014.964 7  21340554.961                    21340563.012
 112207849.194 7  87434626.689 7  21352402.828                    21352411.223
 119869395.599 7  93404725.62544  22810375.656                    22810384.766
 113804765.527 8  88679088.06945  21656322.320                    21656328.203
 116914783.618 7  91102373.39744  22248118.570                    22248125.504
 11  8 20 19 38  0.0000000  0  8G24G01G08G07G17G26G28G11
 115623766.353 7  90096322.53045  22002422.430                    22002431.945
 114790668.633 7  89447176.366 7  21843887.680                    21843898.352
 105385295.371 8  82118450.11446  20054151.359                    20054159.484
 112216984.417 7  87441832.334 7  21354186.055                    21354194.664
 112162966.373 7  87399653.086 7  21343861.844                    21343869.934
 119881122.789 7  93413863.67444  22812607.063                    22812616.078
 113783659.520 8  88662641.81945  21652306.180                    21652311.664
 116978009.438 7  91151640.23144  22260149.938                    22260157.445
 11  8 20 19 38 30.0000000  0  8G24G01G08G07G17G26G28G11
 115642349.767 6  90110803.11345  22005958.758                    22005967.785
 114801758.210 7  89455817.607 7  21845997.336                    21846008.551
 105401991.460 7  82131460.03946  20057328.273                    20057336.027
 112289049.784 7  87497987.096 7  21367899.531                    21367908.270
 112118456.011 7  87364969.714 7  21335392.094                    21335399.520
 119893419.446 7  93423445.45844  22814946.852                    22814955.941
 113762582.236 8  88646217.96446  21648295.195                    21648300.855
 117041710.899 7  91201277.69444  22272272.547                    22272279.617
 11  8 20 19 39  0.0000000  0  8G24G01G08G07G17G26G28G11
 115661499.205 7  90125724.74845  22009603.055                    22009611.719
 114813417.439 7  89464902.717 7  21848215.602                    21848227.469
 105419265.746 8  82144920.51046  20060616.000                    20060623.223
 112361547.102 7  87554478.454 7  21381695.227                    21381703.301
 112074317.899 7  87330576.397 7  21326992.930                    21327000.621
 119906284.569 7  93433470.21244  22817395.078                    22817404.105
 113741534.544 8  88629817.16046  21644289.883                    21644296.398
 117105886.710 7  91251284.79044  22284484.531                    22284492.254
 11  8 20 19 39 30.0000000  0  8G24G01G08G07G17G26G28G11
 115681214.815 7  90141087.55345  22013354.922                    22013363.527
 114825646.015 7  89474431.489 7  21850542.992                    21850554.262
 105437118.909 8  82158832.03946  20064013.383                    20064020.695
 112434475.352 7  87611305.612 7  21395573.523                    21395580.996
 112030552.022 7  87296473.154 7  21318663.844                    21318672.813
 119919717.009 7  93443937.03744  22819950.852                    22819960.094
 113720517.398 8  88613440.17646  21640290.148                    21640296.922
 117170534.520 7  91301659.69044  22296786.414                    22296794.934
 11  8 20 19 40  0.0000000  0  8G24G01G08G07G17G26G28G11
 115701496.067 7  90156891.12845  22017213.539                    22017223.195
 114838444.303 7  89484404.192 7  21852978.313                    21852989.762
 105455551.393 8  82173194.99646  20067520.688                    20067528.129
 112507832.850 7  87668467.238 7  21409533.094                    21409541.059
 111987158.660 7  87262660.169 7  21310406.750                    21310414.625
 119933715.453 7  93454844.88244  22822615.039                    22822624.496
 113699530.824 8  88597087.01146  21636296.945                    21636303.133
 117235652.153 7  91352400.67644  22309178.188                    22309185.824
 11  8 20 19 40 30.0000000  0  8G24G01G08G07G17G26G28G11
 115722342.532 7  90173135.13445  22021181.109                    22021190.145
 114851811.964 7  89494820.549 7  21855522.453                    21855533.637
 105474563.661 8  82188009.72646  20071138.719                    20071146.035
 112581618.015 7  87725962.097 7  21423574.086                    21423581.977
 111944137.399 7  87229137.137 7  21302220.516                    21302227.848
 119948278.109 7  93466192.37944  22825386.367                    22825395.715
 113678575.119 7  88580757.89446  21632309.125                    21632315.508
 117301237.991 7  91403506.50844  22321658.641                    22321666.727
 11  8 20 19 41  0.0000000  0  8G24G01G08G07G17G26G28G11
 115743753.943 7  90189819.36145  22025255.523                    22025264.664
 114865748.765 7  89505680.393 7  21858174.828                    21858186.074
 105494155.900 8  82203276.37946  20074866.789                    20074874.168
 112655829.148 8  87783788.888 7  21437696.000                    21437704.297
 111901488.044 7  87195903.888 7  21294104.406                    21294112.367
 119963403.634 7  93477978.47344  22828264.445                    22828274.309
 113657650.190 8  88564452.76246  21628326.523                    21628333.930
 117367289.375 7  91454975.09944  22334227.711                    22334235.395
 11  8 20 19 41 30.0000000  0  8G24G01G08G07G17G26G28G11
 115765730.405 7  90206943.89245  22029437.500                    22029446.500
 114880254.752 7  89516983.775 7  21860935.125                    21860945.746
 105514329.004 8  82218995.65446  20078705.938                    20078713.363
 112730465.030 7  87841946.654 7  21451898.555                    21451906.699
 111859210.849 7  87162960.654 7  21286059.352                    21286067.438
 119979090.849 7  93490202.25044  22831249.742                    22831259.297
 113636757.229 8  88548172.54246  21624351.008                    21624357.934
 117433804.513 7  91506805.03845  22346885.563                    22346892.660
 11  8 20 19 42  0.0000000  0  8G24G01G08G07G17G26G28G11
 115788271.126 7  90224508.08845  22033726.844                    22033736.527
 114895329.724 7  89528730.516 7  21863803.680                    21863814.801
 105535082.760 8  82235167.39546  20082655.164                    20082662.977
 112805523.809 7  87900433.945 7  21466181.766                    21466189.781
 111817305.184 7  87130306.920 7  21278084.703                    21278092.836
 119995337.808 7  93502862.19044  22834341.586                    22834350.953
 113615896.011 8  88531917.04746  21620381.680                    21620388.102
 117500780.878 7  91558994.39944  22359630.602                    22359638.145
 11  8 20 19 42 30.0000000  0  8G24G01G08G07G17G26G28G11
 115811375.677 7  90242511.63345  22038123.047                    22038132.898
 114910973.399 7  89540920.411 7  21866780.523                    21866791.164
 105556417.368 8  82251791.73746  20086715.055                    20086722.258
 112881003.944 7  87959249.554 7  21480545.398                    21480553.645
 111775770.795 7  87097942.487 7  21270181.039                    21270189.109
 120012142.917 7  93515957.08144  22837539.859                    22837548.426
 113595066.947 8  88515686.61545  21616418.023                    21616424.566
 117568216.338 7  91611541.46344  22372462.781                    22372470.539
 11  8 20 19 43  0.0000000  0  8G24G01G08G07G17G26G28G11
 115835043.946 7  90260954.44145  22042626.922                    22042636.762
 114927185.612 7  89553553.299 7  21869865.453                    21869876.082
 105578333.419 8  82268869.15046  20090885.656                    20090892.965
 112956903.972 7  88018392.357 7  21494988.961                    21494997.539
 111734607.818 7  87065867.457 7  21262348.023                    21262355.738
 120029504.696 7  93529485.71244  22840843.625                    22840852.367
 113574270.787 8  88499481.81446  21612460.695                    21612466.535
 117636108.830 7  91664444.66644  22385382.602                    22385390.203
